GFSSE_con_mlcape_000.txt.gz
CAPE
8 163 1194 570 592 261 112 0 0 0 0 0 4 36 53 47 32 22 8 0 2 0 0 0 0 7 45 65 56 30 19 1 0 0 0 0 0 0 10 11 0 2 2
26 204 1212 663 676 429 80 24 2 0 0 0 8 25 28 2 20 27 43 14 0 0 0 0 0 0 1 10 16 11 15 17 0 0 0 0 0 0 3 3 23 0 5
60 244 990 1213 727 541 136 47 13 0 7 0 3 16 13 9 29 38 39 22 12 0 0 0 0 0 0 0 0 0 1 3 0 0 0 0 0 0 0 8 11 5 6
136 621 1228 1245 816 618 263 91 24 0 0 0 0 4 23 17 43 40 35 3 0 0 0 0 0 0 0 0 0 0 0 0 1 0 0 0 0 0 0 11 23 14 6
458 1184 1193 1297 962 764 443 133 71 13 0 0 1 10 20 29 46 34 0 0 0 0 0 0 0 0 0 0 1 2 1 0 0 0 0 0 0 0 0 6 22 20 14
760 1277 1242 1240 913 991 617 259 131 35 1 0 0 5 12 28 36 42 22 2 0 0 0 0 0 0 0 0 1 4 29 10 0 0 0 0 0 0 0 0 6 5 16
752 1197 1205 1013 878 994 637 436 150 61 2 0 0 0 10 23 33 77 41 11 5 0 0 0 0 3 3 4 2 2 15 20 6 0 0 0 0 0 0 0 0 5 7
513 1078 1198 1021 1069 1039 734 421 183 85 27 0 0 0 11 12 12 86 75 63 21 0 29 4 17 21 11 2 16 23 10 3 0 0 0 0 0 0 2 6 2 3 2
539 1000 1171 1267 1169 1069 824 397 193 119 94 0 0 13 21 9 0 11 129 111 102 104 17 38 42 29 40 57 59 48 23 11 0 0 0 0 0 0 57 74 82 31 9
669 913 1117 1314 1106 941 761 375 204 131 118 29 10 3 0 1 0 0 47 121 38 18 43 58 81 108 105 83 75 54 23 3 0 0 0 0 0 58 199 236 283 258 212
919 970 1274 1293 909 950 603 445 266 137 107 69 2 1 0 0 0 0 0 0 0 18 50 74 145 117 29 5 6 0 0 0 0 0 0 0 0 44 67 79 178 263 224
800 1095 1269 1111 897 833 756 542 324 243 178 101 34 2 0 0 0 0 0 0 6 6 2 25 16 0 0 0 0 0 0 0 0 0 0 0 0 0 0 0 1 72 19
584 1011 1310 1152 1054 797 655 508 298 242 189 115 41 0 0 0 0 0 0 0 0 0 2 0 0 0 0 0 0 0 0 0 0 0 0 0 0 0 0 0 0 0 65
341 801 1107 1157 1022 789 563 377 277 183 159 74 17 0 2 0 0 0 0 0 0 0 0 0 0 0 0 0 0 0 0 0 0 0 0 0 0 0 0 0 7 12 0
36 196 727 1061 934 683 582 306 258 182 103 72 23 6 7 0 0 0 0 0 0 0 0 0 0 0 0 0 0 0 0 0 0 0 0 0 0 0 0 0 0 0 0
0 0 92 627 851 627 428 286 215 161 100 54 31 20 0 1 0 0 0 0 0 0 0 0 0 0 0 0 0 0 0 0 0 0 0 0 0 0 0 0 0 0 0
0 0 0 139 684 665 503 406 321 166 103 24 0 0 0 0 0 0 0 0 0 0 0 0 0 0 0 0 0 0 0 0 0 0 0 0 0 0 0 0 0 0 0
0 0 0 62 580 640 560 351 155 74 0 0 0 0 0 0 0 0 0 0 0 0 0 0 0 0 0 0 0 0 0 0 0 0 0 0 0 0 0 0 0 0 0
0 0 0 116 520 528 204 44 0 0 0 0 0 0 0 0 0 0 0 0 0 0 0 0 0 0 0 0 0 0 0 0 0 0 0 0 0 0 0 0 0 0 0
0 0 54 304 445 59 0 0 0 0 0 0 0 0 0 0 0 0 0 0 0 0 0 0 0 0 0 0 0 0 0 0 0 0 0 0 0 0 0 0 0 0 0
0 12 174 320 71 0 0 0 0 0 0 0 0 0 0 0 0 0 0 0 0 0 0 0 0 0 0 0 0 0 0 0 0 0 0 0 0 0 0 0 0 0 0
0 41 229 179 0 0 0 0 0 0 0 0 0 0 0 0 0 0 0 0 0 0 0 0 0 0 0 0 0 0 0 0 0 0 0 0 0 0 0 0 0 0 0
0 2 88 3 0 0 0 0 0 0 0 0 0 0 0 0 0 0 0 0 0 0 0 0 0 0 0 0 0 0 0 0 0 0 0 0 0 0 0 0 0 0 0
0 0 0 0 0 0 0 0 0 0 0 0 0 0 0 0 0 0 0 0 0 0 0 0 0 0 0 0 0 0 0 0 0 0 0 0 0 0 0 0 0 0 0
0 0 0 0 0 0 0 0 0 0 0 0 0 0 0 0 0 0 0 0 0 0 0 0 0 0 0 0 0 0 0 0 0 0 0 0 0 0 0 0 0 0 0
0 0 0 0 0 0 0 0 0 0 0 0 0 0 0 0 0 0 0 0 0 0 0 0 0 0 0 0 0 0 0 0 0 0 0 0 0 0 0 0 0 0 0

GFSSE_con_mlcape_003.txt.gz
CAPE
39 246 1214 705 580 443 138 35 5 0 0 0 1 48 54 65 62 39 26 20 2 0 0 0 0 2 35 41 48 44 24 11 1 0 0 0 0 0 0 19 11 1 7
83 372 1360 773 768 638 141 48 18 1 0 0 41 30 20 36 51 51 55 27 0 0 0 0 0 0 0 9 17 23 19 18 0 0 0 0 0 0 0 12 30 3 3
114 667 1369 998 881 637 247 93 49 38 0 0 38 20 2 5 15 53 53 14 0 0 0 0 0 0 0 0 0 0 0 0 0 0 0 0 0 0 1 0 22 3 0
236 856 1318 1302 859 729 329 189 59 27 24 0 0 9 11 11 40 53 35 10 0 0 0 0 0 0 0 0 0 0 0 0 0 0 0 0 0 0 0 19 2 7 3
333 1012 1416 1443 1055 952 557 336 107 42 0 0 2 15 19 31 44 26 0 0 0 0 0 0 0 0 1 3 10 14 15 4 0 0 0 0 0 0 0 0 4 24 8
589 1283 1496 1633 1224 1123 708 421 254 89 8 0 0 14 21 34 44 48 0 0 0 0 0 0 0 0 1 4 1 4 5 12 4 0 0 0 0 0 0 0 0 0 4
872 1592 1454 1589 1307 1329 947 669 387 156 64 0 0 7 18 35 64 52 42 8 0 0 0 0 11 12 10 9 6 6 0 0 0 0 0 0 0 0 16 9 1 3 8
908 1637 1389 1309 1138 1419 965 766 393 192 112 24 0 0 17 26 18 37 39 31 23 0 66 13 25 47 32 38 45 37 14 0 0 0 0 0 0 0 48 53 64 32 5
1080 1329 1279 1192 1144 1027 972 662 429 232 144 33 0 18 41 23 0 20 79 107 118 139 49 56 89 98 107 104 79 51 18 3 3 0 0 0 0 9 103 111 142 231 192
948 1333 1225 1295 1229 1229 1264 630 355 237 237 81 56 42 18 0 0 0 6 106 62 31 88 114 138 117 48 9 12 1 0 0 0 0 0 0 0 36 119 193 257 296 330
884 1203 1245 1345 1236 1047 1167 639 353 231 257 122 53 11 0 0 0 0 0 1 10 33 82 83 37 0 0 0 0 0 0 0 0 0 0 0 0 19 40 30 7 62 269
799 911 1161 1393 1270 1091 1019 679 467 305 256 142 52 19 0 0 0 0 0 0 14 4 0 0 0 0 0 0 0 0 0 0 0 0 0 0 0 0 0 0 0 0 0
688 959 1067 1037 929 1022 983 749 518 406 260 163 87 15 0 0 0 0 0 3 2 0 0 0 0 0 0 0 0 0 0 0 0 0 0 0 0 0 0 0 11 41 1
378 759 1067 1057 941 976 977 757 539 365 332 195 116 26 5 0 0 3 13 0 0 0 0 0 0 0 0 0 0 0 0 0 0 0 0 0 0 0 5 0 0 0 0
141 469 879 1108 1147 1081 993 781 550 316 299 222 104 37 39 0 8 0 0 0 0 0 0 0 0 0 0 0 0 0 0 0 0 0 0 0 0 0 0 0 0 0 0
9 35 452 958 1068 1145 909 719 482 313 264 174 106 77 63 3 0 0 0 0 0 0 0 0 0 0 0 0 0 0 0 0 0 0 0 0 0 0 0 0 0 0 0
0 0 0 224 881 1148 922 702 378 291 196 127 110 82 4 0 0 0 0 0 0 0 0 0 0 0 0 0 0 0 0 0 0 0 0 0 0 0 0 0 0 0 0
0 0 0 2 257 951 863 468 264 201 127 44 0 0 0 0 0 0 0 0 0 0 0 0 0 0 0 0 0 0 0 0 0 0 0 0 0 0 0 0 0 0 0
0 0 0 26 162 656 537 271 138 32 0 0 0 0 0 0 0 0 0 0 0 0 0 0 0 0 0 0 0 0 0 0 0 0 0 0 0 0 0 0 0 0 0
0 0 0 82 252 286 115 0 0 0 0 0 0 0 0 0 0 0 0 0 0 0 0 0 0 0 0 0 0 0 0 0 0 0 0 0 0 0 0 0 0 0 0
0 0 23 122 102 67 14 0 0 0 0 0 0 0 0 0 0 0 0 0 0 0 0 0 0 0 0 0 0 0 0 0 0 0 0 0 0 0 0 0 0 0 0
0 0 156 232 19 32 0 0 0 0 0 0 0 0 0 0 0 0 0 0 0 0 0 0 0 0 0 0 0 0 0 0 0 0 0 0 0 0 0 0 0 0 0
0 3 270 22 0 0 0 0 0 0 0 0 0 0 0 0 0 0 0 0 0 0 0 0 0 0 0 0 0 0 0 0 0 0 0 0 0 0 0 0 0 0 0
0 5 75 0 0 0 0 0 0 0 0 0 0 0 0 0 0 0 0 0 0 0 0 0 0 0 0 0 0 0 0 0 0 0 0 0 0 0 0 0 0 0 0
0 0 0 0 0 0 0 0 0 0 0 0 0 0 0 0 0 0 0 0 0 0 0 0 0 0 0 0 0 0 0 0 0 0 0 0 0 0 0 0 0 0 0
0 0 0 0 0 0 0 0 0 0 0 0 0 0 0 0 0 0 0 0 0 0 0 0 0 0 0 0 0 0 0 0 0 0 0 0 0 0 0 0 0 0 0

GFSSE_con_mlcape_006.txt.gz
CAPE
74 887 1127 609 540 406 137 38 20 0 0 0 1 38 62 63 47 36 28 20 0 0 0 0 0 7 36 40 43 30 21 15 0 0 0 0 0 0 0 2 46 9 1
160 921 950 742 600 485 127 48 24 1 0 0 33 29 22 44 50 47 40 13 0 0 0 0 0 0 2 7 11 16 20 14 0 0 0 0 0 0 0 4 2 57 0
316 1030 1023 781 693 521 178 77 59 16 0 12 14 1 0 1 20 38 26 0 0 0 0 0 0 0 0 0 0 0 0 0 0 0 0 0 0 0 0 0 2 1 0
480 1222 1256 1099 844 563 313 140 79 56 0 0 4 0 0 11 23 41 0 0 0 0 0 0 0 3 3 2 2 0 0 0 0 0 0 0 0 0 0 0 0 27 0
661 1349 1442 1163 876 675 401 234 87 56 0 0 0 2 20 9 32 39 0 0 0 0 0 0 0 0 0 2 6 14 23 10 0 0 0 0 0 0 0 0 4 33 65
682 1338 1845 1236 1020 710 494 288 136 50 0 0 1 7 17 27 32 4 0 0 0 0 0 0 0 6 7 8 6 2 4 3 0 1 0 0 0 0 0 0 0 0 11
851 1435 1878 1396 1222 889 651 403 305 80 16 0 0 3 12 36 65 18 17 0 0 0 0 0 8 27 22 3 22 28 11 0 0 1 0 0 0 0 11 13 32 17 11
1092 1407 1813 1577 1403 885 869 620 304 124 64 2 0 0 12 32 10 28 34 1 0 1 41 0 37 65 79 99 84 43 8 0 5 12 4 2 0 0 54 85 108 129 112
1210 1386 1483 1565 1115 1062 1024 620 318 152 115 23 0 4 63 7 0 21 41 79 97 84 13 60 93 111 105 62 20 1 0 0 0 1 0 0 0 4 89 118 208 278 352
1138 1238 1210 1215 906 1327 1136 602 333 241 111 33 39 53 25 0 0 0 23 45 27 14 63 99 67 10 0 0 0 0 0 0 0 0 0 0 0 29 96 98 131 123 172
1117 1232 1177 1177 1156 1382 1361 661 329 268 245 73 53 14 0 0 0 0 0 0 5 36 22 6 0 0 0 0 0 0 0 0 0 0 0 0 0 0 0 0 0 0 0
1133 1208 1275 1420 1373 1304 1297 806 539 200 300 169 75 38 0 0 0 0 0 0 0 0 0 0 0 0 0 0 0 0 0 0 0 0 0 0 0 0 0 0 0 7 33
1032 1236 1275 1559 1587 1317 1252 990 641 314 293 250 142 40 0 0 0 0 7 28 99 0 0 0 0 0 0 0 0 0 0 0 0 0 0 0 0 0 1 13 0 0 0
1018 1233 1298 1418 1424 1291 1318 982 669 431 330 266 193 65 0 0 2 11 75 7 0 0 0 0 0 0 0 0 0 0 0 0 0 0 0 0 0 0 0 0 0 0 0
616 1014 1289 1371 1530 1305 1472 1112 806 495 377 374 249 47 44 60 105 0 0 0 0 0 0 0 0 0 0 0 0 0 0 0 0 0 0 0 0 0 0 0 0 0 0
298 599 1058 1356 1461 1398 1388 1288 929 558 449 523 237 101 204 181 33 0 0 0 0 0 0 0 0 0 0 0 0 0 0 0 0 0 0 0 0 0 0 0 0 0 0
10 125 441 1069 1369 1347 1293 1396 1024 665 557 459 269 282 294 3 0 0 0 0 0 0 0 0 0 0 0 0 0 0 0 0 0 0 0 0 0 0 0 0 0 0 0
0 0 0 230 1081 1170 1642 1441 1127 729 609 456 390 304 0 0 0 0 0 0 0 0 0 0 0 0 0 0 0 0 0 0 0 0 0 0 0 0 0 0 0 0 0
0 0 0 0 266 977 1392 1351 1052 798 572 84 0 0 0 0 0 0 0 0 0 0 0 0 0 0 0 0 0 0 0 0 0 0 0 0 0 0 0 0 0 0 0
0 0 0 8 242 735 1102 838 557 159 0 0 0 0 0 0 0 0 0 0 0 0 0 0 0 0 0 0 0 0 0 0 0 0 0 0 0 0 0 0 0 0 0
0 0 0 65 535 733 588 99 0 0 0 0 0 0 0 0 0 0 0 0 0 0 0 0 0 0 0 0 0 0 0 0 0 0 0 0 0 0 0 0 0 0 0
0 0 28 311 482 578 65 121 49 0 0 0 0 0 0 0 0 0 0 0 0 0 0 0 0 0 0 0 0 0 0 0 0 0 0 0 0 0 0 0 0 0 0
0 0 166 452 391 316 48 52 0 0 0 0 0 0 0 0 0 0 0 0 0 0 0 0 0 0 0 0 0 0 0 0 0 0 0 0 0 0 0 0 0 0 0
0 0 289 433 268 132 0 0 0 0 0 0 0 0 0 0 0 0 0 0 0 0 0 0 0 0 0 0 0 0 0 0 0 0 0 0 0 0 0 0 0 0 0
0 0 342 161 129 6 0 0 0 0 0 0 0 0 0 0 0 0 0 0 0 0 0 0 0 0 0 0 0 0 0 0 0 0 0 0 0 0 0 0 0 0 0
0 5 64 81 69 0 0 0 0 0 0 0 0 0 0 0 0 0 0 0 0 0 0 0 0 0 0 0 0 0 0 0 0 0 0 0 0 0 0 0 0 0 0

GFSSE_con_mlcape_009.txt.gz
CAPE
214 923 999 709 482 220 80 0 1 0 0 0 6 31 42 42 25 20 22 0 0 0 0 0 1 10 29 39 47 41 36 24 0 0 0 0 0 0 0 2 31 12 21
437 1185 893 572 402 335 74 0 0 0 0 1 21 25 44 39 40 37 13 9 0 0 0 0 0 0 1 0 2 6 17 15 0 0 0 0 0 0 3 2 5 27 0
828 952 777 503 421 375 123 40 1 0 5 12 0 0 0 0 18 16 1 0 0 0 0 1 0 0 0 0 0 0 0 0 0 0 0 0 0 0 0 0 0 2 0
839 935 913 674 527 396 226 110 56 0 4 3 0 0 0 0 25 19 0 0 0 0 0 0 0 0 0 0 0 0 3 0 0 0 0 0 0 0 0 0 1 4 5
825 1124 1019 917 704 518 348 141 110 26 0 0 0 0 0 12 24 0 0 0 0 0 0 0 0 0 0 0 0 0 7 7 0 0 0 0 0 0 0 0 0 2 22
847 1225 1145 958 804 558 409 164 108 43 0 0 0 0 0 0 11 3 0 0 0 0 0 0 4 8 7 0 6 6 0 0 0 2 0 0 0 0 0 1 0 0 0
881 1673 1496 1115 886 617 502 224 151 54 16 6 0 0 17 43 29 28 5 0 0 0 0 0 8 21 2 27 51 22 0 0 0 6 3 3 5 0 6 17 10 42 41
936 1527 1691 1300 1055 750 574 467 188 70 40 3 14 0 68 10 40 16 27 3 0 12 0 0 51 70 90 81 45 11 0 0 0 3 2 0 0 0 33 35 101 137 131
925 1259 1849 1610 1285 887 759 672 246 114 70 10 11 8 80 0 16 67 41 42 55 27 11 60 69 43 16 2 0 0 0 0 0 0 0 0 0 0 37 58 112 153 161
973 1135 1500 1708 1465 1099 979 637 264 117 98 16 29 67 20 0 0 27 34 61 19 22 43 12 0 0 0 0 0 0 0 0 0 0 0 0 0 0 1 5 5 3 5
1017 1133 1135 1185 952 1421 1263 666 289 195 102 50 41 22 0 0 0 1 0 0 14 7 3 0 0 0 0 0 0 0 0 0 0 0 0 0 0 0 0 0 0 0 21
997 1062 1092 1088 993 1361 1338 796 563 245 285 74 44 2 0 0 0 9 0 0 0 0 0 0 0 0 0 0 0 0 0 0 0 0 0 0 0 0 0 10 3 0 7
939 1104 1204 1302 1185 1111 1299 994 716 325 301 227 91 39 0 0 0 0 0 0 4 0 0 0 0 0 0 0 0 0 0 0 0 0 0 0 0 11 16 2 0 1 0
807 1093 1390 1410 1466 1346 1176 1219 686 441 341 260 142 31 0 0 0 0 14 24 0 0 0 0 0 0 0 0 0 0 0 0 0 0 0 0 0 0 0 0 1 0 0
486 935 1309 1446 1605 1491 1338 1011 803 611 360 319 258 70 0 0 13 26 0 0 0 0 0 0 0 0 0 0 0 0 0 0 0 0 0 0 0 0 0 0 0 0 0
204 631 1089 1389 1600 1457 1531 1221 893 762 450 381 388 96 28 80 82 0 0 0 0 0 0 0 0 0 0 0 0 0 0 0 0 0 0 0 0 0 0 0 0 0 0
15 233 624 1125 1435 1494 1456 1517 1018 925 582 493 359 108 172 232 0 0 0 0 0 0 0 0 0 0 0 0 0 0 0 0 0 0 0 0 0 0 0 0 0 0 0
0 0 213 662 1187 1491 1390 1522 1339 969 683 608 370 250 401 5 0 0 0 0 0 0 0 0 0 0 0 0 0 0 0 0 0 0 0 0 0 0 0 0 0 0 0
0 0 0 40 642 1317 1258 1632 1457 956 687 745 587 607 64 0 0 0 0 0 0 0 0 0 0 0 0 0 0 0 0 0 0 0 0 0 0 0 0 0 0 0 0
0 0 0 0 37 777 1392 1680 1463 1078 869 587 216 0 0 0 0 0 0 0 0 0 0 0 0 0 0 0 0 0 0 0 0 0 0 0 0 0 0 0 0 0 0
0 0 0 0 26 300 1168 1315 1196 930 483 24 0 0 0 0 0 0 0 0 0 0 0 0 0 0 0 0 0 0 0 0 0 0 0 0 0 0 0 0 0 0 0
0 0 0 0 59 504 1343 1069 733 156 0 0 0 0 0 0 0 0 0 0 0 0 0 0 0 0 0 0 0 0 0 0 0 0 0 0 0 0 0 0 0 0 0
0 0 0 21 286 921 896 421 117 0 0 0 0 0 0 0 0 0 0 0 0 0 0 0 0 0 0 0 0 0 0 0 0 0 0 0 0 0 0 0 0 0 0
0 0 0 53 545 802 379 368 92 0 0 0 0 0 0 0 0 0 0 0 0 0 0 0 0 0 0 0 0 0 0 0 0 0 0 0 0 0 0 0 0 0 0
0 0 0 48 562 541 267 193 42 0 0 0 0 0 0 0 0 0 0 0 0 0 0 0 0 0 0 0 0 0 0 0 0 0 0 0 0 0 0 0 0 0 0
0 0 0 95 496 369 78 31 0 0 0 0 0 0 0 0 0 0 0 0 0 0 0 0 0 0 0 0 0 0 0 0 0 0 0 0 0 0 0 0 0 0 0

GFSSE_con_mlcape_012.txt.gz
CAPE
681 744 738 589 367 169 64 25 0 0 0 3 28 34 30 26 20 18 0 0 0 0 0 1 7 22 24 30 42 50 29 22 0 0 0 0 0 0 1 4 13 13 12
851 944 963 661 375 167 71 21 0 0 0 8 20 74 49 37 36 22 3 0 0 0 0 1 0 0 0 1 0 1 6 0 0 0 0 0 0 0 1 4 0 5 5
1025 1045 958 613 374 197 82 32 0 0 30 0 0 10 11 39 10 0 0 0 0 0 0 2 1 1 0 0 0 0 0 0 0 0 0 0 0 0 0 0 0 2 0
1098 870 689 452 428 285 101 46 0 38 1 0 0 0 1 24 1 0 0 0 0 0 0 0 0 0 0 0 0 0 0 0 0 0 0 0 0 0 0 0 0 2 15
994 817 733 636 375 349 185 93 3 0 2 0 0 0 0 19 1 0 0 0 0 0 0 0 0 0 0 0 0 0 0 0 0 0 0 0 0 0 0 0 0 0 0
1027 1061 829 624 474 367 212 151 73 0 0 0 0 0 0 0 4 0 0 0 0 0 0 1 10 1 0 0 5 0 0 0 0 0 0 0 0 0 0 0 1 0 0
1201 1092 836 763 589 459 261 126 66 3 0 0 0 7 47 32 0 0 0 0 0 0 0 5 21 6 3 17 0 0 0 0 0 2 4 1 3 1 6 8 9 54 72
1620 1241 1001 891 767 540 398 254 105 40 13 4 4 18 53 17 44 36 0 0 0 1 0 3 9 33 10 0 0 0 0 0 0 0 0 0 0 0 13 13 57 151 146
1783 1559 1090 978 859 665 521 366 183 71 42 23 23 77 28 6 95 123 35 6 47 0 8 11 0 0 0 0 0 0 0 0 0 0 0 0 0 0 0 6 12 12 16
1080 1695 1352 1175 1024 803 680 503 257 83 37 27 32 82 0 0 62 118 74 71 3 5 0 0 0 0 0 0 0 0 0 0 0 0 0 0 0 0 0 0 0 0 5
986 1655 1656 1507 1192 998 891 576 316 105 56 28 68 36 0 0 0 37 21 0 0 0 0 0 0 0 0 0 0 0 0 0 0 0 0 0 0 0 0 5 13 13 52
905 1026 1581 1666 1402 1137 1079 566 270 162 42 18 28 3 0 0 0 0 0 0 0 0 0 0 0 0 0 0 0 0 0 0 0 0 0 0 0 1 20 6 3 18 12
899 963 975 1023 1117 1260 1119 632 494 356 211 58 38 3 0 0 0 0 0 0 0 0 0 0 0 0 0 0 0 0 0 0 0 0 0 0 0 11 7 11 2 0 1
834 976 1091 1124 1213 1455 1276 904 752 361 299 142 123 25 0 0 0 0 1 21 0 0 0 0 0 0 0 0 0 0 0 0 0 0 0 0 0 0 0 0 0 0 0
641 959 1259 1155 1352 1148 1168 985 680 380 336 223 190 20 0 2 0 0 0 0 0 0 0 0 0 0 0 0 0 0 0 0 0 0 0 0 0 0 0 0 0 0 0
62 797 1313 1337 1457 1557 1286 1091 805 460 467 389 283 98 0 4 10 0 0 0 0 0 0 0 0 0 0 0 0 0 0 0 0 0 0 0 0 0 0 0 0 0 0
0 258 919 1370 1526 1511 1398 1088 919 634 646 432 334 168 6 11 0 0 0 0 0 0 0 0 0 0 0 0 0 0 0 0 0 0 0 0 0 0 0 0 0 0 0
0 0 472 1191 1542 1511 1287 1270 1052 821 705 490 440 107 161 0 0 0 0 0 0 0 0 0 0 0 0 0 0 0 0 0 0 0 0 0 0 0 0 0 0 0 0
0 0 58 746 1352 1503 1344 1320 1390 1032 767 642 488 309 132 0 0 0 0 0 0 0 0 0 0 0 0 0 0 0 0 0 0 0 0 0 0 0 0 0 0 0 0
0 0 0 170 881 1489 1325 1252 1335 1028 761 680 512 285 0 0 0 0 0 0 0 0 0 0 0 0 0 0 0 0 0 0 0 0 0 0 0 0 0 0 0 0 0
0 0 0 0 67 1292 1395 1255 1366 1037 721 583 129 1 0 0 0 0 0 0 0 0 0 0 0 0 0 0 0 0 0 0 0 0 0 0 0 0 0 0 0 0 0
0 0 0 0 0 105 1371 1288 1371 971 404 39 0 0 0 0 0 0 0 0 0 0 0 0 0 0 0 0 0 0 0 0 0 0 0 0 0 0 0 0 0 0 0
0 0 0 0 0 0 1054 1410 577 15 0 0 0 0 0 0 0 0 0 0 0 0 0 0 0 0 0 0 0 0 0 0 0 0 0 0 0 0 0 0 0 0 0
0 0 0 0 0 8 1063 671 422 163 0 0 0 0 0 0 0 0 0 0 0 0 0 0 0 0 0 0 0 0 0 0 0 0 0 0 0 0 0 0 0 0 0
0 0 0 0 1 571 816 443 33 0 0 0 0 0 0 0 0 0 0 0 0 0 0 0 0 0 0 0 0 0 0 0 0 0 0 0 0 0 0 0 0 0 0
0 0 0 0 78 633 599 380 4 0 0 0 0 0 0 0 0 0 0 0 0 0 0 0 0 0 0 0 0 0 0 0 0 0 0 0 0 0 0 0 0 0 0

GFSSE_con_mlcape_015.txt.gz
CAPE
410 748 888 709 375 173 111 47 0 0 9 85 75 66 38 19 5 0 0 0 0 0 1 8 6 31 39 44 39 42 21 0 0 0 0 0 0 0 0 3 7 10 13
501 960 920 691 346 144 69 13 0 0 0 2 18 25 13 19 4 0 0 0 0 0 2 5 1 11 14 5 1 0 0 0 0 0 0 0 0 0 0 0 0 0 1
679 1031 777 617 279 125 65 5 0 3 4 55 95 62 42 5 1 0 0 0 0 1 5 3 0 0 0 0 0 0 0 0 0 0 0 0 0 0 0 0 0 0 0
743 991 709 536 271 137 71 6 90 21 0 0 0 9 14 0 0 0 0 0 0 0 0 0 0 0 0 0 0 0 0 0 0 0 0 0 0 0 0 0 0 1 5
755 843 747 485 337 191 98 23 113 9 0 0 3 0 17 2 0 0 0 0 0 0 1 0 0 0 0 0 0 0 0 0 0 0 0 0 0 0 0 0 0 0 0
668 614 760 509 372 306 172 38 30 57 0 0 0 4 18 5 1 0 0 0 0 0 1 4 0 0 0 0 0 0 0 0 0 0 0 0 0 6 0 0 0 0 5
718 672 830 562 439 317 278 162 0 0 0 19 20 20 23 8 4 0 0 0 0 0 0 11 2 0 1 0 0 0 0 0 0 0 0 0 0 0 0 3 4 107 99
938 733 651 646 526 422 328 185 9 0 20 14 34 79 60 48 10 12 0 0 0 0 1 0 1 9 0 0 0 0 0 0 0 0 0 0 0 0 1 4 32 38 48
1090 782 729 729 654 483 386 156 32 28 45 39 45 89 12 59 91 88 5 6 5 0 19 1 0 0 0 0 0 0 0 0 0 0 0 0 0 0 0 0 0 0 0
1106 970 847 790 726 592 520 277 127 30 39 57 81 72 0 109 259 212 65 94 2 0 0 0 0 0 0 0 0 0 0 0 0 0 0 0 0 0 0 0 0 18 55
1494 1126 861 775 772 630 544 437 217 39 33 58 91 45 0 12 198 138 102 46 0 0 0 0 0 0 0 0 0 0 0 0 0 0 0 0 0 0 23 17 19 40 28
1367 1284 1006 901 854 708 687 499 264 85 20 37 63 26 4 0 19 43 32 2 0 0 0 0 0 0 0 0 0 0 0 0 0 0 0 0 1 29 11 32 21 11 31
760 1536 1431 1200 1009 900 776 516 280 133 6 0 12 5 0 0 0 0 0 0 0 0 0 0 0 0 0 0 0 0 0 0 0 0 0 0 1 7 15 10 9 8 6
671 794 1561 1552 1212 1099 804 583 330 211 55 0 19 9 0 0 7 0 0 0 0 0 0 0 0 0 0 0 0 0 0 0 0 0 0 0 0 0 3 0 0 0 0
677 806 847 1121 1338 1174 957 708 604 494 226 123 124 46 0 0 0 0 0 3 0 0 0 0 0 0 0 0 0 0 0 0 0 0 0 0 0 0 0 0 0 0 0
233 814 972 980 1153 1159 1137 874 726 469 352 218 215 24 0 0 0 0 0 0 0 0 0 0 0 0 0 0 0 0 0 0 0 0 0 0 0 0 0 0 0 0 0
0 724 1062 1044 1136 1168 1168 1012 686 445 433 241 302 16 0 0 0 0 0 0 0 0 0 0 0 0 0 0 0 0 0 0 0 0 0 0 0 0 0 0 0 0 0
0 193 1110 1318 1326 1254 1246 1126 877 579 502 376 330 113 13 0 0 0 0 0 0 0 0 0 0 0 0 0 0 0 0 0 0 0 0 0 0 0 0 0 0 0 0
0 0 836 1315 1429 1482 1346 1250 928 717 648 524 315 183 12 0 0 0 0 0 0 0 0 0 0 0 0 0 0 0 0 0 0 0 0 0 0 0 0 0 0 0 0
0 0 0 1143 1438 1495 1430 1210 1155 866 808 582 355 121 0 0 0 0 0 0 0 0 0 0 0 0 0 0 0 0 0 0 0 0 0 0 0 0 0 0 0 0 0
0 0 0 139 1407 1468 1353 1201 1198 1066 775 598 344 0 0 0 0 0 0 0 0 0 0 0 0 0 0 0 0 0 0 0 0 0 0 0 0 0 0 0 0 0 0
0 0 0 0 849 1360 1214 1337 1150 913 599 228 0 0 0 0 0 0 0 0 0 0 0 0 0 0 0 0 0 0 0 0 0 0 0 0 0 0 0 0 0 0 0
0 0 0 0 252 1276 1234 1060 575 40 0 0 0 0 0 0 0 0 0 0 0 0 0 0 0 0 0 0 0 0 0 0 0 0 0 0 0 0 0 0 0 0 0
0 0 0 0 0 864 1052 732 729 535 215 0 0 0 0 0 0 0 0 0 0 0 0 0 0 0 0 0 0 0 0 0 0 0 0 0 0 0 0 0 0 0 0
0 0 0 0 0 0 746 440 587 253 0 0 0 0 0 0 0 0 0 0 0 0 0 0 0 0 0 0 0 0 0 0 0 0 0 0 0 0 0 0 0 0 0
0 0 0 0 0 1 238 321 381 14 0 0 0 0 0 0 0 0 0 0 0 0 0 0 0 0 0 0 0 0 0 0 0 0 0 0 0 0 0 0 0 0 0

GFSSE_con_mlcape_018.txt.gz
CAPE
331 583 711 456 291 189 125 84 90 188 218 211 192 162 77 21 1 0 0 0 0 0 6 13 56 90 59 58 46 23 1 0 0 0 0 0 0 0 0 0 0 3 9
435 736 726 503 333 166 92 45 42 100 163 145 100 48 22 9 1 0 0 0 0 0 5 3 22 22 20 12 1 0 0 0 0 0 0 0 0 0 0 0 0 0 0
516 737 726 535 313 109 71 20 27 54 59 92 50 43 32 4 1 0 0 0 2 4 7 9 8 1 0 0 0 0 0 0 0 0 0 0 0 0 0 0 0 0 0
609 826 662 510 177 113 50 65 104 84 141 202 152 67 2 0 0 0 0 0 1 1 0 0 0 0 0 0 0 0 0 0 0 0 0 0 0 0 0 0 0 0 3
739 733 674 448 207 120 54 251 85 24 43 50 64 22 0 0 0 0 0 0 0 0 1 0 0 0 0 0 0 0 0 0 0 0 0 0 0 0 0 0 0 0 0
683 664 718 468 271 146 83 242 66 1 0 3 31 49 0 0 1 0 0 0 0 1 3 1 0 0 0 0 0 0 0 0 0 0 0 0 0 6 2 0 0 0 0
599 683 626 496 338 179 89 251 103 14 0 18 35 58 32 3 2 0 0 0 0 3 21 6 0 0 1 0 0 0 0 0 0 0 0 0 2 6 2 4 5 86 83
527 625 601 583 449 300 149 72 134 33 45 54 67 86 67 34 30 12 0 0 3 0 8 5 27 4 0 0 0 0 0 0 0 0 0 0 0 0 1 4 5 4 9
589 552 642 666 496 384 360 90 66 94 110 119 151 157 139 106 64 95 21 31 0 24 48 44 8 0 0 0 0 0 0 0 0 0 0 0 0 0 0 0 0 0 2
750 573 638 774 590 449 374 117 66 150 113 106 201 134 45 145 186 185 72 108 22 65 0 0 0 0 0 0 0 0 0 0 0 0 0 0 0 0 0 1 10 35 67
789 613 622 670 617 462 342 170 84 94 117 100 147 34 19 267 347 242 113 160 53 23 0 0 0 0 0 0 0 0 0 0 0 0 0 0 0 20 21 36 47 54 47
966 715 571 705 635 538 470 308 185 60 61 90 84 32 0 185 309 238 172 119 3 0 0 0 0 0 0 0 0 0 0 0 0 0 0 0 29 21 38 26 33 36 30
1213 960 788 717 682 618 560 406 230 76 18 76 66 38 0 2 103 157 125 12 0 0 0 0 0 0 0 0 0 0 0 0 0 0 0 0 1 15 15 10 8 6 6
1244 1242 1009 813 774 691 615 429 278 98 10 10 45 35 4 0 4 48 7 0 0 0 0 0 0 0 0 0 0 0 0 0 0 0 0 0 0 2 3 0 0 0 0
663 1278 1263 1056 963 862 674 497 338 172 30 0 0 0 0 0 0 1 0 0 0 0 0 0 0 0 0 0 0 0 0 0 0 0 0 0 0 0 0 0 0 0 0
242 506 1252 1381 1225 1042 843 581 398 269 114 16 0 13 0 1 6 0 0 0 0 0 0 0 0 0 0 0 0 0 0 0 0 0 0 0 0 0 0 0 0 0 0
0 105 552 1143 1144 1202 979 715 586 441 284 118 52 54 2 0 0 0 0 0 0 0 0 0 0 0 0 0 0 0 0 0 0 0 0 0 0 0 0 0 0 0 0
0 0 287 917 1143 1123 1092 885 667 511 354 246 147 118 6 0 0 0 0 0 0 0 0 0 0 0 0 0 0 0 0 0 0 0 0 0 0 0 0 0 0 0 0
0 0 0 666 952 1140 1124 959 717 591 445 356 294 108 0 0 0 0 0 0 0 0 0 0 0 0 0 0 0 0 0 0 0 0 0 0 0 0 0 0 0 0 0
0 0 0 62 928 1021 964 916 695 541 489 422 377 128 0 0 0 0 0 0 0 0 0 0 0 0 0 0 0 0 0 0 0 0 0 0 0 0 0 0 0 0 0
0 0 0 0 615 1067 793 721 739 793 647 530 432 52 0 0 0 0 0 0 0 0 0 0 0 0 0 0 0 0 0 0 0 0 0 0 0 0 0 0 0 0 0
0 0 0 0 25 1075 996 912 829 744 604 543 163 0 0 0 0 0 0 0 0 0 0 0 0 0 0 0 0 0 0 0 0 0 0 0 0 0 0 0 0 0 0
0 0 0 0 0 379 1110 962 208 41 2 0 0 0 0 0 0 0 0 0 0 0 0 0 0 0 0 0 0 0 0 0 0 0 0 0 0 0 0 0 0 0 0
0 0 0 0 0 374 978 856 554 371 287 161 3 0 0 0 0 0 0 0 0 0 0 0 0 0 0 0 0 0 0 0 0 0 0 0 0 0 0 0 0 0 0
0 0 0 0 0 64 823 777 597 553 331 0 0 0 0 0 0 0 0 0 0 0 0 0 0 0 0 0 0 0 0 0 0 0 0 0 0 0 0 0 0 0 0
0 0 0 0 0 0 292 594 487 388 17 0 0 0 0 0 0 0 0 0 0 0 0 0 0 0 0 0 0 0 0 0 0 0 0 0 0 0 0 0 0 0 0

GFSSE_con_mlcape_021.txt.gz
CAPE
139 526 400 374 383 322 280 266 213 242 274 380 244 170 17 1 0 0 0 0 0 0 2 48 67 45 36 47 47 0 0 0 0 0 0 0 0 0 3 2 0 1 7
245 644 499 337 289 249 200 209 258 254 273 280 255 151 33 1 0 0 0 1 0 2 11 46 44 62 54 21 6 0 0 0 0 0 0 0 0 0 0 0 0 0 0
295 655 527 420 312 223 124 121 200 248 288 247 161 52 8 2 2 0 0 0 2 6 35 37 13 11 4 0 0 0 0 0 0 0 0 0 0 0 0 0 0 0 0
452 667 495 466 247 126 72 58 125 185 220 152 98 83 5 1 0 0 0 1 5 7 7 2 1 0 0 0 0 0 0 0 0 0 0 0 0 0 0 0 0 1 1
622 618 516 449 198 118 78 95 132 127 199 211 189 22 0 0 0 0 0 0 1 1 0 0 0 0 0 0 0 0 0 0 0 0 0 0 0 1 0 0 0 0 0
674 595 637 422 218 108 134 200 118 219 259 313 100 1 0 0 0 0 0 0 1 1 2 1 0 0 0 0 0 0 0 0 0 0 0 0 0 12 0 4 0 0 0
629 651 628 412 276 153 360 161 75 73 109 168 139 49 14 18 0 0 0 0 0 0 24 1 1 3 2 0 0 0 0 0 0 0 0 0 2 4 6 5 9 43 84
602 710 618 457 337 175 329 201 121 68 95 116 142 115 53 49 30 0 0 0 0 1 15 4 44 14 0 0 0 0 0 0 0 0 0 0 0 0 0 0 0 0 12
670 624 559 471 380 183 171 253 166 112 127 156 198 259 104 88 95 43 21 16 3 36 63 114 36 0 0 0 0 0 0 0 0 0 0 0 0 0 0 0 0 0 66
675 577 391 532 507 304 188 89 175 151 185 221 212 214 207 195 200 150 60 96 18 136 44 31 0 0 0 0 0 0 0 0 0 0 0 0 0 0 1 12 69 79 53
611 545 525 622 519 400 302 95 110 166 176 226 233 193 127 152 249 265 81 198 38 98 37 0 0 0 0 0 0 0 0 0 0 0 0 0 4 28 57 37 67 39 25
824 575 612 687 526 424 354 117 76 165 140 149 198 88 32 236 320 310 171 252 132 46 0 0 0 0 0 0 0 0 0 0 0 0 0 8 24 42 35 30 29 22 11
929 761 661 695 590 433 327 162 86 81 102 96 105 36 3 252 350 304 236 232 64 1 0 0 0 0 0 0 0 0 0 0 0 0 0 0 20 17 12 5 1 3 0
986 981 757 721 686 528 405 233 154 75 30 46 74 45 0 31 201 233 197 108 0 0 0 0 0 0 0 0 0 0 0 0 0 0 0 0 1 1 1 0 0 0 0
1073 1034 968 741 764 656 492 340 197 121 33 16 41 53 8 0 29 69 88 2 0 0 0 0 0 0 0 0 0 0 0 0 0 0 0 0 0 0 0 0 0 0 0
721 984 1064 1002 842 729 634 451 306 160 74 14 0 28 19 0 0 15 19 0 0 0 0 0 0 0 0 0 0 0 0 0 0 0 0 0 0 0 0 0 0 0 0
18 347 912 1042 964 874 773 550 370 231 97 47 5 0 1 0 0 0 0 0 0 0 0 0 0 0 0 0 0 0 0 0 0 0 0 0 0 0 0 0 0 0 0
0 0 31 996 959 1029 929 625 503 322 171 79 28 0 0 0 0 0 0 0 0 0 0 0 0 0 0 0 0 0 0 0 0 0 0 0 0 0 0 0 0 0 0
0 0 0 63 901 1107 972 768 672 480 340 177 59 12 20 8 0 0 0 0 0 0 0 0 0 0 0 0 0 0 0 0 0 0 0 0 0 0 0 0 0 0 0
0 0 0 0 143 987 914 839 612 498 388 233 195 76 24 0 0 0 0 0 0 0 0 0 0 0 0 0 0 0 0 0 0 0 0 0 0 0 0 0 0 0 0
0 0 0 0 18 663 657 670 533 466 423 369 208 121 32 0 0 0 0 0 0 0 0 0 0 0 0 0 0 0 0 0 0 0 0 0 0 0 0 0 0 0 0
0 0 0 0 0 233 750 780 525 553 421 460 180 48 0 0 0 0 0 0 0 0 0 0 0 0 0 0 0 0 0 0 0 0 0 0 0 0 0 0 0 0 0
0 0 0 0 0 12 522 704 247 102 10 31 55 0 0 0 0 0 0 0 0 0 0 0 0 0 0 0 0 0 0 0 0 0 0 0 0 0 0 0 0 0 0
0 0 0 0 0 0 281 514 383 383 265 232 160 31 0 0 0 0 0 0 0 0 0 0 0 0 0 0 0 0 0 0 0 0 0 0 0 0 0 0 0 0 0
0 0 0 0 0 0 3 295 293 428 392 83 6 0 0 0 0 0 0 0 0 0 0 0 0 0 0 0 0 0 0 0 0 0 0 0 0 0 0 0 0 0 0
0 0 0 0 0 0 0 243 202 267 69 0 0 0 0 0 0 0 0 0 0 0 0 0 0 0 0 0 0 0 0 0 0 0 0 0 0 0 0 0 0 0 0

GFSSE_con_mlcape_024.txt.gz
CAPE
45 490 493 636 518 314 411 358 443 612 579 543 331 61 7 3 0 0 0 0 0 0 34 11 46 52 35 49 27 0 0 0 0 0 0 0 0 1 2 0 0 0 1
89 646 360 385 336 288 293 184 207 261 335 424 289 131 28 2 0 0 0 0 0 0 26 52 45 48 39 13 0 0 0 0 0 0 0 0 0 0 0 0 0 0 0
303 499 289 315 277 210 189 216 218 145 303 387 332 111 12 1 0 0 0 0 1 11 32 22 4 3 6 0 0 0 0 0 0 0 0 0 0 0 0 0 0 0 0
478 496 344 322 295 264 182 231 198 217 328 354 185 68 3 1 0 0 2 4 4 26 21 9 2 0 0 0 0 0 0 0 0 0 0 0 0 0 0 0 0 0 0
548 485 384 389 294 152 123 146 203 292 299 202 184 67 4 0 0 1 1 1 0 0 0 0 0 0 0 0 0 0 0 0 0 0 0 0 0 7 1 0 0 0 0
573 483 504 362 198 127 110 138 128 154 286 326 148 31 0 0 0 0 0 0 1 1 1 0 0 3 3 2 0 0 0 0 0 0 0 0 0 15 1 5 0 20 0
517 567 555 344 211 114 170 195 228 392 575 303 83 18 0 0 0 0 0 0 3 9 2 0 1 5 4 0 0 0 0 0 0 0 0 0 0 2 4 0 9 23 13
537 627 540 382 198 145 373 175 146 205 305 267 144 66 50 19 0 0 0 0 8 67 34 39 69 5 0 0 0 0 0 0 0 0 0 0 0 0 0 0 0 0 14
661 589 523 382 198 213 305 181 105 134 178 224 243 144 98 88 50 13 6 13 10 64 58 146 46 0 0 0 0 0 0 0 0 0 0 0 0 0 0 0 0 3 70
683 549 411 355 229 129 297 214 140 130 141 192 231 297 161 151 142 96 47 48 13 187 88 59 0 0 0 0 0 0 0 0 0 0 0 0 0 7 46 51 47 40 38
628 564 441 359 344 161 116 185 171 130 156 151 210 273 217 217 278 191 75 152 25 112 31 0 0 0 0 0 0 0 0 0 0 0 0 0 24 41 53 46 47 34 12
602 562 456 439 440 334 213 91 114 116 154 156 191 194 136 145 232 271 126 222 109 99 2 0 0 0 0 0 0 0 0 0 0 0 0 9 33 30 27 19 17 10 4
653 603 518 522 521 397 350 128 54 95 111 114 172 137 29 125 223 282 188 227 134 11 0 0 0 0 0 0 0 0 0 0 0 0 0 4 10 0 9 5 0 0 0
776 712 617 617 616 464 355 180 53 51 82 72 103 88 14 126 263 291 213 167 50 0 0 0 0 0 0 0 0 0 0 0 0 0 0 0 0 0 0 0 0 0 0
915 859 840 697 713 589 403 225 97 46 43 52 62 68 14 27 175 213 188 104 7 0 0 0 0 0 0 0 0 0 0 0 0 0 0 0 0 0 0 0 0 0 0
788 902 907 834 762 684 559 344 159 74 61 35 32 54 29 0 33 91 99 57 0 0 0 0 0 0 0 0 0 0 0 0 0 0 0 0 0 0 0 0 0 0 0
34 711 876 991 761 760 704 496 303 162 91 65 25 1 27 0 0 19 31 6 0 0 0 0 0 0 0 0 0 0 0 0 0 0 0 0 0 0 0 0 0 0 0
0 0 538 864 854 854 797 647 477 287 168 95 19 0 0 0 0 0 1 0 0 0 0 0 0 0 0 0 0 0 0 0 0 0 0 0 0 0 0 0 0 0 0
0 0 0 187 719 841 886 765 545 427 325 179 27 0 0 0 0 0 0 0 0 0 0 0 0 0 0 0 0 0 0 0 0 0 0 0 0 0 0 0 0 0 0
0 0 0 0 41 406 809 799 558 452 413 219 149 64 0 0 0 0 0 0 0 0 0 0 0 0 0 0 0 0 0 0 0 0 0 0 0 0 0 0 0 0 0
0 0 0 0 0 27 509 674 682 579 505 342 294 138 46 0 0 0 0 0 0 0 0 0 0 0 0 0 0 0 0 0 0 0 0 0 0 0 0 0 0 0 0
0 0 0 0 0 4 204 450 623 597 452 454 330 260 76 0 0 0 0 0 0 0 0 0 0 0 0 0 0 0 0 0 0 0 0 0 0 0 0 0 0 0 0
0 0 0 0 0 0 183 439 203 201 48 156 206 220 69 0 0 0 0 0 0 0 0 0 0 0 0 0 0 0 0 0 0 0 0 0 0 0 0 0 0 0 0
0 0 0 0 0 0 10 279 192 160 203 280 337 290 40 0 0 0 0 0 0 0 0 0 0 0 0 0 0 0 0 0 0 0 0 0 0 0 0 0 0 0 0
0 0 0 0 0 0 0 19 40 77 167 170 288 165 0 0 0 0 0 0 0 0 0 0 0 0 0 0 0 0 0 0 0 0 0 0 0 0 0 0 0 0 0
0 0 0 0 0 0 0 0 11 14 46 47 57 23 0 0 0 0 0 0 0 0 0 0 0 0 0 0 0 0 0 0 0 0 0 0 0 0 0 0 0 0 0

GFSSE_con_mlcape_027.txt.gz
CAPE
40 710 449 247 417 500 750 966 1044 874 721 699 450 263 94 6 0 0 0 0 0 11 13 33 46 31 27 12 1 0 0 0 0 0 0 0 0 2 1 0 0 0 0
72 748 414 388 162 251 299 411 562 627 627 492 277 117 37 4 0 0 1 0 0 24 49 41 45 43 29 0 0 0 0 0 0 0 0 0 0 1 1 0 0 0 6
300 776 410 271 298 326 248 158 144 230 535 434 295 87 16 1 0 0 0 0 0 29 36 16 15 4 0 0 0 0 0 0 0 0 0 0 0 0 0 0 0 0 4
617 488 260 246 232 206 170 161 101 114 202 450 212 91 9 1 0 0 0 0 18 15 3 1 0 0 0 0 0 0 0 0 0 0 0 0 0 1 0 0 0 0 0
540 358 258 238 224 247 269 176 122 131 251 245 145 52 1 0 0 1 3 1 3 0 0 0 0 0 0 0 2 2 0 0 0 0 0 0 0 13 1 0 0 0 0
537 396 321 264 321 238 235 234 187 120 235 215 129 49 0 0 1 2 0 0 0 0 0 0 3 5 4 1 0 0 0 0 0 0 0 0 0 2 0 0 17 71 6
542 465 426 324 229 132 118 158 129 265 268 279 143 2 0 0 1 0 1 2 2 1 2 5 12 10 0 0 0 0 0 0 0 0 0 0 0 2 3 0 0 8 66
588 583 476 351 230 138 219 209 311 189 710 238 74 1 0 0 0 0 2 21 37 60 37 48 59 0 0 0 0 0 0 0 0 0 0 0 0 0 0 0 0 32 34
703 648 555 384 196 176 284 143 219 387 496 212 115 44 31 2 0 0 0 26 48 80 96 128 1 0 0 0 0 0 0 0 0 0 0 0 0 0 0 0 1 68 35
697 630 486 385 224 376 300 120 101 140 227 262 181 102 87 48 38 24 23 36 38 173 145 33 0 0 0 0 0 0 0 0 0 0 0 0 0 60 56 44 37 36 16
683 642 533 379 239 269 317 194 111 120 148 140 183 163 132 173 142 82 29 25 105 75 36 0 0 0 0 0 0 0 0 0 0 0 0 2 36 41 44 35 20 3 0
517 563 531 426 287 176 245 249 188 161 166 176 181 272 201 216 275 207 81 102 79 55 3 0 0 0 0 0 0 0 0 0 0 0 0 22 24 22 11 0 2 0 0
557 546 578 466 444 327 171 160 192 159 166 174 174 194 174 162 216 303 185 229 165 2 0 0 0 0 0 0 0 0 0 0 0 0 0 0 0 1 0 0 0 0 0
610 571 627 516 413 474 361 163 107 119 129 149 188 164 116 94 140 267 252 215 129 0 0 0 0 0 0 0 0 0 0 0 0 0 0 0 0 0 0 0 0 0 0
749 655 703 559 450 482 445 313 131 73 97 113 128 140 74 72 117 198 142 156 92 0 0 0 0 0 0 0 0 0 0 0 0 0 0 0 0 0 0 0 0 0 0
541 829 792 721 585 542 534 395 223 79 71 79 95 96 57 28 127 157 104 118 64 0 0 0 0 0 0 0 0 0 0 0 0 0 0 0 0 0 0 0 0 0 0
0 259 667 807 724 644 598 506 396 204 72 71 71 48 48 3 24 123 120 94 43 0 0 0 0 0 0 0 0 0 0 0 0 0 0 0 0 0 0 0 0 0 0
0 0 0 524 770 790 695 644 491 326 182 108 66 44 30 7 0 19 43 55 1 0 0 0 0 0 0 0 0 0 0 0 0 0 0 0 0 0 0 0 0 0 0
0 0 0 0 326 756 780 723 545 453 384 250 68 40 32 0 0 0 0 0 0 0 0 0 0 0 0 0 0 0 0 0 0 0 0 0 0 0 0 0 0 0 0
0 0 0 0 0 115 797 691 536 443 375 357 196 105 47 20 0 0 0 0 0 0 0 0 0 0 0 0 0 0 0 0 0 0 0 0 0 0 0 0 0 0 0
0 0 0 0 0 0 91 409 524 337 506 348 302 248 86 63 9 0 0 0 0 0 0 0 0 0 0 0 0 0 0 0 0 0 0 0 0 0 0 0 0 0 0
0 0 0 0 0 0 0 175 408 408 454 494 281 211 144 95 31 0 0 0 0 0 0 0 0 0 0 0 0 0 0 0 0 0 0 0 0 0 0 0 0 0 0
0 0 0 0 0 0 0 55 285 145 89 308 250 304 176 130 36 22 0 0 0 0 0 0 0 0 0 0 0 0 0 0 0 0 0 0 0 0 0 0 0 0 0
0 0 0 0 0 0 0 0 0 0 9 257 237 308 192 106 39 20 0 0 0 0 0 0 0 0 0 0 0 0 0 0 0 0 0 0 0 0 0 0 0 0 0
0 0 0 0 0 0 0 0 11 3 18 190 201 302 157 2 2 0 0 0 0 0 0 0 0 0 0 0 0 0 0 0 0 0 0 0 0 0 0 0 0 0 0
0 0 0 0 0 0 0 0 19 26 20 21 39 147 62 16 3 0 0 0 0 0 0 0 0 0 0 0 0 0 0 0 0 0 0 0 0 0 0 0 0 0 0

GFSSE_con_mlcape_030.txt.gz
CAPE
391 772 715 318 663 642 1007 1244 1110 841 755 852 706 372 146 3 1 3 0 0 3 0 20 42 32 43 21 2 0 0 0 0 0 0 0 1 1 4 3 0 0 0 0
477 767 290 364 565 645 956 1104 1108 898 829 700 520 246 46 3 1 3 0 0 2 36 39 48 43 9 0 0 0 0 0 0 0 0 0 0 0 2 0 0 0 1 6
649 585 348 280 186 184 457 662 699 771 668 467 337 96 5 4 5 2 0 0 34 42 39 35 6 0 0 0 0 0 0 0 0 0 0 0 0 0 0 0 0 0 13
628 577 462 222 250 227 137 123 200 485 357 385 171 21 3 2 0 0 0 14 23 14 4 0 0 0 0 0 0 0 0 0 0 0 0 0 3 0 0 0 0 0 0
646 455 430 237 212 167 168 91 86 190 283 347 135 35 1 0 0 1 0 7 4 0 0 0 0 0 0 0 1 0 0 0 0 0 0 6 10 0 0 0 0 0 0
541 355 273 211 208 215 228 152 89 277 428 183 84 18 0 0 1 2 0 0 0 0 0 0 0 1 0 0 0 0 0 0 0 0 2 0 4 0 0 8 10 70 110
445 383 243 226 277 260 248 194 134 222 250 167 86 0 0 0 1 1 0 0 0 0 0 2 4 0 0 0 0 0 0 0 0 0 4 0 0 0 0 0 0 92 67
523 438 330 307 271 199 201 196 191 146 324 215 70 0 0 0 0 1 2 22 10 8 23 72 0 0 0 0 0 0 0 0 0 1 0 0 0 0 0 0 3 106 20
627 502 337 291 174 150 167 194 131 116 578 180 63 1 0 0 0 16 42 55 126 51 91 26 0 0 0 0 0 0 0 0 0 0 0 0 0 0 0 0 104 47 26
806 649 449 271 143 131 219 202 336 523 368 171 111 62 17 0 0 18 29 38 44 143 122 0 0 0 0 0 0 0 0 0 0 0 0 0 5 106 54 58 42 29 14
854 789 586 281 167 169 202 136 149 246 315 213 139 89 58 12 9 6 3 17 160 125 36 0 0 0 0 0 0 0 0 0 0 0 0 13 50 42 33 24 17 6 0
683 783 812 435 218 205 209 171 94 78 130 196 227 138 47 77 62 25 9 17 130 62 2 0 0 0 0 0 0 0 0 0 0 0 6 35 26 11 1 0 0 0 0
562 641 596 673 394 242 225 219 183 107 75 104 152 224 138 195 298 219 110 52 34 9 0 0 0 0 0 0 0 0 0 0 0 0 2 2 13 5 0 0 0 0 0
579 530 486 636 601 449 369 235 269 143 98 109 127 174 247 228 218 308 306 203 187 13 0 0 0 0 0 0 0 0 0 0 0 0 1 0 0 0 0 0 0 0 0
664 614 581 572 633 578 637 597 341 212 92 71 109 145 164 155 134 180 236 350 205 105 0 0 0 0 0 0 0 0 0 0 0 0 0 0 0 0 0 0 0 0 0
861 1015 819 730 642 601 672 883 722 405 181 94 95 125 147 107 103 136 271 207 253 110 0 0 0 0 0 0 0 0 0 0 0 0 0 0 0 0 0 0 0 0 0
3 68 863 1114 1069 885 734 899 914 821 401 222 166 101 81 65 76 111 145 157 145 108 0 0 0 0 0 0 0 0 0 0 0 0 0 0 0 0 0 0 0 0 0
0 0 0 419 1055 1087 828 794 908 989 732 481 371 300 134 66 35 69 128 141 171 97 0 0 0 0 0 0 0 0 0 0 0 0 0 0 0 0 0 0 0 0 0
0 0 0 0 223 714 1059 819 725 823 986 850 636 497 402 231 85 26 54 137 161 22 0 0 0 0 0 0 0 0 0 0 0 0 0 0 0 0 0 0 0 0 0
0 0 0 0 0 22 658 669 709 669 709 925 853 679 577 433 236 81 35 45 91 1 0 0 0 0 0 0 0 0 0 0 0 0 0 0 0 0 0 0 0 0 0
0 0 0 0 0 0 1 559 576 619 632 476 586 797 760 600 432 138 66 43 52 0 0 0 0 0 0 0 0 0 0 0 0 0 0 0 0 0 0 0 0 0 0
0 0 0 0 0 0 0 2 207 500 566 580 401 407 597 703 536 340 165 90 42 0 0 0 0 0 0 0 0 0 0 0 0 0 0 0 0 0 0 0 0 0 0
0 0 0 0 0 0 0 0 12 351 459 402 336 436 370 627 562 448 234 158 34 0 0 0 0 0 0 0 0 0 0 0 0 0 0 0 0 0 0 0 0 0 0
0 0 0 0 0 0 0 0 0 10 45 56 131 368 455 301 375 471 213 167 22 0 0 0 0 0 0 0 0 0 0 0 0 0 0 0 0 0 0 0 0 0 0
0 0 0 0 0 0 0 0 0 0 0 0 84 328 449 463 229 226 187 103 28 0 0 0 0 0 0 0 0 0 0 0 0 0 0 0 0 0 0 0 0 0 0
0 0 0 0 0 0 0 0 0 0 9 35 190 447 493 341 112 93 50 42 25 1 0 0 0 0 0 0 0 0 0 0 0 0 0 0 0 0 0 0 0 0 0

GFSSE_con_mlcape_033.txt.gz
CAPE
819 801 982 742 770 908 1097 1240 1157 981 851 823 662 383 134 8 0 3 0 0 3 4 45 34 40 16 8 0 0 1 0 0 0 0 0 0 3 1 0 0 0 0 0
861 784 570 561 745 723 1181 1196 1010 855 764 890 635 271 23 0 2 0 0 0 43 24 43 44 3 1 0 0 0 0 0 0 0 0 0 0 0 0 0 0 0 0 0
786 677 335 458 485 954 766 1170 950 737 621 543 219 50 3 3 2 0 0 25 41 51 52 21 1 0 0 0 0 0 0 0 0 0 0 0 0 0 0 0 0 0 0
727 433 301 351 219 318 449 608 675 739 462 312 100 2 2 3 0 0 1 28 36 16 7 4 0 0 0 0 0 0 0 0 0 0 0 3 1 0 0 0 0 0 0
607 446 446 150 150 118 88 135 228 522 429 167 72 3 2 0 0 0 18 17 2 0 0 0 0 0 0 0 0 0 0 0 0 0 5 7 8 0 0 7 34 0 0
550 555 262 217 189 114 92 74 99 182 299 176 75 2 0 0 4 5 0 0 0 0 0 0 0 0 0 0 0 0 0 0 0 4 6 0 0 1 8 1 76 91 156
408 551 263 203 164 125 101 90 94 316 241 132 60 0 0 1 1 2 1 0 0 0 0 2 0 0 0 0 0 0 0 0 1 7 4 0 0 0 0 0 74 81 26
416 404 260 211 200 174 129 107 117 281 195 122 16 0 0 0 0 0 0 0 0 0 21 12 0 0 0 0 0 0 0 0 1 0 0 0 0 0 0 0 126 38 7
482 376 257 214 209 146 144 144 128 149 246 130 25 0 0 0 0 0 22 31 36 32 90 0 0 0 0 0 0 0 0 0 0 0 0 0 0 0 0 0 67 31 8
603 409 246 206 91 63 61 119 134 130 290 134 36 4 0 0 0 26 36 73 101 103 71 0 0 0 0 0 0 0 0 0 0 0 0 0 60 67 76 66 35 31 9
759 603 359 188 89 73 107 130 155 187 315 113 62 14 1 0 0 0 9 0 82 169 12 0 0 0 0 0 0 0 0 0 0 0 0 17 40 48 25 15 9 0 0
660 687 566 245 111 111 141 122 144 274 339 150 98 77 8 5 0 0 1 10 140 84 0 0 0 0 0 0 0 0 0 0 0 0 6 20 15 6 5 0 0 0 0
582 656 663 483 238 137 140 155 64 64 80 131 198 117 42 41 37 9 14 0 98 9 0 0 0 0 0 0 0 0 0 0 0 0 1 8 14 4 0 0 0 0 0
602 559 551 661 513 273 222 207 193 128 74 64 95 139 113 137 121 162 92 24 1 23 1 0 0 0 0 0 0 0 0 0 0 0 0 0 2 0 0 0 0 0 0
733 618 529 520 677 517 356 421 381 302 121 85 80 107 143 159 164 158 305 210 123 90 15 0 0 0 0 0 0 0 0 0 0 0 0 0 0 0 0 0 0 0 0
756 848 745 554 552 597 615 630 670 535 356 130 95 106 111 111 122 122 133 197 284 173 90 1 0 0 0 0 0 0 0 0 0 0 0 0 0 0 0 0 0 0 0
233 609 912 938 801 765 924 858 944 848 634 353 164 118 120 109 98 76 95 154 207 353 95 23 0 0 0 0 0 0 0 0 0 0 0 0 0 0 0 0 0 0 0
0 0 13 445 1121 1112 1113 1036 1051 1003 931 739 542 347 244 171 113 70 91 183 118 250 97 34 0 0 0 0 0 0 0 0 0 0 0 0 0 0 0 0 0 0 0
0 0 0 0 63 575 1028 1030 804 1179 1137 1014 834 626 554 390 221 98 101 151 133 135 151 26 0 0 0 0 0 0 0 0 0 0 0 0 0 0 0 0 0 0 0
0 0 0 0 0 0 193 751 769 687 848 1166 984 847 738 707 547 324 140 149 216 158 124 0 0 0 0 0 0 0 0 0 0 0 0 0 0 0 0 0 0 0 0
0 0 0 0 0 0 0 24 747 539 593 737 1008 1040 1004 923 803 626 447 242 220 154 107 0 0 0 0 0 0 0 0 0 0 0 0 0 0 0 0 0 0 0 0
0 0 0 0 0 0 0 0 0 521 430 555 591 650 959 1091 966 817 632 462 314 245 104 0 0 0 0 0 0 0 0 0 0 0 0 0 0 0 0 0 0 0 0
0 0 0 0 0 0 0 0 0 0 317 542 527 511 462 588 943 955 783 618 498 395 201 9 0 0 0 0 0 0 0 0 0 0 0 0 0 0 0 0 0 0 0
0 0 0 0 0 0 0 0 0 0 0 276 309 446 587 556 394 784 671 632 524 457 175 61 0 0 0 0 0 0 0 0 0 0 0 0 0 0 0 0 0 0 0
0 0 0 0 0 0 0 0 0 0 0 0 67 85 151 570 516 344 613 597 384 480 201 67 1 0 0 0 0 0 0 0 0 0 0 0 0 0 0 0 0 0 0
0 0 0 0 0 0 0 0 0 0 0 0 1 11 90 368 587 356 330 407 447 350 210 23 0 0 0 0 0 0 0 0 0 0 0 0 0 0 0 0 0 0 0

GFSSE_con_mlcape_036.txt.gz
CAPE
756 502 987 986 1030 1187 1169 1218 1084 956 766 722 562 326 67 1 0 0 0 0 14 47 52 17 30 7 0 0 0 0 0 0 2 2 1 0 0 0 0 1 1 0 7
835 1036 1129 896 927 1027 1162 1116 923 740 724 633 471 235 14 0 0 0 0 14 15 39 43 10 1 0 0 0 0 0 0 0 0 0 0 0 0 0 0 0 0 0 0
778 786 803 917 687 1030 1184 970 778 591 657 614 208 16 0 1 0 0 1 37 50 43 35 4 0 0 0 0 0 0 0 0 0 0 0 0 0 0 0 0 0 0 0
701 409 388 525 730 819 789 992 642 687 448 149 51 0 3 2 0 0 21 31 23 12 4 0 0 0 0 0 0 0 0 0 0 0 4 2 0 0 0 3 0 0 0
408 321 412 264 318 280 296 584 787 504 200 69 21 0 1 0 0 17 34 5 0 0 0 0 0 0 0 0 0 0 0 0 0 0 0 0 0 1 10 69 0 36 135
376 364 173 131 94 86 81 179 285 293 174 106 50 0 0 0 3 7 2 0 0 0 0 0 0 0 0 0 0 0 0 0 0 2 0 0 0 4 2 83 135 117 55
515 311 157 131 114 86 71 83 124 336 218 110 8 0 0 3 6 4 0 0 0 0 2 3 0 0 0 0 0 0 0 0 0 0 0 0 0 0 0 25 74 22 5
513 302 164 117 93 103 85 85 121 258 154 73 0 0 2 2 1 1 0 0 0 8 23 0 0 0 0 0 0 0 0 0 0 0 0 0 0 0 0 33 28 14 5
377 209 135 111 108 111 89 81 143 178 128 46 0 0 0 2 1 1 2 0 0 28 22 0 0 0 0 0 0 0 0 0 0 0 0 0 0 0 0 56 26 5 1
352 262 171 153 130 65 72 80 83 137 121 45 8 0 0 0 0 2 0 46 22 60 0 0 0 0 0 0 0 0 0 0 0 0 0 0 37 18 38 44 23 12 7
443 325 169 117 25 15 6 45 85 97 150 54 15 1 0 0 0 0 3 0 33 103 0 0 0 0 0 0 0 0 0 0 0 0 0 9 38 48 32 19 8 4 0
679 428 229 89 42 26 49 44 34 85 148 81 31 11 0 0 0 0 0 8 91 67 0 0 0 0 0 0 0 0 0 0 0 0 0 0 6 17 10 4 2 0 0
522 634 491 218 64 83 79 82 109 282 213 101 54 39 12 0 0 0 1 12 38 10 0 0 0 0 0 0 0 0 0 0 0 0 0 0 5 3 2 0 0 0 0
424 428 459 531 231 103 111 79 25 45 76 122 107 67 45 9 16 16 19 1 31 21 0 0 0 0 0 0 0 0 0 0 0 0 0 0 0 0 0 0 0 0 0
524 424 415 485 576 264 148 118 108 49 12 17 36 104 77 57 63 66 88 21 1 19 2 0 0 0 0 0 0 0 0 0 0 0 0 0 0 0 0 0 0 0 0
630 605 446 477 447 587 369 267 274 333 107 48 36 57 75 96 86 84 115 182 91 62 34 2 0 0 0 0 0 0 0 0 0 0 0 0 0 0 0 0 0 0 0
548 719 687 516 524 514 568 580 525 545 492 149 72 41 57 48 106 117 92 109 169 144 96 50 0 0 0 0 0 0 0 0 0 0 0 0 0 0 0 0 0 0 0
0 45 802 898 694 563 624 765 671 623 630 595 336 114 74 87 78 57 32 89 92 159 233 49 0 0 0 0 0 0 0 0 0 0 0 0 0 0 0 0 0 0 0
0 0 0 54 906 900 755 784 967 875 952 798 695 556 318 155 139 76 46 42 145 73 122 90 10 0 0 0 0 0 0 0 0 0 0 0 0 0 0 0 0 0 0
0 0 0 0 0 0 618 932 937 781 677 865 960 788 658 430 265 159 107 47 111 84 109 84 21 0 0 0 0 0 0 0 0 0 0 0 0 0 0 0 0 0 0
0 0 0 0 0 0 0 0 595 700 572 370 524 845 883 693 527 300 230 152 86 133 117 133 4 0 0 0 0 0 0 0 0 0 0 0 0 0 0 0 0 0 0
0 0 0 0 0 0 0 0 0 482 520 382 291 290 535 727 769 629 430 340 172 179 211 153 0 0 0 0 0 0 0 0 0 0 0 0 0 0 0 0 0 0 0
0 0 0 0 0 0 0 0 0 0 15 317 295 295 308 335 473 740 721 600 473 222 194 172 5 0 0 0 0 0 0 0 0 0 0 0 0 0 0 0 0 0 0
0 0 0 0 0 0 0 0 0 0 0 0 149 444 420 355 337 388 450 565 539 576 375 214 26 0 0 0 0 0 0 0 0 0 0 0 0 0 0 0 0 0 0
0 0 0 0 0 0 0 0 0 0 0 0 0 13 208 352 446 466 406 319 566 585 567 361 176 0 0 0 0 0 0 0 0 0 0 0 0 0 0 0 0 0 0
0 0 0 0 0 0 0 0 0 0 0 0 0 0 9 24 152 363 449 274 260 517 566 535 285 51 0 0 0 0 0 0 0 0 0 0 0 0 0 0 0 0 0

GFSSE_con_mlcape_039.txt.gz
CAPE
660 827 836 1115 1473 1246 1277 1232 1100 877 781 645 469 228 58 3 0 0 0 0 49 44 22 20 2 2 2 0 0 0 0 6 5 1 1 0 0 1 2 0 0 8 1
456 919 1009 1278 1287 1279 1290 1074 852 666 628 580 466 227 45 0 0 0 0 9 48 42 1 1 1 1 1 0 0 0 0 0 0 0 0 0 0 0 0 0 0 0 0
546 1094 938 1111 1120 1110 1122 841 663 691 587 488 161 8 1 0 0 0 19 27 45 40 5 0 0 0 0 0 0 0 0 0 0 0 0 0 0 0 0 0 0 0 0
750 871 970 919 1024 1316 826 572 513 599 463 72 3 0 2 0 0 49 80 76 30 2 0 0 0 0 0 0 0 0 0 0 0 1 0 0 0 3 20 0 0 2 0
361 496 893 848 655 698 888 491 591 325 133 6 0 0 0 0 3 46 10 5 0 0 0 0 0 0 0 0 0 0 0 0 0 0 0 0 0 5 77 21 87 116 145
314 314 412 450 366 363 634 522 306 146 55 18 0 0 0 1 12 17 2 0 0 0 0 0 0 0 0 0 0 0 0 0 0 0 0 0 0 0 87 114 97 97 119
315 214 145 107 99 91 197 282 252 204 112 17 0 0 1 4 5 3 0 0 0 0 0 0 0 0 0 0 0 0 0 0 0 0 0 0 0 0 1 58 51 19 6
250 136 123 85 72 62 66 117 205 207 99 15 0 0 1 6 7 4 0 0 0 1 0 0 0 0 0 0 0 0 0 0 0 0 0 0 0 0 0 49 19 4 2
217 124 74 45 54 51 60 68 161 135 83 18 3 5 0 0 3 13 0 0 2 49 0 0 0 0 0 0 0 0 0 0 0 0 0 0 0 0 42 53 17 5 2
200 101 52 56 57 60 54 63 143 137 88 29 17 20 7 0 0 19 7 13 40 104 0 0 0 0 0 0 0 0 0 0 0 0 0 6 0 0 58 33 25 14 0
235 149 49 54 55 47 48 57 80 126 89 37 17 4 3 0 3 7 20 34 51 76 0 0 0 0 0 0 0 0 0 0 0 0 0 19 57 81 48 20 12 3 1
238 167 115 54 2 0 11 49 49 96 85 31 14 5 0 0 0 0 19 21 40 67 0 0 0 0 0 0 0 0 0 0 0 0 0 11 63 33 18 13 8 3 0
428 436 93 20 15 1 45 1 27 63 82 40 5 4 0 0 0 0 11 36 62 55 1 0 0 0 0 0 0 0 0 0 0 0 0 0 0 5 6 1 0 0 0
478 448 417 152 9 0 61 9 0 36 62 70 33 16 7 0 0 0 0 9 19 27 8 0 0 0 0 0 0 0 0 0 0 0 0 0 0 0 2 3 1 1 0
199 375 382 360 247 38 40 0 0 30 120 79 54 28 17 0 0 0 0 1 7 2 9 1 0 0 0 0 0 0 0 0 0 0 0 0 0 0 0 0 0 2 0
408 299 267 363 400 311 90 0 0 0 18 0 14 32 7 0 0 0 0 0 0 9 21 7 0 0 0 0 0 0 0 0 0 0 0 0 0 0 0 0 0 2 0
439 432 428 199 437 427 394 218 140 126 0 0 0 0 0 0 14 14 24 48 34 0 0 0 0 0 0 0 0 0 0 0 0 0 0 0 0 0 0 0 0 1 2
375 534 503 472 380 393 469 415 355 448 351 140 35 0 0 3 20 39 37 56 94 136 78 41 0 0 0 0 0 0 0 0 0 0 0 0 0 0 0 0 0 0 1
0 107 459 625 653 533 346 369 460 492 462 370 326 128 18 16 20 16 32 61 76 87 158 132 65 0 0 0 0 0 0 0 0 0 0 0 0 0 0 0 0 0 0
0 0 0 9 617 586 564 513 514 662 582 716 687 461 470 253 83 50 34 29 65 70 90 137 98 0 0 0 0 0 0 0 0 0 0 0 0 0 0 0 0 0 0
0 0 0 0 0 0 29 511 555 644 596 407 429 638 652 443 296 106 84 41 49 61 106 137 79 33 0 0 0 0 0 0 0 0 0 0 0 0 0 0 0 0 0
0 0 0 0 0 0 0 0 0 408 604 605 433 306 249 320 449 349 152 145 48 57 68 97 86 10 0 0 0 0 0 0 0 0 0 0 0 0 0 0 0 0 0
0 0 0 0 0 0 0 0 0 0 0 49 54 166 277 229 131 106 151 179 198 82 101 70 75 21 0 0 0 0 0 0 0 0 0 0 0 0 0 0 0 0 0
0 0 0 0 0 0 0 0 0 0 0 0 0 0 92 171 253 238 105 73 127 190 68 148 129 45 0 0 0 0 0 0 0 0 0 0 0 0 0 0 0 0 0
0 0 0 0 0 0 0 0 0 0 0 0 0 0 0 0 240 244 280 241 148 85 246 221 119 19 0 0 0 0 0 0 0 0 0 0 0 0 0 0 0 0 0
0 0 0 0 0 0 0 0 0 0 0 0 0 0 0 0 0 66 136 257 351 176 98 133 195 120 36 0 0 0 0 0 0 0 0 0 0 0 0 0 0 0 0

GFSSE_con_mlcape_042.txt.gz
CAPE
682 1064 788 1428 1045 1038 1091 1161 898 885 766 620 428 228 59 0 0 0 2 59 51 48 13 4 4 4 0 0 0 0 0 0 0 0 0 0 3 9 1 2 7 0 0
838 1148 961 1494 1312 1208 1201 1143 937 826 673 463 396 156 0 0 0 0 9 52 12 2 1 2 1 1 0 0 0 0 0 0 0 0 0 0 0 0 1 0 0 0 0
737 1104 1255 1415 1261 1298 1093 959 847 765 661 501 171 73 0 0 0 2 13 57 28 3 1 1 1 0 0 0 0 0 0 0 0 0 0 0 0 0 0 0 0 0 0
559 1095 1241 1188 1211 1169 978 835 780 788 655 166 52 1 0 0 107 65 71 63 4 1 0 0 0 0 0 0 0 0 0 0 0 0 0 0 0 13 0 0 1 0 129
671 972 1177 1045 1281 1002 682 716 931 687 175 4 0 0 0 0 175 96 58 5 0 0 0 0 0 0 0 0 0 0 0 0 0 0 0 0 0 29 12 55 73 145 213
404 603 961 1144 1015 700 570 887 681 307 34 2 0 0 0 8 43 12 0 0 0 0 0 0 0 0 0 0 0 0 0 0 0 0 0 0 0 41 97 100 97 103 87
462 686 808 471 757 983 772 553 347 228 43 12 0 0 1 11 44 3 0 0 0 0 0 0 0 0 0 0 0 0 0 0 0 0 0 0 0 0 93 72 21 13 8
280 313 317 211 163 279 330 389 364 170 52 15 0 0 1 3 6 9 0 0 0 1 0 0 0 0 0 0 0 0 0 0 0 0 0 0 0 0 65 42 2 6 1
193 152 95 50 46 83 181 222 273 180 48 19 11 17 13 2 2 5 2 15 19 32 0 0 0 0 0 0 0 0 0 0 0 0 0 0 0 0 43 30 3 6 5
166 93 42 37 33 33 45 167 165 158 45 29 23 14 2 4 17 19 12 20 70 50 0 0 0 0 0 0 0 0 0 0 0 0 0 0 0 31 55 26 13 12 4
154 80 36 26 35 31 34 87 183 142 53 30 23 5 0 0 15 22 18 36 82 38 0 0 0 0 0 0 0 0 0 0 0 0 0 26 12 83 48 29 15 9 3
160 64 26 26 29 36 41 40 106 93 49 27 15 4 0 0 6 13 32 47 71 69 6 0 0 0 0 0 0 0 0 0 0 0 0 84 152 117 35 14 6 4 2
175 80 40 32 27 28 32 27 19 69 48 19 2 0 0 0 0 8 26 48 59 61 11 0 0 0 0 0 0 0 0 0 0 0 14 80 106 46 7 6 1 1 0
301 202 100 34 0 0 0 9 3 30 41 21 3 0 0 0 0 3 7 16 31 38 18 5 0 0 0 0 0 0 0 0 0 0 0 0 0 0 2 5 3 2 0
450 365 193 68 0 0 0 0 0 0 15 13 0 0 0 0 0 0 1 3 14 15 8 0 0 0 0 0 0 0 0 0 0 0 0 0 0 0 0 3 3 4 3
411 420 335 320 160 0 0 0 0 0 0 0 0 0 0 0 0 0 0 0 4 9 0 0 0 0 0 0 0 0 0 0 0 0 0 0 0 0 0 0 0 3 4
247 195 254 359 295 256 41 0 0 0 0 0 0 0 15 0 0 0 0 0 0 0 0 0 0 0 0 0 0 0 0 0 0 0 0 0 0 0 0 0 0 2 4
339 336 301 298 354 323 322 175 45 46 5 0 0 0 0 0 0 0 0 0 0 0 0 0 0 0 0 0 0 0 0 0 0 0 0 0 0 0 0 0 0 0 5
278 390 417 474 421 293 392 340 295 263 288 194 25 0 0 0 0 0 0 0 0 11 14 0 0 0 0 0 0 0 0 0 0 0 0 0 0 0 0 0 0 0 0
0 0 142 427 480 456 325 230 280 335 324 419 304 236 126 0 0 0 3 19 33 53 71 77 88 5 0 0 0 0 0 0 0 0 0 0 0 0 0 0 0 0 0
0 0 0 0 0 68 434 456 391 375 379 350 362 476 416 320 174 25 0 0 0 1 39 65 84 75 6 0 0 0 0 0 0 0 0 0 0 0 0 0 0 0 0
0 0 0 0 0 0 0 0 105 289 409 412 338 256 219 285 324 281 139 28 2 2 3 3 39 10 12 0 0 0 0 0 0 0 0 0 0 0 0 0 0 0 0
0 0 0 0 0 0 0 0 0 0 0 3 30 80 76 133 204 174 110 58 2 2 8 22 12 11 36 0 0 0 0 0 0 0 0 0 0 0 0 0 0 0 0
0 0 0 0 0 0 0 0 0 0 0 0 0 0 0 0 0 5 54 57 54 12 0 0 0 0 0 0 0 0 0 0 0 0 0 0 0 0 0 0 0 0 0
0 0 0 0 0 0 0 0 0 0 0 0 0 0 0 0 0 0 0 93 25 20 48 2 34 41 7 33 0 0 0 0 0 0 0 0 0 0 0 0 0 0 0
0 0 0 0 0 0 0 0 0 0 0 0 0 0 0 0 0 0 0 0 45 29 38 28 37 35 9 0 0 0 0 0 0 0 0 0 0 0 0 0 0 0 0

GFSSE_con_mlcape_045.txt.gz
CAPE
339 678 645 1254 1163 991 1105 1086 970 890 746 599 368 133 0 0 0 0 77 56 48 11 11 3 3 3 0 0 0 0 0 0 0 0 0 0 7 2 4 1 0 0 0
713 876 808 1106 1134 1274 1171 1069 848 710 555 286 316 70 0 0 0 0 85 2 0 1 0 1 1 0 0 0 0 0 0 0 0 0 0 0 0 0 0 0 0 0 0
909 886 1339 1221 1337 1239 1168 972 831 676 515 426 120 13 0 0 1 3 90 2 4 2 1 1 0 0 0 0 0 0 0 0 0 0 0 0 0 0 0 0 0 0 0
766 932 1412 1313 1351 1154 920 873 678 727 501 223 125 0 0 0 42 28 120 13 1 0 0 0 0 0 0 0 0 0 0 0 0 0 0 0 0 13 0 0 0 30 127
728 852 1306 1280 1361 1022 880 804 793 711 330 174 44 0 0 207 89 142 165 4 0 0 0 0 0 0 0 0 0 0 0 0 0 0 0 0 0 83 37 88 108 201 166
643 885 1080 1282 1219 1029 1009 1019 922 416 112 50 0 0 0 311 209 105 3 0 0 0 0 0 0 0 0 0 0 0 0 0 0 0 0 0 0 129 145 114 106 78 62
551 839 990 1210 996 874 1000 1069 683 234 71 17 0 0 56 127 77 34 0 0 0 0 0 0 0 0 0 0 0 0 0 0 0 0 0 0 0 61 120 70 14 17 7
363 555 839 908 797 790 1109 897 466 238 55 18 0 0 19 70 66 12 0 0 0 1 0 0 0 0 0 0 0 0 0 0 0 0 0 0 0 0 86 30 0 1 2
463 494 325 288 605 616 697 511 397 159 55 20 5 13 25 5 9 15 16 4 6 15 0 0 0 0 0 0 0 0 0 0 0 0 0 0 0 0 61 26 0 6 2
327 267 128 56 75 160 391 296 304 96 50 30 12 23 14 11 15 38 26 27 50 19 0 0 0 0 0 0 0 0 0 0 0 0 0 0 0 21 96 19 17 8 3
192 98 25 27 26 40 71 201 180 97 45 30 14 7 0 4 27 30 19 33 91 42 1 0 0 0 0 0 0 0 0 0 0 0 0 0 0 167 93 44 16 12 4
215 79 33 21 20 31 40 90 143 80 39 23 9 0 0 0 10 17 13 32 75 66 25 0 0 0 0 0 0 0 0 0 0 0 0 67 117 169 113 23 4 8 3
182 84 42 29 28 22 36 40 114 65 27 6 0 0 0 0 0 6 12 31 44 83 30 4 0 0 0 0 0 0 0 0 0 0 3 95 194 213 84 6 5 7 1
210 100 32 30 22 21 19 23 32 59 25 0 0 0 0 0 0 0 0 19 30 41 17 4 0 0 0 0 0 0 0 0 0 0 4 70 117 120 20 0 0 3 0
284 170 68 42 21 16 19 12 9 20 34 0 0 0 0 0 0 0 0 0 4 8 8 3 0 0 0 0 0 0 0 0 0 0 0 19 29 37 16 4 6 7 5
366 344 175 111 38 0 0 0 0 0 0 0 0 0 0 0 0 0 0 0 0 0 1 0 0 0 0 0 0 0 0 0 0 0 0 0 0 2 8 0 4 6 10
439 378 353 191 100 0 0 0 0 0 0 0 0 0 0 0 0 0 0 0 0 0 0 0 0 0 0 0 0 0 0 0 0 0 0 0 0 5 0 0 2 3 7
193 432 253 329 295 190 0 0 7 0 0 0 0 0 0 0 0 0 0 0 0 0 0 0 0 0 0 0 0 0 0 0 0 0 0 0 0 0 0 0 0 0 2
245 299 300 245 259 325 268 130 29 1 0 0 0 0 0 0 0 0 0 0 0 0 0 0 0 0 0 0 0 0 0 0 0 0 0 0 0 0 0 0 0 0 0
52 229 371 350 356 306 207 203 225 210 179 199 142 52 0 0 0 0 0 0 0 0 0 0 0 0 0 0 0 0 0 0 0 0 0 0 0 0 0 0 0 0 0
0 0 0 37 0 288 366 357 264 293 291 298 289 340 282 74 0 0 0 0 0 0 0 0 0 0 0 0 0 0 0 0 0 0 0 0 0 0 0 0 0 0 0
0 0 0 0 0 0 0 12 198 299 288 275 226 252 266 276 232 133 39 2 2 0 0 0 4 12 0 0 0 0 0 0 0 0 0 0 0 0 0 0 0 0 0
0 0 0 0 0 0 0 0 0 0 0 0 31 78 105 77 104 83 123 119 54 0 0 0 0 5 22 0 0 0 0 0 0 0 0 0 0 0 0 0 0 0 0
0 0 0 0 0 0 0 0 0 0 0 0 0 0 0 0 0 0 0 0 0 19 20 20 0 0 2 8 0 0 0 0 0 0 0 0 0 0 0 0 0 0 0
0 0 0 0 0 0 0 0 0 0 0 0 0 0 0 0 0 0 0 0 0 29 51 33 10 9 11 16 0 0 0 0 0 0 0 0 0 0 0 0 0 0 0
0 0 0 0 0 0 0 0 0 0 0 0 0 0 0 0 0 0 0 0 0 0 13 45 29 17 21 13 8 0 0 0 0 0 0 0 0 0 0 0 0 0 0

GFSSE_con_mlcape_048.txt.gz
CAPE
189 657 889 1168 1190 1197 1185 1116 1030 791 497 321 238 38 0 0 0 53 26 32 1 2 4 7 2 2 1 1 0 0 0 0 0 0 0 1 0 2 1 0 0 0 13
336 832 840 1224 1170 1138 1177 1043 977 594 390 166 194 15 0 0 0 131 1 0 0 0 0 4 4 0 0 1 0 0 0 0 0 0 0 0 0 0 0 0 0 0 9
618 784 967 1337 1168 1109 1233 942 756 581 415 229 47 1 0 0 0 165 0 1 1 0 1 1 0 0 0 1 1 0 0 0 0 0 0 0 0 0 0 0 0 0 0
824 873 1096 1259 1395 1286 1096 958 801 711 489 163 59 0 0 0 14 204 20 3 1 0 0 0 0 0 0 0 0 0 0 0 0 0 0 0 0 0 0 1 73 82 31
783 970 1252 1339 1313 1171 1081 923 797 640 316 197 13 0 16 163 140 243 69 2 0 0 0 0 0 0 0 0 0 0 0 0 0 0 0 0 0 2 77 93 105 130 102
603 1032 1402 1384 1199 1044 1025 870 914 482 280 90 0 0 285 233 406 285 5 0 0 0 0 0 0 0 0 0 0 0 0 0 0 0 0 0 0 167 132 96 79 39 3
542 1116 1280 1322 1160 932 942 935 689 329 104 22 0 0 383 350 111 68 9 0 0 0 0 0 0 0 0 0 0 0 0 0 0 0 0 0 0 164 123 52 5 0 0
537 1059 1049 1238 1107 856 1077 986 504 230 73 13 0 31 189 112 67 49 10 0 0 0 0 0 0 0 0 0 0 0 0 0 0 0 0 0 0 11 102 1 0 0 1
648 755 818 1140 781 734 1111 820 462 230 55 12 2 33 31 33 46 58 49 9 0 3 0 0 0 0 0 0 0 0 0 0 0 0 0 0 0 0 77 12 0 2 3
355 405 547 497 624 740 895 512 346 119 41 15 12 34 15 14 16 41 36 31 27 13 0 0 0 0 0 0 0 0 0 0 0 0 0 0 0 0 114 9 8 6 5
390 211 123 107 246 323 465 334 248 73 36 20 10 12 19 13 27 39 21 28 55 31 0 0 0 0 0 0 0 0 0 0 0 0 0 0 0 112 137 23 12 8 7
343 203 78 43 27 52 147 200 101 64 32 13 5 0 0 0 15 23 14 24 54 67 18 0 0 0 0 0 0 0 0 0 0 0 0 24 52 196 130 29 4 2 2
230 123 31 22 17 25 45 79 69 43 27 9 0 0 0 0 0 4 0 3 28 65 24 6 0 0 0 0 0 0 0 0 0 0 0 25 173 316 147 24 0 0 3
278 169 44 13 13 14 18 32 74 57 21 0 0 0 0 0 0 0 0 1 7 14 20 2 0 0 0 0 0 0 0 0 0 0 0 7 88 155 140 1 0 0 0
320 180 71 24 13 16 6 9 22 47 29 0 0 0 0 0 0 0 0 0 0 2 0 0 0 0 0 0 0 0 0 0 0 0 0 0 12 71 97 28 18 2 2
346 262 100 44 22 11 7 2 0 3 18 6 0 0 0 0 0 0 0 0 0 0 0 0 0 0 0 0 0 0 0 0 0 0 0 0 0 12 31 30 19 6 4
375 346 245 120 64 21 0 0 0 0 0 0 0 0 0 0 0 0 0 0 0 0 0 0 0 0 0 0 0 0 0 0 0 0 0 0 0 0 0 33 8 8 9
444 471 418 290 195 80 14 0 0 0 0 0 0 0 0 0 0 0 0 0 0 0 0 0 0 0 0 0 0 0 0 0 0 0 0 0 0 0 0 0 17 0 5
234 250 386 366 360 240 86 0 0 0 0 0 0 0 0 0 0 0 0 0 0 0 0 0 0 0 0 0 0 0 0 0 0 0 0 0 0 0 0 0 0 0 0
154 197 264 238 229 238 249 164 43 2 14 0 0 0 0 0 0 0 0 0 0 0 0 0 0 0 0 0 0 0 0 0 0 0 0 0 0 0 0 0 0 0 0
0 0 24 235 196 253 238 213 181 267 237 202 153 198 148 0 0 0 0 0 0 0 0 0 0 0 0 0 0 0 0 0 0 0 0 0 0 0 0 0 0 0 0
0 0 0 0 0 0 86 168 240 241 182 192 166 178 155 158 160 91 24 8 0 0 0 0 0 0 0 0 0 0 0 0 0 0 0 0 0 0 0 0 0 0 0
0 0 0 0 0 0 0 0 0 0 0 0 0 13 3 2 17 34 72 74 60 0 37 6 0 1 16 0 0 1 2 1 0 0 0 0 0 0 0 0 0 0 0
0 0 0 0 0 0 0 0 0 0 0 0 0 0 0 0 0 0 0 0 0 0 0 0 3 0 0 2 0 0 0 0 0 0 0 0 0 0 0 0 0 0 0
0 0 0 0 0 0 0 0 0 0 0 0 0 0 0 0 0 0 0 0 0 0 0 0 0 1 0 20 0 0 0 0 0 0 0 0 0 0 0 0 0 0 0
0 0 0 0 0 0 0 0 0 0 0 0 0 0 0 0 0 0 0 0 0 0 0 0 0 0 27 29 16 10 3 0 0 0 0 0 0 0 0 0 0 0 0

GFSSE_con_mlcape_051.txt.gz
CAPE
193 925 831 1083 1407 1136 1131 986 767 541 382 250 183 71 0 13 60 60 48 3 4 6 5 4 3 7 5 3 0 0 0 0 0 0 0 0 0 0 0 0 0 8 94
286 1073 936 1175 1415 1274 1145 981 781 535 290 133 149 19 0 25 215 5 0 0 0 1 8 2 2 3 5 1 0 0 0 0 0 0 0 0 0 0 0 0 0 3 50
510 986 1026 1078 1154 1106 1078 1085 729 435 299 160 80 3 0 13 254 0 2 3 0 0 2 1 1 2 4 2 0 0 0 0 0 0 0 2 0 0 0 0 0 0 4
798 923 1094 1268 1139 1271 1147 956 705 632 250 87 30 0 0 19 282 64 4 2 0 0 0 0 0 1 0 0 0 0 0 0 0 0 0 2 2 0 1 135 107 64 106
907 824 1396 1261 1313 1279 1104 948 842 602 208 103 4 0 79 88 394 132 6 0 0 0 0 0 0 0 0 0 0 0 0 0 0 0 0 4 43 113 121 89 72 76 41
873 970 1343 1320 1297 1227 1115 979 798 391 174 21 0 0 363 218 424 125 1 0 0 0 0 0 0 0 0 0 0 0 0 0 0 0 0 0 11 135 112 44 2 1 0
763 1175 1352 1317 1197 1126 1037 953 658 357 153 4 0 218 525 537 203 39 0 0 0 0 0 0 0 0 0 0 0 0 0 0 0 0 0 0 0 170 102 13 3 0 0
725 1463 1325 1279 1028 1011 1004 898 511 244 90 4 2 161 226 89 68 54 13 0 0 0 0 0 0 0 0 0 0 0 0 0 0 0 0 0 0 27 24 0 0 0 1
910 1289 1295 1218 885 844 1036 750 313 215 43 3 30 212 103 51 48 43 19 0 0 5 0 0 0 0 0 0 0 0 0 0 0 0 0 0 0 0 42 5 0 0 4
899 929 945 1145 744 880 1146 506 333 159 30 6 21 28 22 21 34 34 35 16 19 9 0 0 0 0 0 0 0 0 0 0 0 0 0 0 0 5 88 14 5 0 0
609 613 712 734 538 739 873 421 287 77 29 11 10 12 3 15 16 32 24 25 30 8 0 0 0 0 0 0 0 0 0 0 0 0 0 0 1 61 147 29 4 0 0
331 404 403 420 464 638 588 395 256 65 35 20 10 4 1 1 10 22 11 13 27 35 2 0 0 0 0 0 0 0 0 0 0 0 0 0 23 121 181 40 2 0 0
433 283 166 121 154 263 345 343 163 60 32 15 2 0 0 0 0 9 4 5 36 49 23 3 0 0 0 0 0 0 0 0 0 0 0 0 11 238 201 75 0 0 0
433 366 209 93 48 41 71 219 115 59 37 19 2 0 0 0 0 0 0 0 0 13 26 9 0 0 0 0 0 0 0 0 0 0 0 0 0 113 125 19 1 0 0
437 322 161 47 31 26 34 44 130 92 49 24 0 0 0 0 0 0 0 0 0 0 0 0 0 0 0 0 0 0 0 0 0 0 0 0 0 0 65 80 32 8 4
390 336 177 86 37 18 14 22 36 83 72 29 0 0 0 0 0 0 0 0 0 0 0 0 0 0 0 0 0 0 0 0 0 0 0 0 0 0 0 20 9 10 6
371 341 224 118 56 37 24 23 25 18 23 38 18 0 0 0 0 0 0 0 0 0 0 0 0 0 0 0 0 0 0 0 0 0 0 0 0 0 0 0 18 4 10
373 355 307 193 118 74 42 22 11 0 0 0 0 0 0 0 0 0 0 0 0 0 0 0 0 0 0 0 0 0 0 0 0 0 0 0 0 0 0 0 0 32 5
384 395 369 371 351 243 106 25 0 0 0 0 12 6 6 0 0 0 0 0 0 0 0 0 0 0 0 0 0 0 0 0 0 0 0 0 0 0 0 0 0 0 30
287 326 371 393 450 355 234 116 51 13 0 0 0 0 0 0 0 0 0 0 0 0 0 0 0 0 0 0 0 0 0 0 0 0 0 0 0 0 0 0 0 0 0
0 81 216 305 294 271 279 304 302 308 202 120 60 40 0 0 0 0 0 0 0 0 0 0 0 0 0 0 0 0 0 0 0 0 0 0 0 0 0 0 0 0 0
0 0 0 84 86 238 285 268 262 253 222 197 162 156 103 96 78 0 0 0 0 0 0 0 0 0 2 0 0 0 1 0 0 0 0 0 0 0 0 0 0 0 0
0 0 0 0 0 0 0 0 0 0 0 0 0 0 0 0 0 0 16 28 41 0 29 43 0 25 29 0 0 2 2 1 0 0 0 0 0 0 0 0 0 0 0
0 0 0 0 0 0 0 0 0 0 0 0 0 0 0 0 0 0 0 0 0 0 0 0 0 0 1 0 0 0 0 0 1 0 0 0 0 0 0 0 0 0 0
0 0 0 0 0 0 0 0 0 0 0 0 0 0 0 0 0 0 0 0 0 0 0 0 0 0 0 9 0 0 0 0 0 1 0 1 0 0 0 0 0 0 0
0 0 0 0 0 0 0 0 0 0 0 0 0 0 0 0 0 0 0 0 0 0 0 0 0 0 0 6 11 0 0 0 0 0 0 0 0 0 0 0 0 0 0

GFSSE_con_mlcape_054.txt.gz
CAPE
529 930 1293 1278 1205 966 811 788 671 551 468 259 222 30 112 106 216 95 34 7 5 6 4 5 51 49 5 1 0 0 0 0 0 0 0 0 0 0 0 0 11 14 1
350 640 1217 1398 1372 1143 952 792 529 359 261 252 162 26 211 292 64 0 0 0 1 9 7 3 2 5 5 0 0 0 0 0 0 0 0 0 0 0 0 0 0 13 54
465 486 808 1441 1351 1021 1054 796 565 291 216 185 77 21 222 289 0 3 3 0 1 7 3 7 6 3 4 1 0 0 0 0 0 0 0 0 0 0 18 0 0 0 30
585 551 633 1129 1140 1113 1076 842 623 415 179 117 38 7 104 363 98 26 2 0 0 1 0 1 3 1 0 0 0 0 0 0 0 0 7 11 7 29 138 104 66 82 52
623 505 891 961 1179 1206 1099 870 673 373 102 32 1 11 72 526 245 51 0 0 0 0 0 0 0 0 0 0 0 0 0 0 0 0 8 14 18 97 93 58 12 5 3
583 567 1267 1182 1283 1157 1025 914 704 272 84 0 0 162 151 660 325 0 0 0 0 0 0 0 0 0 0 0 0 0 0 0 0 0 0 0 149 111 57 0 0 0 0
503 1013 1114 1316 1297 1158 1048 946 651 296 53 0 44 366 359 677 219 25 0 0 0 0 0 0 0 0 0 0 0 0 0 0 0 0 0 0 0 142 0 0 0 0 1
639 1010 1184 1240 1198 1102 1023 804 461 228 25 0 201 579 734 230 54 49 0 0 3 0 0 0 0 0 0 0 0 0 0 0 0 0 0 0 0 64 1 0 0 0 1
868 891 1394 1109 1032 1012 937 710 319 174 22 0 224 408 132 61 52 49 15 0 21 0 0 0 0 0 0 0 0 0 0 0 0 0 0 0 0 4 43 0 0 0 0
1333 1284 1088 1076 775 899 955 478 224 141 17 14 75 76 46 43 57 49 26 18 16 0 0 0 0 0 0 0 0 0 0 0 0 0 0 0 0 12 96 7 0 0 0
955 1132 825 1039 713 889 1226 443 300 97 20 14 18 14 21 22 26 31 23 11 13 0 0 0 0 0 0 0 0 0 0 0 0 0 0 0 0 62 169 24 0 0 0
696 772 794 812 694 778 1075 468 409 113 87 61 26 0 0 0 0 15 12 9 23 14 0 0 0 0 0 0 0 0 0 0 0 0 0 0 1 112 238 64 0 0 0
438 497 772 927 845 860 742 511 322 126 194 138 60 21 0 0 0 0 0 0 5 17 24 4 0 0 0 0 0 0 0 0 0 0 0 0 0 67 244 111 0 0 0
522 544 617 589 695 744 789 682 437 296 164 187 68 30 0 0 0 0 0 0 0 5 17 16 0 0 0 0 0 0 0 0 0 0 0 0 0 0 248 51 0 0 0
828 761 662 504 439 454 566 606 512 368 199 158 103 51 19 0 0 0 0 0 0 0 0 0 0 0 0 0 0 0 0 0 0 0 0 0 0 0 0 121 98 24 2
873 864 761 563 473 368 272 384 548 472 295 196 100 70 33 17 0 0 0 0 0 0 0 0 0 0 0 0 0 0 0 0 0 0 0 0 0 0 0 0 28 5 18
657 686 676 521 382 272 161 175 241 270 289 171 129 90 58 33 27 0 0 0 0 0 0 0 0 0 0 0 0 0 0 0 0 0 0 0 0 0 0 0 0 3 17
595 583 566 421 368 305 188 125 91 94 102 117 161 147 84 45 40 49 40 9 0 0 0 0 0 0 20 24 31 41 50 34 31 30 4 0 0 0 0 0 0 0 29
621 552 538 501 445 381 370 282 232 195 215 226 217 204 192 130 69 57 72 83 60 0 0 7 16 22 35 98 111 46 53 54 45 27 26 0 0 0 0 0 0 0 0
646 610 524 562 658 670 580 461 330 282 237 229 237 214 161 151 132 140 178 236 242 180 112 79 22 32 36 71 64 18 38 30 20 0 0 0 0 0 0 0 0 0 0
130 494 530 523 792 859 803 703 728 659 532 391 310 262 213 202 161 147 247 246 295 232 200 176 125 129 135 112 0 0 28 1 0 0 0 0 0 0 0 0 0 0 0
0 99 276 426 619 787 785 781 800 830 826 812 770 712 651 636 589 515 409 382 322 234 245 202 158 74 7 12 21 0 1 0 1 0 0 0 0 0 0 0 0 0 0
0 0 0 14 82 214 415 208 59 26 20 95 199 210 0 0 0 1 57 92 80 24 15 58 80 69 62 8 1 8 6 0 3 5 0 0 0 0 0 0 0 0 0
0 0 0 0 0 0 0 0 10 56 33 0 0 0 0 0 0 0 0 0 0 0 0 0 0 6 14 2 0 2 0 5 6 4 0 0 0 0 0 0 0 0 0
0 0 0 0 0 0 0 0 0 0 0 0 0 0 0 0 0 0 0 0 0 0 0 0 0 0 1 3 2 1 0 1 0 2 1 4 0 0 0 0 0 0 0
0 0 0 0 0 0 0 0 0 0 0 0 0 0 0 0 0 0 0 0 0 0 0 0 0 0 1 6 8 8 0 1 3 2 0 0 0 0 1 0 0 0 0

GFSSE_con_mlcape_057.txt.gz
CAPE
846 1175 1312 1119 896 753 721 570 480 362 325 211 113 69 57 283 116 22 2 6 2 3 66 156 10 4 1 0 0 0 0 0 0 0 0 0 0 0 0 8 19 14 6
754 1019 1328 1312 1201 972 824 575 455 329 230 290 64 239 365 50 0 0 0 1 7 4 11 9 4 6 2 0 0 0 0 0 0 0 0 0 0 0 0 0 1 0 70
633 957 1171 1371 1258 1013 875 612 398 222 136 145 40 283 95 8 13 2 0 2 8 3 4 10 4 7 2 0 0 0 0 0 0 0 1 1 3 128 6 0 32 90 44
461 755 1029 1479 1210 1086 873 691 467 318 103 110 31 238 271 102 16 1 0 1 1 2 4 4 2 1 0 0 0 0 0 0 0 0 14 23 25 116 121 48 7 1 2
407 595 1317 1300 1279 1079 896 701 464 176 55 34 17 111 639 380 70 0 0 0 0 0 1 1 0 0 0 0 0 0 0 0 0 0 13 14 11 33 0 0 0 1 1
424 562 952 1263 1296 1040 882 651 477 138 16 0 25 105 664 520 67 0 0 0 0 0 0 0 0 0 0 0 0 0 0 0 0 0 0 38 44 21 3 0 0 0 0
439 1203 988 1190 1142 1023 874 692 462 152 0 0 134 314 728 387 70 0 0 0 0 0 0 0 0 0 0 0 0 0 0 0 0 0 0 0 0 22 0 0 0 0 0
550 974 889 1181 1076 1008 922 705 329 78 0 43 380 324 846 227 49 18 0 0 0 0 0 0 0 0 0 0 0 0 0 0 0 0 0 0 0 67 0 0 0 0 0
790 695 1088 1289 1062 961 800 572 247 57 0 87 545 613 200 55 45 27 0 0 2 0 0 0 0 0 0 0 0 0 0 0 0 0 0 0 0 22 17 0 0 0 0
698 985 1224 1007 883 899 789 356 129 44 0 104 220 84 41 39 43 24 4 9 10 0 0 0 0 0 0 0 0 0 0 0 0 0 0 0 0 18 87 7 0 0 0
1088 818 1009 706 660 742 758 327 213 24 0 4 37 26 27 26 35 21 22 0 6 0 0 0 0 0 0 0 0 0 0 0 0 0 0 0 0 29 186 38 0 0 0
1098 896 1005 939 518 1105 951 359 461 130 49 15 0 0 0 0 0 14 13 0 9 2 0 0 0 0 0 0 0 0 0 0 0 0 0 0 0 14 191 102 0 0 0
637 916 716 709 564 1251 957 586 471 194 184 179 42 0 0 0 0 0 0 0 0 3 19 0 0 0 0 0 0 0 0 0 0 0 0 0 0 0 189 170 0 0 0
559 518 489 717 688 747 862 609 386 241 147 199 142 50 0 0 0 0 0 0 0 0 7 8 0 0 0 0 0 0 0 0 0 0 0 0 0 0 31 115 0 0 0
551 490 527 697 662 624 745 705 467 372 176 146 141 81 31 3 0 0 0 0 0 0 0 0 0 0 0 0 0 0 0 0 0 0 0 0 0 0 0 0 118 61 5
863 653 566 562 486 486 551 526 511 370 260 123 111 106 67 38 19 0 0 0 0 0 0 0 1 8 18 14 1 1 1 0 0 0 0 0 0 0 0 0 0 0 13
896 864 803 755 677 520 486 411 397 496 261 153 113 108 81 64 53 27 24 27 3 0 0 0 0 3 16 21 17 27 16 20 29 26 0 0 0 0 0 0 0 0 0
951 947 850 699 516 342 210 183 178 211 177 191 204 210 113 61 89 134 99 106 95 77 35 9 1 8 28 39 56 110 51 54 66 74 71 65 7 0 0 0 0 0 0
841 860 880 794 611 520 398 316 198 134 194 248 292 323 329 242 158 186 202 249 262 231 168 125 107 80 102 138 124 115 49 58 66 52 49 47 22 1 0 0 0 0 0
759 825 881 851 680 609 562 534 467 402 341 361 402 439 424 418 400 370 327 273 227 261 281 250 123 157 147 140 102 52 88 92 55 38 8 3 1 0 0 0 0 0 0
641 830 874 869 828 771 799 736 686 628 581 513 456 444 445 445 434 435 413 343 294 293 306 350 279 174 155 170 75 0 49 27 24 3 13 2 0 0 0 0 0 0 0
0 631 820 847 856 920 938 921 950 956 847 854 759 727 707 605 591 501 445 431 400 389 439 325 157 142 90 80 40 1 1 0 7 11 0 0 0 0 0 0 0 0 0
0 3 492 626 680 820 967 936 820 624 554 632 807 683 429 3 23 123 214 138 219 122 131 134 94 39 6 4 4 3 10 0 7 3 1 0 0 0 0 0 0 0 0
0 0 0 6 136 156 305 416 330 379 501 337 70 1 0 0 0 0 0 0 0 0 1 0 1 2 5 6 4 2 4 14 6 3 0 0 2 0 3 4 0 0 0
0 0 0 0 0 0 0 0 1 12 0 0 0 0 0 0 0 0 0 0 0 0 0 0 0 0 1 2 3 10 8 10 0 2 5 0 0 0 0 6 0 0 0
0 0 0 0 0 0 0 0 0 0 0 0 0 0 0 0 0 0 0 0 0 0 0 0 0 0 0 4 2 11 18 3 2 1 0 2 0 0 0 1 0 0 0

GFSSE_con_mlcape_060.txt.gz
CAPE
1177 1013 866 807 828 733 731 556 288 175 159 150 95 155 296 78 5 2 2 0 14 160 73 2 6 1 0 0 0 0 0 0 0 0 0 0 0 0 4 4 0 38 63
1092 1137 961 847 990 814 665 461 198 238 196 33 297 378 6 0 0 1 3 9 6 23 13 4 6 4 0 0 0 0 0 0 0 0 0 0 0 0 0 5 36 41 12
1014 1192 1128 1092 1006 825 524 394 305 163 67 0 327 3 8 5 0 0 4 5 8 18 15 2 6 2 0 0 0 0 0 0 0 0 1 21 2 1 109 3 8 10 6
1051 1015 1228 1240 1020 832 657 421 248 32 7 8 284 148 52 4 0 0 1 3 4 4 3 4 2 0 0 0 0 0 0 0 0 9 21 13 74 138 15 6 5 4 3
968 938 1297 1220 1078 901 606 387 162 7 13 0 191 396 347 23 0 0 0 0 0 3 1 0 0 0 0 0 0 0 0 0 0 3 10 14 13 8 3 0 0 0 1
644 1234 1188 1218 1052 839 588 425 115 15 0 0 49 565 454 55 0 0 0 0 0 0 0 0 0 0 0 0 0 0 0 0 0 0 0 24 20 10 0 0 1 2 0
1154 1176 1208 1171 1045 854 678 474 142 10 0 1 49 573 313 66 0 0 0 0 0 0 0 0 0 0 0 0 0 0 0 0 0 0 0 0 25 7 0 0 0 0 0
1088 1075 1177 1157 951 850 715 427 87 0 3 204 165 646 282 76 0 0 0 0 0 0 0 0 0 0 0 0 0 0 0 0 0 0 0 0 27 30 5 0 0 0 0
955 980 1149 1098 867 770 605 273 43 0 68 487 423 702 234 53 29 0 0 0 0 0 0 0 0 0 0 0 0 0 0 0 0 0 0 0 0 57 17 0 0 0 0
771 747 1029 982 911 724 484 129 14 0 154 265 240 100 27 27 26 0 0 0 0 0 0 0 0 0 0 0 0 0 0 0 0 0 0 0 0 16 61 0 0 0 0
996 1067 1226 947 889 742 528 135 23 0 0 127 50 23 16 23 25 7 21 0 0 0 0 0 0 0 0 0 0 0 0 0 0 0 0 0 0 0 160 9 0 0 0
944 1052 808 608 707 833 564 160 66 0 0 0 11 24 5 7 18 38 10 0 0 0 0 0 0 0 0 0 0 0 0 0 0 0 0 0 0 0 80 155 0 0 0
824 864 972 688 755 847 526 354 308 80 81 16 0 0 0 0 0 0 0 0 0 0 0 0 0 0 0 0 0 0 0 0 0 0 0 0 0 0 0 210 0 0 0
794 727 670 682 913 1006 604 539 363 88 175 104 90 7 0 0 0 0 0 0 0 0 0 0 0 0 0 0 0 0 0 0 0 0 0 0 0 0 0 82 0 0 0
701 787 788 481 573 791 717 583 377 145 219 187 160 72 11 0 0 0 0 0 0 0 0 0 0 0 0 0 0 0 0 0 0 0 0 0 0 0 0 0 100 31 12
582 418 658 627 559 660 740 655 400 321 302 114 148 117 60 14 0 0 0 0 0 0 0 0 0 0 0 0 0 0 0 0 0 0 0 0 0 0 0 0 0 0 1
872 554 478 512 397 472 563 554 528 343 326 143 134 111 84 38 19 7 0 0 0 0 0 0 0 0 0 0 0 0 3 9 5 6 1 0 0 0 0 0 0 0 0
887 895 712 691 618 509 416 468 433 386 359 191 133 136 89 45 25 41 27 34 45 8 0 0 0 0 0 1 1 11 14 19 20 33 22 2 1 0 0 0 0 0 0
861 883 872 715 558 368 306 178 183 146 124 149 182 228 194 98 48 131 183 221 231 187 124 74 30 1 2 8 11 3 10 1 0 0 0 0 0 10 4 0 0 0 0
780 945 930 896 696 552 436 315 210 198 153 217 272 314 352 355 282 231 266 257 184 126 192 146 107 72 60 12 2 5 29 20 0 0 0 0 4 0 0 0 0 0 0
695 806 921 864 762 640 556 481 449 381 380 354 376 463 452 460 439 427 397 247 257 285 229 202 166 117 10 14 16 10 2 0 0 0 0 4 0 0 0 0 0 0 0
0 794 944 946 878 814 800 742 630 561 584 554 569 525 546 564 519 445 392 354 361 332 313 255 228 95 11 68 27 6 2 0 0 0 0 0 0 0 0 0 0 0 0
0 37 847 949 960 959 961 879 767 595 679 748 815 758 426 109 17 77 198 263 228 198 175 107 88 69 14 42 32 11 3 0 0 0 0 0 0 0 0 0 0 0 0
0 0 38 428 742 778 957 872 564 458 583 395 172 46 3 0 0 0 0 0 0 0 0 0 0 0 1 0 4 12 7 14 10 2 0 2 0 0 0 0 0 0 0
0 0 0 0 56 79 240 321 397 403 0 0 0 0 0 0 0 0 0 0 0 0 0 0 0 0 0 0 0 4 2 6 3 11 6 11 3 0 0 0 0 0 0
0 0 0 0 0 0 0 0 0 2 0 0 0 0 0 0 0 0 0 0 0 0 0 0 0 0 0 0 3 1 2 4 0 1 14 3 13 2 0 0 0 0 0

GFSSE_con_mlcape_063.txt.gz
CAPE
528 878 1146 1030 876 839 699 586 418 230 162 67 324 263 17 1 1 0 43 224 139 71 2 5 0 0 0 0 0 0 0 0 0 0 0 0 0 0 61 15 8 11 7
741 871 1161 1029 1016 855 542 276 269 121 135 350 257 0 0 0 1 6 4 41 13 8 1 7 2 0 0 0 0 0 0 0 0 0 0 0 0 80 11 0 8 22 12
681 675 879 1166 948 631 388 374 278 98 94 242 5 2 1 0 2 7 3 8 19 11 5 3 0 0 0 0 0 0 0 0 0 0 0 0 14 9 5 6 1 5 5
809 715 1024 1110 768 661 541 338 164 16 46 273 55 3 1 0 2 7 4 1 2 4 5 3 1 0 0 0 0 0 0 0 4 26 6 1 3 4 2 1 3 1 0
829 1031 1199 1044 866 720 489 214 1 0 23 446 234 145 0 0 0 1 3 5 4 5 3 0 0 0 0 0 0 0 0 0 0 1 5 0 0 2 1 1 0 0 0
947 1107 1201 1051 933 689 418 66 0 0 1 355 451 136 1 0 0 0 0 2 2 2 1 0 0 0 0 0 0 0 0 0 0 0 15 17 9 2 0 0 0 0 0
1137 1137 1195 1039 873 655 452 60 0 0 0 165 681 225 27 0 0 0 0 0 1 1 0 0 0 0 0 0 0 0 0 0 0 0 0 0 15 12 0 0 0 0 0
1153 1144 1169 1004 816 668 421 60 0 0 14 77 736 234 65 0 0 0 0 0 0 0 0 0 0 0 0 0 0 0 0 0 0 0 0 0 32 14 0 0 0 0 0
1066 1088 1087 995 804 603 254 6 0 123 346 161 700 220 57 7 0 0 0 0 0 0 0 0 0 0 0 0 0 0 0 0 0 0 0 0 0 42 0 0 0 0 0
892 830 877 874 770 501 168 0 0 207 301 431 646 179 28 0 0 0 0 0 0 0 0 0 0 0 0 0 0 0 0 0 0 0 0 0 0 0 19 0 0 0 0
836 655 762 673 621 424 119 0 0 146 161 174 104 17 11 0 0 0 0 0 0 0 0 0 0 0 0 0 0 0 0 0 0 0 0 0 0 0 116 11 0 0 0
857 812 711 592 559 423 174 0 0 0 49 65 24 7 9 3 1 0 0 0 0 0 0 0 0 0 0 0 0 0 0 0 0 0 0 0 0 0 12 137 1 0 0
773 808 825 758 726 472 207 51 0 0 0 0 0 0 0 0 13 0 0 0 0 0 0 0 0 0 0 0 0 0 0 0 0 0 0 0 0 0 0 40 0 0 0
703 612 629 784 840 573 245 289 118 32 11 0 0 0 0 0 0 0 0 0 0 0 0 0 0 0 0 0 0 0 0 0 0 0 0 0 0 0 0 24 145 0 0
687 640 620 822 940 659 420 487 257 74 135 82 5 0 0 0 0 0 0 0 0 0 0 0 0 0 0 0 0 0 0 0 0 0 0 0 0 0 0 0 34 64 15
516 777 562 615 994 862 625 508 346 179 189 149 127 82 0 0 0 0 0 0 0 0 0 0 0 0 0 0 0 0 0 0 0 0 0 0 0 0 0 0 0 0 15
429 844 782 540 654 763 679 616 395 226 288 128 163 124 72 10 0 0 0 0 0 0 0 0 0 0 0 0 0 0 4 12 9 9 1 2 0 0 0 0 0 0 0
590 536 696 637 602 621 661 661 515 362 234 281 134 122 107 57 23 8 0 0 0 0 0 0 0 0 0 0 3 6 10 22 21 14 6 11 23 8 1 0 0 0 0
734 727 551 629 515 578 557 554 526 385 245 161 98 96 105 79 35 66 54 70 87 94 19 2 1 1 3 6 6 6 5 3 0 0 0 14 30 2 3 1 0 0 0
700 898 824 734 694 516 479 391 254 202 107 133 156 173 164 144 75 92 167 208 158 123 103 84 45 22 9 15 11 18 7 4 3 0 0 28 3 0 0 0 0 0 0
582 705 715 840 670 473 381 299 209 171 165 123 199 263 303 278 281 211 211 224 183 202 144 105 107 83 16 12 19 11 13 15 10 0 0 0 0 0 0 0 0 0 0
443 576 600 783 712 707 574 466 419 317 333 373 366 405 459 476 447 399 382 354 282 229 225 207 195 70 14 24 18 18 22 2 0 0 0 0 0 0 0 0 0 0 0
13 452 751 704 768 731 714 630 517 515 488 507 535 500 193 130 36 76 169 257 272 242 208 131 75 18 5 3 7 19 19 1 0 0 0 0 0 0 0 0 0 0 0
0 15 707 756 814 802 824 789 690 582 506 485 569 191 10 0 0 0 0 0 0 0 5 4 0 0 0 0 0 0 12 30 13 3 0 0 0 0 0 0 0 0 0
0 0 120 508 429 356 440 501 367 351 259 42 18 21 0 0 0 0 0 0 0 0 0 0 0 0 0 0 0 0 0 0 3 6 6 0 1 0 0 0 0 0 0
0 0 0 27 44 61 107 123 253 131 1 0 0 0 0 0 0 0 0 0 0 0 0 0 0 0 0 0 0 0 1 0 0 1 2 5 1 1 0 0 0 0 0

GFSSE_con_mlcape_066.txt.gz
CAPE
287 972 946 1069 914 853 795 621 410 122 132 390 183 52 13 25 217 280 398 236 65 3 4 0 0 0 0 0 0 0 0 1 3 0 0 0 78 35 6 3 2 0 0
693 1026 1019 998 962 840 662 510 257 114 253 164 0 0 0 4 52 277 212 108 9 7 5 0 0 0 0 1 1 0 0 0 0 0 0 13 11 7 5 3 3 3 48
740 1085 1038 1001 864 670 448 326 99 383 192 0 1 0 0 2 3 36 185 6 4 7 3 0 0 0 0 0 0 0 0 0 0 0 0 1 0 4 3 2 3 1 2
775 1056 1083 959 731 548 517 327 87 368 56 18 1 0 1 4 3 2 3 6 7 4 1 0 0 0 0 0 0 0 1 61 0 8 0 0 0 3 2 3 4 1 0
737 992 1111 793 664 612 450 236 35 516 144 46 2 0 0 2 7 4 3 2 4 1 0 1 0 0 0 0 0 0 0 17 29 7 0 0 0 2 0 0 0 0 0
704 1035 933 825 694 550 294 33 12 558 405 305 3 0 0 0 2 3 2 3 2 1 1 0 0 0 0 0 0 0 0 0 0 8 8 8 0 0 0 0 0 0 0
835 1077 972 864 685 508 130 0 9 351 618 428 65 0 0 0 0 1 2 3 1 1 1 0 0 0 0 0 0 0 0 0 0 0 0 0 0 0 0 0 0 0 0
946 1029 943 839 672 397 56 0 0 78 575 571 161 16 0 0 0 0 2 3 2 1 0 0 0 0 0 0 0 0 0 0 0 0 0 0 0 0 0 0 0 0 0
1025 1047 987 814 620 329 23 0 0 34 332 783 258 46 0 0 0 0 0 0 0 0 0 0 0 0 0 0 0 0 0 0 0 0 0 0 1 1 0 0 0 0 0
913 945 823 769 604 187 0 0 122 236 256 740 236 22 0 0 0 0 0 0 0 0 0 0 0 0 0 0 0 0 0 0 0 0 0 0 0 12 19 0 0 0 0
999 805 719 656 507 154 0 0 222 217 273 710 222 16 5 0 0 0 0 0 0 0 0 0 0 0 0 0 0 0 0 0 0 0 0 0 0 0 50 91 0 0 0
799 725 683 535 410 149 0 0 172 211 277 320 114 8 0 0 0 0 0 0 0 0 0 0 0 0 0 0 0 0 0 0 0 0 0 0 0 0 0 105 0 0 0
575 687 614 504 469 206 46 0 0 103 129 114 37 12 0 0 0 0 0 0 0 0 0 0 0 0 0 0 0 0 0 0 0 0 0 0 0 0 0 0 186 0 0
365 468 656 591 510 310 92 6 0 0 0 0 0 0 0 0 0 0 0 0 0 0 0 0 0 0 0 0 0 0 0 0 0 0 0 0 0 0 0 0 149 59 0
91 235 520 736 668 445 181 92 42 24 8 1 0 0 0 0 0 0 0 0 0 0 0 0 0 0 0 0 0 0 0 0 0 0 0 0 0 0 0 0 3 109 71
61 238 418 758 803 651 384 309 206 105 117 97 33 0 0 0 0 0 0 0 0 0 0 0 0 0 0 0 0 0 0 0 0 0 0 0 0 0 0 0 1 12 31
403 393 219 431 469 667 654 541 407 217 151 162 145 30 0 0 0 0 0 0 0 0 0 0 0 0 0 0 0 0 1 14 12 9 7 4 6 2 0 0 15 12 14
283 492 554 641 750 645 746 655 552 385 258 273 174 113 65 27 0 0 0 0 0 0 0 0 0 0 0 0 1 1 5 10 11 15 4 1 0 6 0 0 8 12 0
448 488 514 618 551 806 694 705 620 426 292 299 201 166 122 73 38 24 12 11 17 6 0 0 0 1 2 4 3 7 4 3 4 2 1 25 7 0 0 0 0 0 0
539 473 502 546 609 638 654 616 531 433 289 237 146 145 148 110 74 60 67 96 135 122 99 35 21 12 18 11 18 24 2 14 5 1 0 0 0 0 0 0 0 0 0
552 523 467 470 658 527 469 463 415 396 218 124 91 152 159 153 138 94 94 160 196 135 138 108 62 37 16 8 18 5 2 1 0 1 0 0 0 0 0 0 0 0 0
463 555 480 544 573 639 537 475 353 254 207 146 106 195 265 268 229 181 188 240 256 214 164 140 123 69 55 12 9 3 1 0 0 0 0 0 0 0 0 0 0 0 0
332 396 496 501 640 635 529 354 303 228 223 251 246 257 295 340 419 391 396 375 343 279 235 188 115 62 2 1 0 4 3 0 0 0 0 0 0 0 0 0 0 0 0
4 249 541 693 775 661 566 518 402 356 294 288 276 213 33 0 0 3 2 3 2 1 4 7 8 6 0 0 0 0 0 23 4 2 0 0 0 0 0 0 0 0 0
0 0 219 511 471 516 536 501 416 340 279 97 69 18 0 0 0 0 0 0 0 0 0 0 0 0 0 0 0 0 0 0 0 13 0 0 0 0 0 0 0 0 0
0 0 0 239 333 408 408 441 423 280 183 48 3 0 0 0 0 0 0 0 0 0 0 0 0 0 0 0 0 0 0 0 0 0 1 0 0 0 0 0 0 0 0

GFSSE_con_mlcape_069.txt.gz
CAPE
199 724 730 904 810 716 621 398 97 150 380 84 39 147 459 493 589 434 300 103 13 3 0 0 0 0 2 2 3 7 7 3 0 0 33 10 6 7 5 16 0 25 62
488 764 842 892 876 803 638 387 80 324 183 7 5 62 366 457 453 506 153 58 7 2 0 0 3 3 5 3 0 0 0 0 0 7 0 0 0 2 1 0 7 17 19
717 849 910 820 732 669 472 180 153 266 1 0 0 3 134 371 429 247 30 6 5 0 0 0 0 0 0 0 0 0 0 0 3 2 0 0 0 3 3 1 1 5 6
746 884 847 821 737 614 293 165 442 120 0 0 0 2 3 37 360 98 18 4 1 0 0 0 0 0 0 0 0 42 37 0 16 0 0 0 0 1 1 0 0 0 0
779 917 934 822 654 526 285 314 284 43 0 0 0 2 2 1 4 2 7 6 2 1 0 0 0 0 0 0 0 12 47 35 7 0 0 0 0 0 0 0 0 0 0
594 766 835 670 590 503 233 279 304 170 30 0 0 3 7 4 1 2 4 4 1 1 0 0 0 0 0 0 0 0 0 19 0 0 0 0 0 0 0 0 0 0 0
514 751 703 627 617 415 189 111 593 349 231 1 0 1 3 4 8 4 3 3 2 0 0 0 0 0 0 0 0 0 0 0 0 0 0 0 0 0 0 0 0 0 0
626 822 706 721 544 315 81 82 576 572 320 18 0 0 1 2 4 6 5 3 3 0 0 0 0 0 0 0 0 0 0 0 0 0 0 0 0 0 0 0 0 0 0
846 756 775 695 522 137 14 9 221 653 483 132 3 0 0 0 0 0 0 1 1 3 0 0 0 0 0 0 0 0 0 0 0 0 0 0 0 0 0 0 0 0 0
847 849 717 617 394 55 0 0 17 395 736 312 52 0 0 0 0 0 0 0 0 0 0 0 0 0 0 0 0 0 0 0 0 0 0 0 0 1 0 0 0 0 0
924 836 665 485 266 3 0 0 47 148 759 317 43 0 0 0 0 0 0 0 0 0 0 0 0 0 0 0 0 0 0 0 0 0 0 0 0 0 0 109 0 0 0
821 801 649 512 247 33 0 56 181 95 544 345 30 13 0 0 0 0 0 0 0 0 0 0 0 0 0 0 0 0 0 0 0 0 0 0 0 0 0 37 17 0 0
689 640 698 545 292 64 0 17 148 178 232 368 54 8 0 0 0 0 0 0 0 0 0 0 0 0 0 0 0 0 0 0 0 0 0 0 0 0 0 0 15 50 0
230 509 756 607 354 133 1 0 106 166 213 240 79 16 0 0 0 0 0 0 0 0 0 0 0 0 0 0 0 0 0 0 0 0 0 0 0 0 0 0 21 58 22
213 146 250 438 491 254 96 3 0 8 105 133 65 32 0 0 0 0 0 0 0 0 0 0 0 0 0 0 0 0 0 0 0 0 0 0 0 0 0 0 10 54 78
50 0 8 110 387 365 208 124 47 11 0 0 1 1 0 0 0 0 0 0 0 0 0 0 0 0 0 0 0 0 0 0 0 2 6 0 0 0 0 4 8 24 32
96 5 97 91 252 307 251 139 110 112 65 71 54 5 0 0 0 0 0 0 0 0 0 0 0 0 0 0 0 0 0 0 10 21 8 12 7 7 0 2 7 26 23
144 66 155 244 189 388 213 200 252 264 175 178 173 114 27 0 0 0 0 0 0 0 0 0 0 0 0 0 0 0 6 5 7 6 8 23 11 9 5 2 0 2 13
250 167 192 272 119 76 60 340 340 363 233 212 189 189 98 10 0 0 0 0 0 0 0 0 0 0 1 2 4 7 4 10 6 0 4 0 1 0 1 0 0 0 0
414 433 384 249 169 131 186 282 111 386 413 320 302 235 166 91 53 8 7 14 21 29 36 24 14 22 25 29 8 12 2 3 0 0 0 0 0 0 0 0 0 0 0
559 359 373 405 400 365 302 224 278 288 360 222 170 203 180 152 141 96 70 59 84 165 165 94 104 102 91 40 11 4 0 0 0 0 0 0 0 0 0 0 0 0 0
523 417 458 468 487 461 397 362 295 266 249 301 161 157 157 160 158 120 119 125 176 241 199 174 131 95 87 74 12 2 4 0 0 0 0 0 0 0 0 0 0 0 0
185 442 488 537 544 546 416 328 265 141 210 235 201 169 182 217 203 196 185 219 293 324 320 262 206 153 94 6 0 11 6 0 0 0 0 0 0 0 0 0 0 0 0
0 189 414 445 387 329 293 240 273 229 170 253 222 150 35 18 38 49 92 81 36 13 51 15 16 20 4 58 0 0 0 0 3 1 0 0 0 0 0 0 0 0 0
0 0 157 396 447 446 385 323 309 208 139 105 122 81 29 6 0 0 0 0 0 0 0 0 0 0 0 0 0 0 0 0 0 2 0 0 0 0 0 0 0 0 0
0 0 0 116 424 491 436 445 389 320 189 92 45 2 0 0 0 0 0 0 0 0 0 0 0 0 0 0 0 0 0 0 0 0 0 1 0 0 0 0 0 0 0

GFSSE_con_mlcape_072.txt.gz
CAPE
115 546 736 775 735 547 225 52 110 389 147 219 497 689 702 648 567 509 290 42 0 0 0 0 3 10 10 4 3 0 1 3 44 0 0 2 5 4 2 13 8 11 66
271 663 783 816 826 648 371 36 260 195 34 117 424 539 607 566 598 342 101 17 0 0 1 1 4 7 7 3 2 1 0 7 0 0 0 0 0 1 1 0 0 2 10
455 688 810 821 742 647 414 48 357 122 0 15 300 498 568 571 379 197 18 3 0 0 2 5 4 1 0 0 0 0 9 33 0 0 0 0 0 2 1 0 1 1 0
566 776 751 723 724 618 208 129 335 3 0 0 70 436 502 531 226 24 6 3 0 0 3 2 0 0 0 10 121 8 19 12 0 0 0 0 0 0 0 0 0 0 0
625 777 784 660 658 372 123 486 209 0 0 0 0 59 325 453 205 41 5 3 3 0 0 0 0 0 0 8 99 49 34 0 0 0 0 0 0 0 0 0 0 0 0
555 603 721 624 553 263 279 414 65 1 0 0 0 0 5 5 7 11 5 4 3 1 0 0 0 0 0 0 0 40 32 0 0 0 0 0 0 0 0 0 0 0 0
559 734 683 416 574 253 382 257 83 21 0 1 5 6 1 3 7 4 4 4 2 1 0 0 0 0 0 0 0 0 0 0 0 0 0 0 0 2 1 0 0 0 0
574 699 475 423 493 285 144 360 292 148 0 1 4 5 5 3 7 4 4 3 1 0 0 0 0 0 0 0 0 0 0 0 0 0 0 0 0 1 0 0 1 0 0
570 527 463 460 346 51 23 343 387 296 0 0 1 2 4 5 4 2 2 1 0 0 0 0 0 0 0 0 0 0 0 0 0 0 0 0 0 2 0 0 0 0 0
377 512 419 435 210 4 0 23 475 451 137 1 0 0 0 0 2 3 1 0 0 0 0 0 0 0 0 0 0 0 0 0 0 0 0 0 0 2 1 12 0 0 0
343 425 458 366 117 0 0 0 228 630 322 82 2 0 0 0 0 0 0 0 0 0 0 0 0 0 0 0 0 0 0 0 0 0 0 0 0 0 0 16 0 0 0
552 585 495 334 106 0 0 0 25 287 519 128 11 0 0 0 0 0 0 0 0 0 0 0 0 0 0 0 0 0 0 0 0 0 0 0 0 0 0 0 24 0 0
694 737 468 412 147 3 0 5 35 53 435 171 10 0 0 0 0 0 0 0 0 0 0 0 0 0 0 0 0 0 0 0 0 0 0 0 0 0 0 0 0 32 17
430 597 583 374 230 50 0 23 114 77 263 250 52 3 0 0 0 0 0 0 0 0 0 0 0 0 0 0 0 0 0 0 0 0 0 0 0 0 0 3 17 47 43
37 143 326 407 333 148 2 3 141 160 197 311 150 41 2 0 0 0 0 0 0 0 0 0 0 0 0 0 0 0 0 0 0 0 0 0 0 0 0 0 15 49 60
0 20 77 70 179 270 110 1 18 152 225 232 185 88 29 4 2 1 0 0 0 0 0 0 0 0 0 0 0 0 0 0 0 0 4 0 1 7 11 10 13 33 42
22 7 6 15 20 138 270 128 39 10 29 112 134 82 38 9 0 4 0 0 0 0 0 0 0 0 0 0 0 0 0 0 0 8 10 13 11 17 22 25 11 33 28
150 31 8 6 1 74 297 245 204 138 71 7 1 14 14 0 0 0 0 0 0 0 0 0 0 0 0 0 0 0 0 2 2 3 6 0 0 2 11 7 12 16 11
215 76 54 56 40 138 221 132 98 179 167 154 67 43 87 9 0 0 0 0 0 0 0 0 0 0 0 1 2 3 0 2 0 0 0 0 0 0 0 1 10 0 0
299 138 95 47 61 169 49 136 35 14 118 215 171 137 112 55 5 0 0 0 0 0 0 0 0 4 19 22 21 7 0 0 0 0 0 0 0 0 0 0 0 7 11
334 339 117 95 121 90 101 16 19 42 17 44 149 253 201 139 82 1 0 0 19 36 54 79 91 86 91 80 18 0 0 0 0 0 0 0 0 0 0 0 0 0 0
358 334 201 146 242 122 89 51 38 28 15 80 144 225 147 155 124 83 50 58 62 116 176 204 181 165 72 51 24 3 0 0 0 0 0 0 0 0 0 0 0 0 0
62 384 368 366 294 217 180 128 80 84 51 69 120 139 130 135 119 117 110 104 128 199 273 233 250 212 152 29 10 40 3 0 0 0 0 0 0 0 0 0 0 0 0
0 2 349 375 272 219 183 144 19 77 93 18 66 38 61 105 137 131 85 61 68 52 55 36 95 101 56 52 0 0 0 0 0 0 0 0 0 0 0 0 0 0 0
0 0 0 151 311 292 289 167 109 115 100 61 56 56 12 0 0 12 23 1 0 0 0 0 0 0 0 0 0 0 0 0 0 0 0 0 0 0 0 0 0 0 0
0 0 0 0 88 234 170 214 245 208 117 73 87 83 13 0 0 0 0 0 0 0 0 0 0 0 0 0 0 0 0 0 0 0 0 0 0 0 0 0 0 0 0

GFSSE_con_mlcape_075.txt.gz
CAPE
173 520 665 798 752 498 274 251 553 297 385 542 14 310 524 605 587 622 336 10 0 0 1 3 14 47 4 4 5 4 116 3 0 0 0 0 2 4 2 0 5 17 0
313 633 696 728 543 255 169 211 391 123 309 559 423 284 617 587 670 378 63 0 0 0 2 6 6 3 8 3 0 2 29 1 0 0 0 0 0 0 0 0 0 2 48
508 729 725 728 601 326 97 294 243 178 178 439 509 698 778 765 523 215 5 1 1 3 4 10 4 3 0 0 0 73 35 0 0 0 0 0 0 0 0 0 0 0 0
610 796 752 661 633 433 83 456 173 23 37 456 539 656 688 505 244 119 2 0 3 7 7 6 1 0 64 51 24 56 21 0 0 0 0 0 0 0 0 0 0 0 0
751 816 748 626 647 382 121 456 54 0 0 202 333 473 447 256 210 4 3 1 4 6 5 1 0 15 133 121 49 50 8 0 0 0 0 0 1 3 1 0 0 0 0
711 834 821 601 548 129 280 329 20 0 0 7 209 351 335 261 25 1 7 3 0 1 1 0 0 0 1 108 117 68 6 0 0 0 0 0 5 7 5 0 0 0 0
690 847 715 480 395 127 558 231 2 0 0 0 0 98 173 88 5 6 4 4 1 0 0 0 0 0 0 0 0 6 0 0 0 0 0 0 6 7 6 3 1 0 0
628 709 599 347 329 365 377 107 3 1 2 5 1 0 2 4 5 7 6 5 3 0 0 0 0 0 0 0 0 0 0 0 0 0 0 0 3 4 1 0 1 0 0
701 614 507 363 417 200 309 144 125 0 0 5 6 8 7 6 2 6 7 5 2 1 0 0 0 0 0 0 0 0 0 0 0 0 0 0 0 2 0 0 0 0 0
568 535 392 400 363 78 323 256 255 0 0 0 4 3 4 2 6 7 5 5 2 0 0 0 0 0 0 0 0 0 0 0 0 0 0 0 0 2 0 8 0 0 0
418 541 356 324 129 1 0 411 327 107 0 0 0 0 3 7 8 4 0 0 0 0 0 0 0 0 0 0 0 0 0 0 0 0 0 0 0 0 0 0 0 0 0
201 367 457 279 59 0 0 40 382 374 172 24 0 0 0 0 0 0 0 0 0 0 0 0 0 0 0 0 0 0 0 0 0 0 0 0 0 0 0 0 9 3 0
149 342 385 300 97 0 0 0 160 453 304 84 4 0 0 0 0 0 0 0 0 0 0 0 0 0 0 0 0 0 0 0 0 0 0 0 0 0 0 0 3 29 31
14 271 355 390 151 0 0 0 39 175 402 136 25 1 0 0 0 0 0 0 0 0 0 0 0 0 0 0 0 0 0 0 0 0 0 0 0 0 0 8 5 26 7
8 5 367 451 250 38 0 15 54 46 306 246 104 35 13 0 0 0 0 0 0 0 0 0 0 0 0 0 0 0 0 0 0 0 0 0 1 1 10 11 17 29 47
5 0 82 241 310 223 42 12 107 135 121 274 209 107 37 11 3 0 3 0 0 0 0 0 0 0 0 0 0 0 0 0 0 0 0 2 0 9 23 37 34 29 43
0 0 3 31 144 279 254 62 29 141 141 181 232 175 96 42 23 15 16 4 0 0 0 0 0 0 0 0 0 0 0 0 0 0 1 3 1 0 4 13 34 36 60
0 0 1 27 26 133 274 182 59 38 46 87 140 135 110 70 25 7 11 8 0 0 0 0 0 0 0 0 0 0 0 0 4 2 0 0 0 0 0 0 5 25 42
3 7 0 5 34 108 263 185 199 219 156 126 27 0 0 6 2 2 1 3 0 0 0 0 0 0 0 2 4 6 3 4 2 0 0 0 0 0 0 0 0 8 3
56 9 15 19 5 63 200 205 171 193 157 135 144 130 126 50 0 0 0 0 0 0 0 0 0 0 1 12 16 13 3 0 0 0 0 0 0 0 0 0 0 0 11
88 98 94 58 27 7 13 95 93 22 15 54 43 89 130 63 43 17 0 0 0 0 0 0 2 8 15 47 45 5 2 0 0 0 0 0 0 0 0 0 0 0 0
79 186 123 77 24 12 126 114 73 20 42 2 2 6 54 100 49 50 23 2 0 28 50 79 132 126 129 89 18 1 0 0 0 0 0 0 0 0 0 0 0 0 0
39 162 198 162 177 120 207 100 66 49 38 49 24 21 59 58 60 24 52 52 36 44 131 180 186 151 106 46 31 25 2 0 0 0 0 0 0 0 0 0 0 0 0
0 0 126 176 237 190 183 143 66 56 43 16 60 7 40 0 0 21 38 68 79 75 86 117 55 40 51 113 9 0 0 0 0 0 0 0 0 0 0 0 0 0 0
0 0 0 0 202 169 181 168 125 72 25 16 6 0 17 13 20 17 14 8 12 3 0 0 0 0 0 0 0 0 0 0 0 0 0 0 0 0 0 0 0 0 0
0 0 0 0 1 139 200 162 121 76 59 48 42 44 30 2 3 0 3 3 0 0 0 0 0 0 0 0 0 0 0 0 0 0 0 0 0 0 0 0 0 0 0

GFSSE_con_mlcape_078.txt.gz
CAPE
231 579 752 690 768 502 419 414 512 310 184 35 459 756 589 456 654 699 211 8 0 2 4 5 6 9 11 8 183 66 3 0 0 0 0 0 1 3 0 0 18 53 102
224 652 771 712 725 509 401 678 396 370 550 39 428 655 664 691 704 512 53 0 1 2 15 56 18 1 7 6 106 6 1 0 0 0 0 0 0 0 0 0 1 6 8
441 602 660 693 542 420 372 622 240 404 550 297 388 672 699 739 616 238 2 1 2 4 21 18 5 6 4 19 106 19 1 0 0 0 0 0 0 0 0 0 0 0 0
541 567 635 622 451 281 278 516 219 236 380 390 558 682 684 731 370 44 7 3 3 9 6 6 5 3 2 24 80 2 0 0 0 0 0 0 0 0 0 0 0 0 0
483 495 568 684 620 207 381 413 140 40 371 281 374 576 536 502 202 6 3 7 3 3 6 4 4 90 38 31 27 2 0 0 0 0 0 1 2 2 0 0 0 0 0
645 635 814 667 629 208 590 268 29 0 299 219 255 402 346 222 11 4 4 6 7 5 4 0 0 50 48 48 52 0 0 0 0 0 1 2 7 3 6 0 0 0 0
630 702 797 545 639 133 584 157 0 0 76 286 207 320 285 109 2 6 4 2 4 4 0 0 0 0 26 63 45 0 0 0 0 0 1 6 5 5 6 3 0 0 0
546 617 688 445 348 270 486 75 0 0 0 54 163 288 377 57 3 3 8 5 6 3 0 0 0 0 0 0 0 0 0 0 0 0 0 2 0 3 2 2 0 0 0
542 562 641 505 75 522 370 15 0 0 0 0 0 52 1 3 2 3 2 6 3 1 0 0 0 0 0 0 0 0 0 0 0 0 0 0 0 2 0 0 0 0 0
637 609 555 470 81 445 265 49 0 0 0 0 0 0 1 3 2 2 2 5 2 0 0 0 0 0 0 0 0 0 0 0 0 0 0 0 0 2 0 4 0 0 0
0 615 522 439 222 112 331 319 0 0 0 2 5 5 1 4 3 3 0 3 1 0 0 0 0 0 0 0 0 0 0 0 0 0 0 0 0 0 0 0 0 0 0
0 475 509 428 200 16 230 411 271 7 1 0 2 6 6 3 2 0 0 0 0 0 0 0 0 0 0 0 0 0 0 0 0 0 0 0 0 0 0 0 16 17 3
0 15 520 374 228 0 5 377 310 282 68 7 0 0 0 1 1 0 0 0 0 0 0 0 0 0 0 0 0 0 0 0 0 0 0 0 0 0 0 0 5 22 15
0 0 280 398 318 2 0 265 439 448 367 146 1 0 0 0 0 0 0 0 0 0 0 0 0 0 0 0 0 0 0 0 0 0 0 0 0 0 5 10 7 16 26
0 19 5 455 423 145 0 0 303 403 449 333 59 25 13 0 0 0 0 0 0 0 0 0 0 0 0 0 0 0 1 1 1 2 2 0 0 0 4 14 19 29 33
0 0 3 149 421 170 50 11 39 189 511 422 270 120 81 40 8 0 0 0 0 0 0 0 0 0 0 0 0 0 0 3 3 10 11 14 0 0 1 20 31 39 46
2 5 7 1 89 234 143 108 158 165 159 466 439 257 157 85 58 49 54 43 16 0 0 0 0 10 7 9 2 12 10 18 12 7 9 4 9 0 0 0 16 34 42
0 0 4 9 42 176 211 129 154 277 316 294 332 357 310 264 165 72 54 61 29 11 0 0 10 4 0 0 28 33 8 17 15 18 21 16 11 6 8 0 0 14 40
0 0 0 11 64 128 290 338 169 116 238 247 305 324 364 341 204 97 70 73 49 13 8 0 0 0 0 20 45 43 36 5 20 11 6 10 4 0 2 1 0 0 15
0 2 0 12 49 77 221 189 319 282 300 365 321 243 163 108 74 39 45 62 43 9 0 0 0 0 20 64 23 6 25 36 13 2 0 0 0 0 0 0 0 0 0
14 35 23 29 36 106 230 114 152 102 285 275 267 330 346 300 231 183 24 15 45 26 7 0 0 5 26 54 27 26 37 26 13 0 0 0 0 0 0 0 6 7 0
26 37 57 61 59 46 163 62 85 120 174 120 175 186 225 231 155 126 77 57 0 17 54 4 18 80 70 85 66 46 26 4 0 0 0 0 0 0 0 0 0 0 0
21 24 59 33 124 105 36 122 106 95 81 54 57 95 116 107 106 135 87 31 8 0 95 162 173 158 116 74 47 37 22 0 0 0 0 0 0 0 0 0 0 0 0
57 27 106 178 115 86 70 54 99 38 43 29 22 18 11 40 63 46 58 43 29 17 9 128 287 207 105 59 46 52 64 57 0 0 0 0 0 0 0 0 0 0 0
0 0 0 104 226 182 183 180 93 51 57 44 2 0 48 0 0 0 6 66 47 18 18 15 3 13 12 9 1 0 0 0 0 0 0 0 0 0 0 0 0 0 0
0 0 0 0 56 206 314 275 177 126 102 62 19 10 45 30 20 26 31 38 19 14 0 0 0 0 0 0 0 0 0 0 0 0 0 0 0 0 0 0 0 0 0

GFSSE_con_mlcape_081.txt.gz
CAPE
503 877 894 860 758 583 527 443 171 4 24 696 975 786 521 619 747 575 260 6 0 2 3 4 7 51 200 344 20 3 1 1 0 0 0 0 1 0 0 19 52 56 55
438 725 901 868 763 559 527 514 481 272 23 411 872 810 703 842 775 393 111 0 2 7 8 11 8 5 91 118 3 1 0 0 0 0 0 0 0 0 0 0 1 6 6
360 686 746 951 676 549 497 586 331 553 224 247 686 648 722 854 691 291 27 1 4 132 42 7 8 3 36 28 2 0 0 0 0 0 0 0 0 0 0 0 0 0 1
445 671 690 886 716 486 590 519 403 546 494 93 624 598 637 775 535 140 8 3 7 29 30 7 4 9 122 40 0 0 0 0 0 0 0 0 0 0 0 0 0 0 0
635 699 743 781 632 454 699 429 336 457 403 327 492 613 553 650 309 61 4 6 5 12 7 8 6 4 33 59 3 0 0 0 0 1 5 7 3 2 0 0 0 0 0
562 594 819 703 560 390 543 430 166 355 296 339 554 535 359 439 149 10 13 5 6 4 10 52 145 48 44 48 19 0 0 0 0 1 1 4 2 3 3 0 0 0 0
647 707 855 602 662 306 659 338 25 212 254 196 218 204 368 169 3 12 14 5 5 9 5 0 41 73 66 66 2 0 0 0 0 0 5 4 3 6 7 2 0 0 1
663 689 790 450 545 241 576 122 0 8 279 160 201 186 147 21 4 4 9 8 6 3 0 0 0 1 22 31 0 0 0 0 0 0 2 0 0 4 4 1 0 0 0
12 520 656 564 450 274 477 51 0 0 205 179 122 156 54 1 3 6 2 3 3 0 0 0 0 0 0 0 0 0 0 0 0 0 1 1 0 0 0 0 0 0 0
0 0 515 532 272 144 349 22 0 0 31 54 70 14 8 0 2 3 4 2 4 0 0 0 0 0 0 0 0 0 0 0 0 0 0 0 0 1 0 2 0 0 0
0 0 5 459 242 155 271 25 0 0 0 0 0 0 0 2 2 3 2 3 4 0 0 0 0 0 0 0 0 0 0 0 0 0 0 0 0 0 0 0 0 0 0
0 0 0 0 352 227 363 72 0 0 0 0 1 0 2 2 3 0 3 2 1 0 0 0 0 0 0 0 0 0 0 0 0 0 0 0 0 0 0 0 7 13 7
6 0 0 0 1 229 287 128 14 0 0 1 6 2 0 1 0 1 1 2 0 0 0 0 0 0 0 0 0 0 0 0 0 0 0 0 0 0 2 0 8 23 44
0 0 0 0 0 212 286 217 164 3 0 0 0 4 2 5 0 0 0 0 0 0 0 0 0 0 0 0 0 0 0 0 0 1 1 0 0 0 3 24 28 28 40
0 0 0 0 0 72 28 195 221 324 40 6 0 0 0 0 0 0 0 0 0 0 0 0 0 0 0 0 0 0 0 4 6 10 17 1 0 0 0 10 37 39 46
2 0 0 0 2 9 39 263 290 379 302 167 3 0 0 0 0 0 0 0 0 0 0 0 0 0 0 0 0 3 5 8 8 25 20 13 0 0 0 0 31 41 46
3 0 1 0 0 2 169 91 212 378 396 362 242 71 65 37 6 0 0 0 0 0 0 0 0 0 0 0 2 9 10 17 21 19 13 15 9 2 0 0 0 11 38
10 0 0 0 0 47 276 220 119 156 224 335 400 370 188 151 80 61 73 80 58 19 0 0 0 0 8 3 15 23 21 20 15 12 18 15 10 7 4 4 0 0 3
8 0 0 0 19 116 268 231 250 234 278 242 352 429 438 404 303 174 64 93 99 63 12 0 0 6 3 2 26 49 26 25 0 10 4 4 3 1 2 1 0 0 0
4 1 0 1 4 41 192 147 234 321 363 336 350 372 454 466 419 200 108 141 171 116 26 13 1 4 0 14 38 26 21 1 32 4 2 0 0 0 0 0 1 0 0
11 18 23 12 7 24 101 172 158 190 248 280 419 369 326 277 250 228 199 166 140 164 64 21 8 0 0 63 75 43 13 11 22 21 0 0 0 0 0 0 2 3 0
30 17 0 12 27 55 89 103 123 173 139 209 298 320 301 312 329 241 231 275 140 61 20 91 4 3 11 72 78 71 72 30 4 0 0 0 0 0 0 0 0 8 0
14 8 31 25 52 77 22 69 76 77 106 112 205 201 244 239 245 245 212 206 140 37 5 33 49 39 91 103 70 88 19 9 13 0 0 0 0 0 0 0 0 0 0
7 0 11 23 53 19 47 36 36 73 84 93 98 114 74 67 143 170 216 178 106 64 20 16 66 16 117 95 98 37 77 50 0 0 0 0 0 0 0 0 0 0 0
2 29 33 29 28 49 47 89 20 30 10 31 15 20 0 9 70 49 16 26 103 76 58 32 24 21 5 66 40 23 12 13 2 0 0 0 0 0 0 0 0 0 0
0 0 0 0 100 156 148 104 75 96 71 61 82 33 1 14 16 5 21 3 74 20 0 0 0 0 5 0 0 0 0 0 0 0 0 0 0 0 0 0 0 0 0

GFSSE_con_mlcape_084.txt.gz
CAPE
895 573 907 737 633 552 331 140 89 137 938 971 908 727 764 779 693 532 129 3 0 2 1 218 306 388 184 4 3 1 0 0 0 0 0 0 2 24 30 34 5 5 47
1022 785 1063 927 746 715 500 259 26 0 261 884 760 707 761 807 797 437 62 1 2 3 5 15 13 367 40 4 0 0 0 0 0 0 0 0 0 0 0 0 3 2 3
964 865 948 966 815 752 572 443 256 48 28 769 694 743 792 922 633 277 16 3 5 8 8 13 15 17 5 2 0 0 0 0 0 0 0 0 0 0 0 0 0 0 4
817 922 828 885 791 738 644 556 386 415 57 492 572 590 702 859 541 182 4 13 188 13 7 6 5 162 2 1 0 0 0 0 0 0 0 0 0 0 0 0 1 0 0
910 774 855 902 740 635 704 506 499 623 212 274 498 540 527 695 362 111 5 16 16 8 7 6 6 120 17 0 0 0 0 0 0 1 0 0 0 1 0 0 0 0 0
909 785 906 669 627 541 647 467 469 461 429 123 484 435 452 555 302 55 3 7 6 5 5 5 0 31 1 0 0 0 0 0 0 0 0 0 0 1 0 0 0 0 0
724 960 963 486 492 425 571 414 163 428 332 247 461 386 388 332 196 7 4 4 3 4 11 145 11 17 41 13 0 0 0 0 0 1 0 0 0 3 2 0 0 0 0
215 720 859 432 477 380 531 365 10 359 200 334 251 205 215 254 65 11 4 3 3 8 28 38 77 47 60 40 0 0 0 0 0 0 0 0 0 2 1 0 0 0 0
13 74 558 416 367 206 434 199 0 258 189 114 135 134 89 17 4 8 6 3 3 6 1 0 0 0 4 0 0 0 0 0 0 0 0 0 0 0 0 0 0 0 0
2 0 0 176 433 148 293 115 0 14 203 188 175 67 3 0 5 2 3 5 4 0 0 0 0 0 0 0 0 0 0 0 0 0 0 0 0 0 0 0 0 0 0
8 1 1 0 0 0 298 132 0 0 103 155 59 0 0 0 0 1 2 4 6 0 0 0 0 0 0 0 0 0 0 0 0 0 0 0 0 0 0 0 0 0 0
4 2 0 0 0 0 0 153 0 0 0 1 0 0 0 0 1 1 6 1 4 0 0 0 0 0 0 0 0 0 0 0 0 0 0 0 0 0 0 3 15 18 9
0 0 0 0 0 0 0 18 11 0 0 1 0 0 0 0 0 3 0 0 0 0 0 0 0 0 0 0 0 0 0 0 0 0 0 0 0 0 3 0 8 19 31
0 0 0 0 0 0 1 4 34 0 0 0 0 0 0 0 0 0 0 0 0 0 0 0 0 0 0 0 0 0 0 0 0 0 0 0 0 0 0 7 20 15 18
16 0 0 0 0 0 3 0 47 0 0 0 0 0 1 0 0 0 0 0 0 0 0 0 0 0 0 0 0 0 0 0 0 0 0 0 0 0 0 0 11 42 36
6 0 0 4 0 0 0 0 75 86 0 0 0 0 1 0 0 0 0 0 0 0 0 0 0 0 0 0 0 0 0 0 0 5 3 1 0 0 0 0 0 10 31
1 0 0 0 1 0 13 0 97 162 22 0 0 0 0 0 0 0 0 0 0 0 0 0 0 0 0 0 0 0 1 0 8 2 6 2 1 0 0 0 0 0 0
10 13 12 17 10 10 60 31 65 99 101 56 4 0 7 0 0 0 0 0 0 0 0 0 0 0 0 0 0 1 4 6 5 5 6 5 0 0 0 0 0 0 0
27 8 1 1 4 0 1 0 56 112 121 151 177 198 138 106 64 48 74 84 75 33 12 0 0 0 0 0 0 11 19 8 7 1 1 3 0 0 0 0 0 0 0
24 41 25 1 10 13 0 0 40 137 195 190 280 340 347 371 289 242 90 73 115 95 40 22 4 2 2 6 3 10 16 2 1 2 0 0 0 0 0 0 0 0 0
77 88 65 15 0 26 21 20 60 129 296 370 324 373 412 388 287 307 175 118 140 136 101 42 40 21 1 0 30 19 16 12 1 2 0 0 0 0 0 0 0 0 0
42 99 64 15 11 3 52 63 112 134 156 182 245 297 271 236 229 230 227 191 167 117 126 125 94 45 17 13 8 61 45 19 4 0 0 0 0 0 0 0 0 0 0
1 5 10 5 32 37 36 54 56 77 83 93 143 140 117 181 246 279 248 271 251 154 65 90 81 76 63 43 62 59 32 1 8 0 0 0 0 0 0 0 0 0 0
16 2 22 16 1 19 17 1 10 74 86 67 100 126 86 97 136 178 183 175 171 169 144 82 81 49 63 30 7 25 49 37 1 0 0 0 0 0 0 0 0 0 0
0 25 2 11 32 0 9 13 35 24 26 50 68 67 16 45 0 62 133 174 170 151 130 83 53 66 39 18 17 5 31 0 0 0 0 0 0 0 0 0 0 0 0
0 0 1 21 1 0 0 22 61 27 49 41 11 10 20 0 1 16 21 21 29 83 104 82 65 29 34 0 0 0 0 1 0 0 0 0 0 0 0 0 0 0 0

GFSSE_con_mlcape_087.txt.gz
CAPE
663 662 920 769 661 494 451 723 1258 1250 883 936 835 815 864 765 754 342 0 0 23 134 534 461 409 11 2 1 1 3 7 2 1 0 0 1 8 19 46 5 5 8 15
727 820 729 701 706 623 487 279 437 1058 970 914 864 770 739 798 627 273 26 0 0 53 423 373 289 4 1 0 0 0 0 0 0 0 0 0 0 0 0 0 3 3 2
729 783 743 778 726 670 540 231 31 284 880 841 721 747 735 921 671 158 9 3 2 5 7 289 118 2 0 0 0 0 0 0 0 0 0 0 0 0 0 0 0 1 1
905 953 826 825 799 763 674 397 98 0 525 812 644 678 823 918 503 98 6 0 5 11 10 7 4 0 0 0 0 0 0 0 0 0 0 0 0 0 1 1 0 0 0
923 948 1024 986 823 724 744 592 371 209 72 650 686 501 692 684 435 51 62 82 1 4 4 5 56 0 0 0 0 0 0 0 0 0 0 0 0 0 0 0 0 0 0
939 883 1048 929 910 743 724 528 603 708 168 397 499 520 548 444 382 100 111 16 4 5 7 6 91 0 0 0 0 0 0 0 0 0 0 0 0 1 2 1 1 1 0
760 1051 1037 1007 749 691 645 403 561 559 348 181 449 473 399 377 288 21 6 7 6 1 8 7 7 0 0 0 0 0 0 0 0 0 0 0 0 3 0 0 0 2 1
613 1046 1082 873 571 479 499 293 351 508 274 140 430 404 384 233 223 4 6 5 5 9 109 15 0 3 0 0 0 0 0 0 0 0 0 0 0 1 0 0 0 0 0
192 221 39 24 110 295 445 301 168 320 260 351 335 343 293 139 46 4 4 4 12 37 15 80 38 48 32 0 0 0 0 0 0 0 0 0 0 0 0 0 0 0 0
2 6 0 0 0 0 0 2 101 86 305 173 180 137 222 64 1 9 9 8 10 32 0 0 0 0 0 0 0 0 0 0 0 0 0 0 0 0 0 0 0 0 0
0 0 0 0 0 0 0 0 0 2 258 228 162 202 19 0 1 8 6 5 7 0 0 0 0 0 0 0 0 0 0 0 0 0 0 0 0 0 0 0 0 0 0
34 33 0 0 0 0 0 0 0 1 80 307 157 6 0 0 0 1 3 3 4 0 0 0 0 0 0 0 0 0 0 0 0 0 0 0 0 0 0 0 0 0 0
22 0 3 8 0 0 0 0 0 0 22 146 99 0 0 0 0 0 0 2 4 0 0 0 0 0 0 0 0 0 0 0 0 0 0 0 0 0 0 0 7 13 16
20 1 0 0 0 0 0 0 0 0 2 68 88 0 0 0 0 0 0 0 0 0 0 0 0 0 0 0 0 0 0 0 0 0 0 0 0 0 0 0 0 14 18
15 3 0 0 0 0 0 0 0 1 0 49 24 4 0 0 0 0 0 0 0 0 0 0 0 0 0 0 0 0 0 0 0 0 0 0 0 0 0 0 0 13 35
52 26 0 0 0 0 4 0 14 0 7 13 44 3 2 0 0 0 0 0 0 0 0 0 0 0 0 0 0 0 0 0 0 0 1 0 0 0 0 0 0 9 9
83 15 0 0 1 0 0 0 12 55 0 0 10 0 7 0 0 0 0 0 0 0 0 0 0 0 0 0 0 0 0 0 0 2 3 0 0 0 0 0 0 0 0
83 24 9 9 14 0 10 2 36 16 26 8 2 0 1 0 0 0 0 0 0 0 0 0 0 0 0 0 0 0 0 0 6 11 3 0 1 0 0 0 0 0 0
119 47 29 17 16 73 74 82 31 83 68 64 52 0 0 0 0 0 0 0 0 0 0 0 0 0 0 0 0 3 6 1 12 8 6 1 4 2 0 0 0 0 0
94 44 29 16 14 73 24 68 68 113 74 65 49 23 8 0 0 0 0 0 0 10 7 0 0 0 0 0 1 4 4 0 7 3 4 1 0 0 0 0 0 0 0
131 73 64 27 24 37 2 12 6 11 100 85 71 157 149 119 75 54 80 89 120 80 53 40 25 0 0 5 16 7 5 15 8 2 0 0 0 0 0 0 0 0 0
87 104 101 61 34 70 3 4 3 1 0 17 72 77 140 229 268 259 193 121 167 146 119 105 82 50 26 9 11 8 56 67 15 4 0 0 0 0 0 0 0 0 0
26 17 82 99 43 47 33 42 41 18 30 28 21 35 51 86 168 154 184 194 199 162 153 126 119 118 115 87 41 23 40 30 0 0 0 0 0 0 0 0 0 0 0
0 0 19 32 9 33 22 15 0 18 25 48 39 49 47 28 36 110 124 148 208 197 143 125 93 70 74 96 63 52 49 42 9 0 0 0 0 0 0 0 0 0 0
0 0 0 2 8 15 12 1 3 24 9 25 57 53 70 33 4 33 65 106 120 108 130 139 114 76 56 40 50 47 39 10 0 5 0 0 0 0 0 0 0 0 0
0 0 0 1 2 3 1 18 20 32 17 10 0 3 19 6 6 1 13 42 82 127 183 153 136 88 56 50 20 25 13 13 1 2 0 0 0 0 0 0 0 0 0

GFSSE_con_mlcape_090.txt.gz
CAPE
691 932 1063 996 997 1219 1354 1263 1210 918 724 819 887 859 934 843 620 128 0 326 471 331 76 457 72 81 27 6 25 15 4 2 4 1 3 4 24 11 0 0 6 3 6
743 962 1038 987 829 887 1168 1187 1232 920 929 904 894 797 756 837 444 13 0 286 395 643 509 320 4 4 0 0 4 1 0 0 0 0 0 0 0 0 0 0 3 5 2
733 930 978 966 909 781 725 872 1057 900 803 874 854 732 601 755 455 61 0 53 304 655 464 158 3 0 0 0 0 0 0 0 0 0 0 0 0 0 1 0 1 3 3
811 865 794 983 947 788 516 289 376 908 637 720 717 739 872 883 456 130 10 1 153 276 442 102 1 0 0 0 0 0 0 0 0 0 0 0 0 2 2 1 1 0 0
834 791 829 941 939 855 604 277 35 103 700 568 595 574 696 835 473 82 8 6 6 6 114 20 0 0 0 0 0 0 0 0 0 0 0 0 0 1 1 0 1 1 1
923 868 909 808 784 678 470 446 374 95 65 752 561 524 567 640 382 108 53 11 6 6 5 28 0 0 0 0 0 0 0 0 0 0 0 0 0 1 1 1 1 1 1
860 950 1042 598 435 911 760 495 494 712 371 478 557 549 422 556 244 185 211 0 3 6 5 146 0 0 0 0 0 0 0 0 0 0 0 0 0 0 0 1 1 1 1
806 745 671 469 357 528 409 162 444 548 381 151 469 500 406 456 116 88 63 6 7 8 12 83 5 0 0 0 0 0 0 0 0 0 0 0 0 1 0 0 0 0 0
306 253 98 26 13 9 23 11 63 293 280 120 254 311 230 231 74 14 6 4 4 3 16 45 3 0 0 0 0 0 0 0 0 0 0 0 0 0 0 0 0 0 0
31 22 6 3 0 0 0 0 0 0 73 232 106 178 157 131 52 12 4 5 10 46 297 39 1 48 0 0 0 0 0 0 0 0 0 0 0 0 0 0 0 0 0
7 12 24 1 0 0 0 0 0 0 0 13 15 143 124 107 25 1 2 4 11 31 37 11 19 0 0 0 0 0 0 0 0 0 0 0 0 0 0 0 0 0 0
36 0 4 0 0 0 0 0 0 0 0 0 91 99 57 70 15 0 0 6 6 4 0 0 0 0 0 0 0 0 0 0 0 0 0 0 0 0 0 0 0 0 0
64 35 2 0 0 0 0 0 0 0 0 0 0 87 24 16 9 0 3 6 6 1 0 0 0 0 0 0 0 0 0 0 0 0 0 0 0 0 0 0 0 0 14
37 28 6 7 0 0 0 0 0 0 0 0 0 28 14 6 0 0 3 3 1 0 0 0 0 0 0 0 0 0 0 0 0 0 0 0 0 5 14 1 0 0 13
71 9 0 0 0 0 0 0 0 0 0 0 0 2 54 4 0 0 0 0 0 0 0 0 0 0 0 0 0 0 0 0 0 0 0 0 0 0 5 17 16 8 17
70 46 1 0 0 0 0 0 0 0 0 0 0 3 21 1 1 0 0 1 0 0 0 0 0 0 0 0 0 0 0 0 0 0 0 0 0 0 0 4 2 7 23
42 4 7 0 0 0 0 0 0 0 0 0 0 34 2 20 4 0 0 0 0 0 0 0 0 0 0 0 0 0 0 0 0 0 0 0 0 0 2 2 7 11 4
35 48 46 7 1 0 0 0 0 1 23 13 13 39 0 0 23 7 5 1 0 0 0 0 0 0 0 0 0 0 0 0 0 0 1 0 0 1 3 0 0 0 0
124 92 71 26 9 0 0 0 2 35 48 2 4 8 0 0 0 19 0 0 0 0 0 0 0 0 0 0 0 0 0 0 0 0 5 2 0 2 0 0 0 0 0
168 155 86 49 7 0 15 28 53 69 25 22 0 0 27 0 0 2 0 3 0 0 0 0 0 0 0 0 0 2 0 0 0 0 0 0 0 0 0 0 0 0 0
148 133 110 58 28 2 1 3 13 57 90 12 9 2 22 44 1 1 0 0 0 0 0 0 0 0 0 0 0 4 6 0 0 0 0 1 0 0 0 0 0 0 0
152 158 95 67 36 15 22 15 18 56 81 75 37 24 21 69 94 41 6 9 2 0 10 18 18 15 2 3 25 26 21 15 14 5 0 0 0 0 0 0 0 0 0
37 66 90 103 72 23 23 17 10 64 10 58 58 52 46 71 113 146 94 151 176 162 139 97 90 98 71 36 21 26 22 9 20 0 0 0 0 0 0 0 0 0 0
0 0 9 10 33 22 38 24 6 17 11 0 5 15 36 49 49 64 116 151 202 176 167 179 162 131 122 86 45 36 43 40 25 14 0 0 0 0 0 0 0 0 0
1 2 0 2 1 35 31 42 1 23 24 22 5 17 22 17 42 38 33 49 70 110 97 92 86 94 86 59 57 33 42 33 4 6 4 0 0 0 0 0 0 0 0
0 1 0 1 0 0 5 0 5 4 9 13 21 5 21 17 14 15 3 2 19 58 62 91 45 44 57 64 59 52 24 30 7 0 0 0 0 0 0 0 0 0 0

GFSSE_con_mlcape_093.txt.gz
CAPE
573 839 988 1134 1315 1363 1341 1174 770 750 873 850 557 652 901 727 487 62 3 55 65 106 373 289 209 33 30 13 12 73 0 1 1 4 10 55 6 4 0 0 0 1 60
652 1019 929 980 1336 1404 1240 1190 944 707 833 855 811 703 514 547 325 23 429 487 337 176 572 180 108 47 7 17 2 0 0 0 0 0 0 0 0 0 1 4 3 1 10
747 1005 900 844 1041 1057 1017 1156 1041 785 851 822 750 449 646 554 207 16 450 539 607 638 420 10 6 2 3 5 0 0 0 0 0 0 0 0 0 0 0 1 3 2 1
815 983 886 833 769 869 991 1222 931 817 762 699 675 498 705 627 228 9 281 460 724 554 224 2 1 0 0 0 0 0 0 0 0 0 0 0 0 3 3 1 0 0 0
844 986 895 926 790 727 545 662 1006 947 734 614 581 544 683 731 316 100 26 341 601 389 81 0 0 0 2 3 1 0 0 0 0 0 0 0 0 1 2 2 2 1 0
771 851 993 953 937 759 447 164 111 664 883 588 493 522 529 699 443 143 64 90 25 204 27 0 0 0 0 0 0 0 0 0 0 0 0 0 0 3 4 3 3 2 2
795 779 961 951 948 728 546 378 260 100 212 759 693 645 555 750 280 138 57 15 0 10 13 0 0 0 0 0 0 0 0 0 0 0 0 0 0 2 3 4 3 3 2
735 866 627 422 409 489 410 267 505 622 614 380 588 669 645 572 274 105 149 3 6 6 44 7 0 0 0 0 0 0 0 0 0 0 0 0 0 1 1 1 1 1 1
244 347 251 223 212 104 45 125 212 199 263 282 139 484 544 193 198 17 102 1 8 6 8 68 0 0 0 0 0 0 0 0 0 0 0 0 0 2 0 0 0 0 0
7 48 45 0 0 0 0 0 0 0 0 0 168 278 315 170 137 12 20 1 3 7 11 48 14 0 0 0 0 0 0 0 0 0 0 0 0 1 0 0 0 0 0
5 0 5 1 1 0 0 0 0 0 0 0 57 267 225 177 122 13 5 0 2 3 10 17 6 0 0 0 0 0 0 0 0 0 0 0 0 0 0 0 0 0 0
34 16 8 0 0 0 0 0 0 0 0 0 0 71 149 160 117 5 0 0 7 39 221 41 44 0 0 0 0 0 0 0 0 0 0 0 0 0 0 0 0 0 0
27 21 15 11 0 3 0 0 0 0 0 0 0 0 40 119 64 12 0 8 19 31 45 25 0 0 0 0 0 0 0 0 0 0 0 0 0 4 2 0 0 0 17
55 56 24 16 19 12 0 0 0 0 0 0 0 0 9 55 29 10 0 1 22 13 7 6 0 0 0 0 0 0 0 0 0 0 0 0 0 9 11 9 1 15 32
38 69 59 43 21 14 0 0 0 0 0 0 0 11 14 37 27 6 4 1 2 11 5 0 0 0 0 0 0 0 0 0 0 0 0 0 0 1 20 20 18 25 27
44 25 21 7 1 0 0 0 0 0 0 0 0 0 30 35 13 1 1 0 2 0 13 0 0 0 0 0 0 0 0 0 0 0 0 0 0 0 1 12 29 16 16
1 2 8 0 0 0 0 0 0 0 0 0 0 0 12 17 17 1 0 3 0 5 26 0 0 0 0 0 0 0 0 0 0 0 0 0 0 0 2 3 11 15 11
0 0 12 0 0 0 0 0 0 0 0 0 0 0 7 8 33 1 4 1 34 50 70 0 0 0 0 0 0 0 0 0 0 0 0 0 0 0 0 2 0 9 11
0 19 63 11 0 2 0 0 0 0 0 0 1 2 16 44 35 20 0 0 16 1 26 0 0 0 0 0 0 0 0 0 0 0 0 0 0 0 0 0 0 0 0
16 53 68 56 36 22 0 0 0 2 1 2 0 60 60 37 50 56 11 0 42 55 33 0 0 0 0 0 0 0 0 0 0 0 0 0 0 0 0 0 0 0 0
117 131 106 87 65 4 0 0 3 2 0 21 60 82 82 56 5 14 5 8 2 45 51 0 0 0 0 0 0 0 0 0 0 0 0 0 0 0 0 1 0 0 0
92 110 128 125 91 51 13 0 1 1 0 27 35 80 33 43 2 7 14 17 15 1 38 42 15 0 0 0 0 8 13 12 12 2 0 0 0 0 0 0 0 0 0
46 59 86 125 122 83 46 17 12 20 19 22 46 23 31 47 38 29 14 7 8 12 6 28 14 0 0 0 19 28 20 1 17 0 0 0 0 0 0 0 0 0 0
24 11 31 44 48 16 45 45 37 10 3 18 13 33 14 22 16 45 60 73 66 57 49 28 25 12 51 55 21 21 20 16 9 0 0 0 0 0 0 0 0 0 0
1 1 1 0 1 0 35 15 25 14 5 11 1 10 7 13 21 47 20 46 71 82 94 114 115 80 108 115 61 50 39 42 20 10 3 0 0 0 0 0 0 0 0
2 2 1 1 0 2 1 1 0 22 2 26 9 5 4 13 20 16 18 23 42 56 74 60 54 59 57 65 50 37 31 32 8 24 17 2 0 0 0 0 0 0 0

GFSSE_con_mlcape_096.txt.gz
CAPE
506 972 865 1167 1194 1036 1024 973 975 953 1100 1268 1116 1002 928 857 637 310 45 50 91 336 651 461 292 275 192 80 127 4 1 15 29 31 19 5 3 1 0 0 2 7 41
580 1117 964 1249 1331 1028 1170 985 873 891 886 840 936 799 736 573 386 36 77 66 147 528 385 179 3 86 5 7 18 1 0 0 0 0 0 0 0 0 0 0 2 3 3
706 1182 946 978 1172 1018 1057 936 819 815 814 754 631 476 371 372 208 227 361 455 226 635 345 84 3 6 10 0 0 0 0 0 0 0 0 0 0 0 1 0 1 1 2
855 1177 949 972 1209 1075 928 976 792 787 767 717 589 596 397 378 169 336 445 668 696 493 57 2 2 3 4 0 0 0 0 0 0 0 0 0 0 1 1 1 0 0 0
893 1088 956 934 1077 1230 1184 1001 842 859 840 579 638 526 700 488 224 193 545 817 565 281 0 0 0 0 1 1 0 0 0 0 0 0 0 0 0 2 3 2 1 1 0
937 1001 998 875 922 897 944 1161 1076 922 847 709 563 449 468 788 440 105 349 619 379 123 0 0 1 3 3 0 0 0 0 0 0 0 0 0 0 4 3 3 4 4 2
899 910 980 810 829 824 542 365 518 825 978 836 631 590 608 751 496 231 182 321 372 178 10 0 1 4 0 0 0 0 0 0 0 0 0 0 0 4 4 4 4 3 2
679 595 744 587 689 810 612 366 334 298 286 655 680 689 710 621 532 224 97 86 226 139 15 0 0 0 0 0 0 0 0 0 0 0 0 0 0 3 3 1 1 1 3
82 313 254 629 563 435 485 408 341 323 283 178 278 542 583 453 355 250 16 31 0 17 12 0 0 0 0 0 0 0 0 0 0 0 0 0 0 2 0 0 0 0 0
1 29 84 44 15 0 0 0 0 0 0 24 194 213 379 387 231 143 6 10 1 4 59 22 0 0 0 0 0 0 0 0 0 0 0 0 1 2 0 0 0 0 0
1 2 1 0 0 0 0 0 0 0 0 0 119 175 171 225 214 162 34 0 0 4 3 140 5 0 0 0 0 0 0 0 0 0 0 0 0 3 0 0 0 0 0
0 0 1 2 0 0 0 0 0 0 0 0 6 21 120 164 183 167 41 14 0 0 7 39 36 0 0 0 0 0 0 0 0 0 0 0 0 3 0 0 0 0 0
0 0 1 1 0 0 3 0 0 0 0 0 0 0 15 53 100 96 48 16 0 0 5 11 9 3 0 0 0 0 0 0 0 0 0 0 0 4 0 0 0 0 0
0 1 13 10 1 8 8 0 0 0 0 0 0 0 0 12 53 92 56 20 0 0 39 75 9 9 0 0 0 0 0 0 0 0 0 0 0 22 26 22 13 1 0
0 8 9 17 28 28 23 12 0 0 0 0 0 0 15 12 65 100 85 27 20 1 17 35 17 0 0 0 0 0 0 0 0 0 0 0 0 0 36 38 33 31 35
0 11 6 19 33 21 18 2 0 0 0 0 0 0 4 21 45 94 110 65 34 23 5 26 15 0 0 0 0 0 0 0 0 0 0 0 0 0 0 29 39 40 45
0 0 0 0 0 0 0 0 0 0 0 0 0 0 0 0 11 70 101 77 42 5 4 26 21 6 0 0 0 0 0 0 0 0 0 0 0 0 0 3 18 25 30
0 0 0 0 0 0 0 0 0 0 0 0 0 0 0 0 0 14 55 79 30 11 1 15 9 61 0 0 0 0 0 0 0 0 0 0 0 0 0 0 1 15 24
0 0 0 0 0 0 0 0 0 0 0 0 0 0 0 0 0 8 12 49 37 9 0 1 11 25 20 0 0 0 0 0 0 0 0 0 0 0 0 0 0 0 10
0 0 0 0 9 0 0 0 0 0 0 0 0 0 0 0 0 4 18 48 9 2 0 0 0 40 18 6 0 0 0 0 0 0 0 0 0 0 0 0 0 0 0
19 57 29 53 50 35 0 0 0 1 0 0 0 0 1 1 0 17 48 75 1 1 0 0 0 21 24 3 0 0 0 0 0 0 0 0 0 0 0 0 0 0 0
147 164 128 122 96 65 22 3 1 0 0 0 0 0 1 18 8 109 80 75 3 0 0 0 0 0 18 17 8 0 0 0 0 0 0 0 0 0 0 0 0 0 0
128 109 103 114 101 98 72 45 15 4 0 0 0 0 4 17 28 26 21 30 1 0 0 0 0 20 1 6 38 16 18 0 16 8 16 5 3 0 0 0 0 0 0
52 32 58 46 12 12 2 9 20 17 1 0 0 0 0 14 16 13 28 3 1 1 21 0 8 36 48 54 47 30 38 23 20 12 4 0 0 0 0 0 0 0 0
0 0 1 0 0 0 0 21 24 36 6 0 1 1 10 1 14 9 14 10 12 12 18 6 54 60 71 79 84 63 73 78 32 33 36 23 0 0 0 0 0 0 0
1 2 0 0 2 0 3 1 0 0 1 0 1 0 4 7 1 0 2 10 11 30 36 21 43 45 90 128 131 79 101 67 45 41 51 13 0 0 0 0 0 0 0

GFSSE_con_mlcape_099.txt.gz
CAPE
546 1166 1208 1283 1122 1329 935 988 1127 1175 1124 1261 1287 1172 1122 814 551 241 60 59 209 663 546 505 488 366 303 235 207 168 159 166 205 41 0 0 0 0 0 1 4 36 124
572 1136 1139 1361 1350 1423 1208 1027 972 1119 1195 1131 1119 943 903 795 573 374 95 130 431 786 579 393 370 268 153 57 5 4 0 0 0 0 0 0 0 0 0 0 0 3 3
695 1244 1026 1194 1475 1215 1129 840 842 890 951 1073 897 726 694 658 468 132 96 151 512 777 342 49 89 2 6 18 2 0 0 0 0 0 0 0 0 1 1 0 0 1 1
829 1288 1120 1160 1140 1132 1057 782 796 804 816 746 498 461 379 435 257 201 345 264 647 642 320 39 3 11 0 0 0 0 0 0 0 0 0 0 0 1 0 0 0 0 0
927 1227 983 1124 1065 1005 1009 1002 781 829 806 798 756 505 441 358 313 384 617 514 569 376 87 4 0 1 0 0 0 0 0 0 0 0 0 0 0 2 2 2 1 1 0
902 1250 1015 1025 994 1051 1056 1068 946 897 840 727 774 608 558 495 377 468 525 426 384 91 0 0 0 0 0 0 0 0 0 0 0 0 0 0 1 3 2 1 0 0 1
510 1127 1104 819 757 921 1022 924 960 955 975 778 625 549 633 573 589 367 408 431 348 95 0 0 0 1 1 0 0 0 0 0 0 0 0 0 3 4 2 1 1 1 1
33 626 707 667 649 646 634 701 795 894 968 762 679 691 669 780 547 405 85 394 285 176 0 0 2 3 2 0 0 0 0 0 0 0 0 0 2 4 3 2 1 2 1
0 5 468 540 696 683 672 547 434 458 168 215 641 691 672 631 450 270 160 129 258 195 0 0 0 13 0 0 0 0 0 0 0 0 0 0 0 4 1 0 0 0 1
0 0 0 179 424 408 352 126 40 59 63 39 43 169 525 599 449 268 121 14 193 39 43 0 0 6 5 7 0 0 0 0 0 0 0 0 0 2 0 0 0 0 0
0 0 0 5 3 37 24 26 20 15 3 12 45 199 121 406 502 400 221 19 8 35 13 20 0 3 2 3 0 0 0 0 0 0 0 0 0 5 0 0 0 0 0
0 0 0 1 1 0 0 0 0 0 0 0 78 207 234 141 258 340 290 36 55 10 3 50 52 0 0 0 0 0 0 0 0 0 0 0 0 10 2 0 0 0 0
0 0 0 0 0 0 0 0 0 0 0 0 1 60 43 80 106 237 294 159 106 10 1 1 70 55 0 0 0 0 0 0 0 0 0 0 0 21 25 12 0 0 0
0 0 0 0 0 0 0 0 0 5 0 0 0 0 39 99 114 164 142 179 100 29 14 5 31 116 61 0 0 0 0 0 0 0 0 0 0 22 30 29 14 1 1
0 0 0 0 1 0 0 0 0 7 0 0 0 0 0 4 66 142 177 184 124 54 42 41 41 62 39 7 0 0 0 0 0 0 0 0 0 0 71 66 46 38 33
0 0 0 0 13 3 0 0 0 0 0 0 0 0 0 1 12 56 148 163 144 111 97 66 36 77 11 2 0 0 0 0 0 0 0 0 0 0 0 39 77 66 55
0 0 0 0 0 18 6 0 0 0 0 0 0 0 0 0 0 27 86 136 132 137 139 68 17 3 25 12 0 0 0 0 0 0 0 0 0 0 0 0 12 10 34
0 0 0 0 0 0 27 9 0 0 0 0 0 0 0 0 0 1 13 69 134 105 93 36 2 2 14 25 26 0 0 0 0 0 0 0 0 0 0 0 0 4 12
0 0 0 0 0 0 0 1 0 0 0 0 0 0 0 0 0 1 3 4 62 82 57 38 9 9 1 0 11 2 0 0 0 0 0 0 0 0 0 0 0 0 0
0 0 0 0 0 0 8 0 0 0 0 0 0 0 0 0 1 3 3 8 16 28 36 27 12 3 2 0 0 0 0 0 0 0 0 0 0 0 0 0 0 0 0
0 0 0 0 10 49 38 18 8 6 0 0 0 0 0 0 0 3 5 7 10 23 12 3 34 0 2 0 0 1 0 0 0 0 0 0 0 0 0 0 0 0 0
0 4 71 95 107 108 95 81 57 37 0 0 8 0 0 0 0 4 11 5 9 27 6 13 29 2 1 0 0 1 1 0 0 0 0 0 0 0 2 5 5 10 5
0 66 91 89 70 81 106 99 69 41 25 1 0 1 1 1 3 6 16 22 32 12 1 4 5 0 1 0 0 5 6 0 4 34 19 9 10 8 16 23 15 11 11
1 5 10 11 5 1 3 25 43 21 4 0 5 0 0 0 3 3 16 38 30 19 2 1 0 1 1 0 2 0 4 42 50 21 27 30 35 31 27 23 27 19 1
2 2 2 2 0 0 0 0 11 10 61 23 30 24 14 3 6 8 7 31 21 9 0 3 3 4 5 0 0 9 6 40 76 74 75 95 43 37 33 19 2 14 5
1 2 1 0 0 0 1 2 1 1 1 0 0 0 0 1 4 10 17 7 5 1 0 0 1 0 1 19 25 45 59 48 49 94 95 107 76 76 26 6 18 13 1

GFSSE_con_mlcape_102.txt.gz
CAPE
1026 1444 811 1270 1331 1023 899 1027 1198 894 861 1248 1364 1385 1079 816 784 169 30 238 158 89 99 254 322 436 420 426 280 292 256 241 256 21 0 0 4 12 13 11 54 155 207
711 1265 950 1253 1455 1262 918 1070 1212 1030 1043 1278 1290 1294 1100 838 601 245 59 154 596 817 645 703 523 495 407 242 186 177 92 30 0 0 0 0 0 0 0 0 3 9 21
1159 1161 931 1040 1234 1415 1108 877 1037 1274 1240 1123 1079 1105 951 842 699 499 225 229 923 772 706 722 540 359 146 13 42 57 0 0 0 0 0 0 0 0 0 0 0 2 1
1007 1174 1181 806 1157 1183 1167 853 856 980 1099 980 843 901 817 725 568 336 158 217 870 719 475 173 181 12 33 12 2 1 0 0 0 0 0 0 0 0 0 0 0 0 0
1000 1054 1183 976 1018 1110 984 910 954 976 813 775 554 548 373 478 356 329 465 340 716 483 269 18 70 0 0 1 0 0 0 0 0 0 0 0 0 1 2 1 0 0 0
392 1150 1119 841 914 910 830 781 946 938 890 809 749 534 447 513 294 592 437 607 548 449 158 44 29 0 0 0 0 0 0 0 0 0 0 0 0 0 1 1 1 2 1
101 865 998 749 752 689 799 827 820 763 839 787 681 683 669 631 582 603 361 318 390 221 47 5 24 0 0 0 0 0 0 0 0 0 0 0 1 4 3 3 2 1 3
0 76 1006 641 459 508 681 765 726 703 673 578 567 594 751 802 781 564 332 355 457 209 29 0 18 26 27 34 2 0 0 0 0 0 0 1 0 5 4 3 2 1 2
0 0 216 747 639 426 462 623 729 728 687 586 530 448 573 532 495 595 280 115 353 344 42 0 7 27 71 36 49 4 0 0 0 0 0 1 0 6 3 1 1 2 1
2 0 0 161 686 690 784 382 161 119 41 20 37 331 518 624 586 263 276 128 77 266 80 0 0 41 60 61 30 39 0 0 0 0 0 1 0 6 1 0 0 0 0
0 0 0 5 168 642 610 442 83 71 74 61 55 33 91 382 418 409 296 268 60 85 61 1 0 17 39 53 13 4 0 0 0 0 0 0 0 7 2 0 0 0 0
0 0 0 0 7 41 196 255 141 62 3 48 111 210 300 193 179 281 311 206 116 75 13 4 0 0 0 1 3 0 0 0 0 0 0 0 0 11 6 0 0 0 0
0 0 0 5 0 0 78 120 6 0 0 0 55 299 108 450 272 188 221 302 158 53 91 54 53 71 1 0 2 1 0 1 0 0 0 0 0 12 17 1 0 0 0
0 0 0 0 14 0 0 96 116 0 0 0 0 1 46 131 244 198 113 185 254 182 113 99 68 125 161 3 0 0 0 0 0 0 0 0 0 0 102 33 0 0 0
0 0 0 0 4 13 1 65 137 72 10 3 0 0 0 0 40 137 299 216 233 264 150 79 71 67 137 146 3 0 0 0 0 0 0 0 0 0 77 116 50 12 0
0 0 0 0 0 20 8 2 149 141 120 25 3 0 9 5 3 13 11 117 216 249 187 117 97 111 63 109 65 4 0 0 0 0 0 0 0 0 0 30 93 97 76
0 0 0 0 0 0 61 50 100 104 86 24 21 26 5 0 0 0 12 61 135 240 258 172 174 177 168 83 40 11 0 0 0 0 0 0 0 0 0 0 10 81 83
0 0 0 0 0 0 44 167 145 143 168 178 175 53 1 0 0 0 0 3 35 149 231 212 229 157 87 14 15 15 7 0 0 0 0 0 0 0 0 0 0 0 70
0 0 0 0 0 0 0 4 116 127 90 70 29 2 0 1 3 0 0 0 2 30 85 111 112 110 60 37 5 13 0 0 0 0 0 0 0 0 0 0 0 0 0
0 0 0 0 0 0 0 0 15 39 57 49 38 27 33 18 14 0 0 0 3 10 37 44 32 31 65 37 7 1 0 0 0 0 0 0 0 0 0 0 0 0 0
0 0 0 0 0 0 11 36 65 70 86 68 53 52 42 40 13 0 4 2 7 8 10 40 51 10 10 61 47 13 0 0 0 0 0 0 0 0 0 0 0 3 16
31 20 0 0 25 100 121 142 190 205 191 169 146 130 113 81 66 39 28 18 15 57 61 35 40 16 34 31 49 40 26 1 0 0 0 0 0 1 0 2 4 46 85
6 19 98 115 139 126 132 166 146 125 94 78 84 122 93 65 90 76 70 59 52 108 89 68 62 7 27 23 5 25 2 0 0 0 0 0 0 32 26 45 45 53 81
2 1 2 3 4 2 2 38 95 130 137 126 91 82 156 115 73 68 91 103 81 118 78 62 28 10 9 2 4 2 0 0 0 0 0 11 33 33 53 82 81 101 135
4 2 2 2 3 4 5 3 2 116 117 107 74 65 3 2 2 52 71 99 75 82 58 23 6 2 8 3 1 0 1 2 16 10 10 29 33 65 87 109 149 106 81
3 2 1 0 1 0 3 1 3 3 3 1 1 3 3 3 3 4 0 28 40 28 38 20 16 1 1 1 1 0 1 0 5 3 9 27 39 35 49 39 20 29 38

GFSSE_con_mlcape_105.txt.gz
CAPE
871 1435 818 1185 1183 1328 1247 1319 1077 886 1144 1451 1271 1280 990 829 933 26 73 80 112 100 88 307 260 428 392 470 292 297 297 265 180 34 13 40 66 67 35 76 125 170 232
1151 1347 840 1169 1196 1202 1151 1459 1136 942 1107 1260 1467 1404 1196 905 657 115 185 268 250 208 362 546 483 611 505 449 216 313 254 61 0 0 0 0 0 0 0 1 30 82 144
862 1197 982 1009 1393 1248 1044 1267 1123 1069 1135 1045 1165 1185 998 979 635 405 148 206 776 793 634 895 607 584 393 32 61 76 57 0 0 0 0 0 0 0 0 0 0 0 0
824 1133 1261 819 1066 1284 1065 927 1163 1285 1197 1158 1042 1066 1055 845 766 715 398 254 944 658 566 738 609 310 69 1 56 31 0 0 0 0 0 0 0 0 0 0 0 0 0
746 1090 1072 961 763 935 976 826 749 1109 1241 1001 920 842 967 825 739 427 347 257 733 657 432 282 213 52 0 2 2 0 0 0 0 0 0 0 0 0 1 0 0 0 0
286 753 1190 1087 727 747 716 788 739 858 878 832 685 714 535 656 502 375 617 455 620 525 280 89 109 9 0 0 0 0 0 0 0 0 0 0 1 0 0 0 0 0 3
172 488 796 914 780 806 709 618 627 806 912 699 598 606 641 687 715 428 423 330 537 422 226 143 76 6 0 0 0 0 0 0 0 0 0 0 0 0 3 2 1 2 3
60 210 668 939 680 722 613 547 536 531 587 639 638 451 715 765 780 432 396 221 417 476 240 97 88 0 0 3 30 0 0 0 0 0 0 3 0 1 3 3 1 1 1
0 36 267 864 726 495 575 689 709 658 601 600 331 296 308 557 616 641 376 196 323 409 244 43 2 28 0 25 22 16 0 0 0 0 0 3 0 2 2 0 0 2 2
0 0 17 140 686 743 772 464 565 625 543 517 471 289 304 175 444 364 378 203 83 329 250 57 1 26 36 15 3 7 0 0 0 0 0 9 0 1 1 0 0 1 1
0 0 0 21 101 523 644 727 272 164 91 13 2 0 20 235 385 473 322 304 172 92 181 61 19 34 5 0 3 0 0 0 0 0 0 0 0 2 3 0 0 0 0
0 0 0 0 14 84 327 494 550 239 156 87 62 50 73 61 96 196 237 162 258 76 89 40 6 0 9 0 0 0 0 0 0 1 0 0 0 1 8 0 0 0 0
0 0 0 0 0 5 70 159 262 300 149 16 32 102 77 116 329 286 295 285 324 153 133 52 27 7 2 0 0 0 0 0 0 4 3 0 0 0 7 0 0 0 0
0 0 0 0 0 0 7 27 156 218 40 1 0 27 144 155 282 187 97 102 246 280 132 129 89 62 25 5 0 0 0 0 0 2 5 0 0 0 50 38 1 0 0
0 0 0 0 0 0 7 13 42 253 151 21 1 0 0 24 102 153 163 257 239 262 300 140 116 88 115 75 8 0 0 0 0 0 0 0 0 0 0 130 118 15 2
0 0 0 0 0 0 16 32 31 114 167 103 57 27 0 0 13 39 45 74 101 201 300 215 140 109 70 84 100 6 0 0 0 0 0 0 0 0 0 0 177 74 84
0 0 0 0 0 0 0 23 47 34 131 141 106 176 70 24 24 27 30 24 56 77 113 271 159 117 135 125 71 98 4 0 0 0 0 0 0 0 0 0 0 58 139
0 0 0 0 0 0 0 6 59 82 103 236 224 199 213 113 43 10 10 24 39 70 105 134 193 175 148 207 134 115 42 0 0 0 0 0 0 0 0 0 0 0 35
0 0 0 0 0 0 0 0 135 124 158 238 372 301 274 198 90 32 16 20 33 48 100 167 218 164 162 206 188 174 89 12 0 0 0 0 0 0 0 0 0 0 0
0 0 0 0 0 0 0 0 0 27 201 306 231 161 112 75 54 37 29 27 44 52 52 83 47 114 102 141 96 102 76 25 2 0 0 0 0 0 0 0 0 0 0
7 2 11 0 0 0 0 0 0 9 45 193 215 164 104 98 82 75 65 54 62 48 41 36 48 72 58 73 87 76 22 10 0 0 0 0 0 0 0 0 4 6 2
2 3 2 33 4 0 0 38 85 160 212 300 279 233 242 208 189 172 137 94 117 78 67 66 72 65 75 64 46 56 32 17 7 0 0 0 0 0 0 0 2 1 8
3 3 2 6 43 78 80 220 361 329 270 258 216 161 235 214 148 68 96 112 148 145 103 110 120 78 65 61 76 44 30 9 13 5 0 0 0 0 0 0 0 5 26
2 2 1 1 2 2 2 25 117 206 333 371 189 159 197 103 35 11 14 50 107 172 163 130 154 105 100 63 95 74 45 3 0 0 13 0 0 0 0 0 0 14 37
0 0 0 0 2 2 3 5 3 0 17 22 49 45 11 2 1 1 2 2 0 66 103 88 104 103 105 101 69 50 41 27 0 0 0 8 2 0 0 8 51 45 47
1 0 0 0 0 1 2 1 0 1 1 0 2 5 5 4 2 1 3 3 4 2 26 104 94 59 93 35 46 28 0 4 0 1 0 4 20 0 9 18 32 84 101

GFSSE_con_mlcape_108.txt.gz
CAPE
960 1134 1079 1070 1228 1347 1362 1253 1017 1311 1541 1463 1082 997 958 889 583 0 17 16 53 106 170 319 341 436 358 213 353 177 176 323 131 35 50 58 74 72 135 110 177 102 188
843 1200 1016 1136 1246 1234 1304 1295 965 982 1272 1448 1294 1285 956 823 581 25 251 81 179 178 242 628 458 612 546 279 233 268 251 17 0 0 0 0 0 0 2 9 34 131 73
730 1347 995 1026 1130 1161 1307 1088 1031 934 1091 1081 1122 1244 1214 1016 477 215 163 248 542 414 603 735 552 684 563 21 72 150 83 0 0 0 0 0 0 0 0 0 0 1 2
531 928 1213 927 810 1074 1029 911 945 986 999 962 963 884 914 872 910 599 406 204 567 657 447 790 748 507 46 0 3 29 0 0 0 0 0 0 0 0 0 0 0 0 0
333 739 1087 1142 686 839 813 803 869 901 1010 1076 945 774 737 681 778 741 434 322 431 585 390 495 532 179 1 0 6 0 0 0 0 0 0 0 0 0 0 0 0 0 0
206 506 884 1058 754 712 696 724 707 736 775 852 909 762 637 789 530 525 302 285 294 616 419 311 278 74 0 0 0 0 0 0 0 0 0 0 0 0 1 0 0 0 1
41 213 779 1031 870 770 718 648 596 566 667 598 541 443 654 638 723 430 478 470 444 556 349 206 59 2 0 0 0 0 0 0 0 0 0 0 0 0 1 1 1 1 3
0 27 194 836 685 684 693 607 554 505 596 760 645 600 543 747 764 609 416 326 351 431 339 276 223 5 0 0 0 0 0 0 0 0 0 0 0 0 2 2 0 1 2
0 0 4 64 463 561 522 593 589 580 552 517 357 367 324 522 557 650 525 325 308 347 326 233 185 59 1 0 0 0 0 0 0 0 0 0 0 0 1 0 0 1 2
0 0 0 0 9 366 578 510 510 567 441 339 321 318 281 275 327 440 488 351 172 257 346 237 44 7 0 0 0 0 0 0 0 0 0 1 0 0 0 0 0 1 2
0 0 0 0 0 0 244 481 516 349 430 399 341 272 235 201 203 266 266 201 221 101 230 209 58 9 0 0 0 0 0 0 0 0 0 0 0 0 0 0 0 1 1
0 0 0 0 0 0 14 172 452 454 89 26 9 6 15 1 14 172 369 274 214 204 107 191 108 5 8 2 0 0 0 0 0 0 0 0 0 0 1 0 0 0 0
0 0 0 0 0 0 0 9 134 136 259 184 54 55 67 92 109 143 188 192 164 228 158 132 124 9 22 0 0 0 0 0 0 0 0 0 0 0 0 0 0 0 0
0 0 0 0 0 0 0 0 13 89 171 73 2 0 63 90 247 188 132 225 192 200 117 106 63 22 1 0 0 0 0 0 0 0 0 0 0 0 0 15 1 0 0
0 0 0 0 0 0 0 0 1 10 82 173 23 0 5 54 55 106 119 122 161 253 180 112 76 67 33 12 0 0 0 0 0 0 0 0 0 0 0 18 211 63 1
0 0 0 0 0 0 0 0 3 3 40 121 74 12 6 8 16 30 40 35 49 88 243 167 108 112 118 101 70 41 0 0 0 0 0 0 0 0 0 0 43 232 149
0 0 0 0 0 0 0 0 7 5 24 66 122 90 62 39 32 34 47 50 53 51 27 52 145 98 100 118 108 87 69 0 0 0 0 0 0 0 0 0 0 39 245
0 0 0 0 0 0 0 0 0 5 25 51 148 160 77 135 101 69 38 39 65 55 51 65 109 60 94 139 113 83 99 55 0 0 0 0 0 0 0 0 0 0 0
0 0 0 0 0 0 0 0 0 4 54 86 96 163 249 233 179 108 71 54 32 23 36 71 101 181 208 130 128 109 62 61 27 0 0 0 0 0 0 0 0 0 0
0 0 0 0 0 0 0 0 0 0 52 91 107 169 166 192 115 65 74 67 60 50 46 76 117 128 54 97 135 137 147 76 46 11 0 0 0 0 0 0 0 0 0
0 1 1 0 0 0 0 0 0 0 0 81 117 164 86 136 135 106 89 98 93 89 89 77 69 62 71 101 131 58 41 86 70 59 18 0 0 0 0 0 0 0 0
0 1 0 1 0 0 0 3 0 6 16 72 140 167 183 202 215 179 117 106 118 105 87 77 84 73 52 150 144 101 14 23 43 35 16 1 0 0 0 0 0 0 0
1 0 0 1 1 2 0 30 43 76 113 126 178 185 113 66 27 27 27 27 56 91 74 91 131 126 90 83 141 108 42 9 8 0 0 0 0 0 0 0 0 0 0
1 0 0 0 0 1 2 5 9 156 136 75 97 30 6 0 0 0 0 1 2 2 6 68 138 111 98 49 90 105 95 59 22 12 11 0 0 0 0 0 0 0 0
0 0 0 0 0 1 2 1 1 2 4 1 2 0 0 0 1 0 0 1 1 2 2 3 2 39 70 82 54 101 128 100 104 68 4 1 3 0 0 0 0 0 0
0 0 0 0 0 0 1 1 2 4 0 0 0 0 0 0 0 0 0 2 1 0 0 3 3 3 41 92 111 111 128 66 13 95 23 5 0 0 0 0 0 0 0

GFSSE_con_mlcape_111.txt.gz
CAPE
753 1001 1070 1226 1254 1205 1276 1198 1351 1405 1593 1379 997 873 929 761 132 0 37 141 77 94 338 338 417 278 139 397 144 59 177 161 189 160 102 107 199 221 235 125 73 112 144
585 1225 1098 1129 1341 1271 1208 1252 1038 1221 1371 1313 1097 987 903 844 181 63 48 66 176 191 340 527 497 702 308 199 225 225 137 0 0 0 0 0 0 80 75 50 95 87 10
453 1070 1172 1010 1079 1246 1226 1004 955 1052 1009 1231 1109 1211 1108 1058 394 106 262 222 322 350 511 567 494 741 277 26 112 118 14 0 0 0 0 0 0 0 0 0 0 2 4
321 718 1143 1077 800 967 997 844 817 852 954 910 863 941 952 1013 785 457 247 117 402 607 419 661 710 583 26 0 2 30 0 0 0 0 0 0 0 0 0 0 0 0 0
200 438 997 1290 735 603 748 678 847 907 825 916 960 803 759 966 986 875 595 283 238 465 377 544 551 197 0 0 13 0 0 0 0 0 0 0 0 0 0 0 0 1 0
38 238 890 1123 818 584 567 659 649 897 892 903 991 841 661 755 546 835 467 229 102 576 426 344 462 130 1 0 0 0 0 0 0 0 0 0 0 0 1 1 0 0 0
0 47 263 916 856 703 593 571 604 519 453 684 888 842 707 762 812 740 537 459 387 439 457 319 334 156 12 0 0 0 0 0 0 0 0 0 0 0 0 0 0 1 1
0 0 3 173 466 645 598 589 563 477 451 555 598 571 611 681 689 602 469 354 388 299 477 396 206 80 0 0 0 0 0 0 0 0 0 0 0 0 0 0 0 0 1
0 0 0 0 87 402 492 439 390 381 458 536 464 423 495 465 537 655 566 358 347 400 490 391 338 134 0 0 0 0 0 0 0 0 0 0 0 0 0 0 0 0 1
0 0 0 0 0 0 262 493 478 431 283 279 261 235 275 280 355 539 480 406 291 305 350 347 353 194 0 0 0 0 0 0 0 0 0 0 0 0 0 0 0 1 2
0 0 0 0 0 0 0 242 435 467 292 303 340 381 319 241 200 243 249 213 225 176 239 322 263 145 1 0 0 0 0 0 0 0 0 0 0 0 0 0 0 4 4
0 0 0 0 0 0 0 0 158 498 324 119 42 18 10 10 22 57 59 141 142 205 155 227 285 111 8 0 0 0 0 0 0 0 0 0 0 0 0 0 0 2 5
0 0 0 0 0 0 0 0 0 17 145 200 106 61 49 60 46 36 33 130 240 183 177 219 185 115 45 7 0 0 0 0 0 0 0 0 0 0 0 0 0 0 1
0 0 0 0 0 0 0 0 0 0 8 120 97 49 18 71 121 142 142 131 123 177 127 149 100 66 59 21 1 0 0 0 0 0 0 0 0 0 0 0 0 0 0
0 0 0 0 0 0 0 0 0 0 0 8 64 1 0 12 53 83 110 144 211 252 207 133 113 78 56 32 13 0 0 0 0 0 0 0 0 1 0 0 36 57 2
0 0 0 0 0 0 0 0 0 0 0 3 4 0 0 0 19 28 18 39 91 104 225 169 150 132 95 83 44 21 0 0 0 0 0 0 0 0 0 2 14 144 157
0 0 0 0 0 0 0 0 0 0 0 0 2 3 0 0 0 22 30 41 49 50 45 22 80 130 124 143 112 125 76 57 0 0 0 0 0 0 0 3 4 48 302
0 0 0 0 0 0 0 0 0 0 0 0 0 20 34 10 5 32 48 77 79 58 33 16 37 88 88 93 108 104 106 86 55 2 0 0 0 0 0 0 0 3 44
0 0 0 0 0 0 0 0 0 0 0 0 0 14 94 92 113 70 80 50 59 42 40 49 60 81 86 83 81 100 81 76 68 60 13 0 0 0 0 0 0 0 0
0 0 0 0 0 0 0 0 0 0 0 0 0 73 130 156 89 68 33 25 17 22 32 55 77 98 103 100 78 41 34 44 50 36 27 1 0 0 0 0 0 0 0
0 0 0 0 1 0 0 0 0 0 0 0 0 53 133 135 110 30 34 22 34 50 56 68 72 74 84 115 118 65 40 34 25 37 35 29 17 0 0 0 0 0 0
0 0 1 2 0 0 2 1 1 1 0 14 23 61 40 25 1 2 0 9 9 29 65 65 65 53 54 62 87 95 5 2 0 0 41 56 3 2 0 0 0 0 0
0 0 0 2 1 1 1 1 0 4 3 8 15 45 4 3 3 1 0 0 0 0 0 3 15 41 36 42 79 131 44 2 2 0 0 45 46 28 1 0 0 0 0
0 0 0 0 0 0 0 2 2 1 0 1 1 1 4 3 1 0 0 0 0 0 0 0 1 1 2 4 39 26 57 55 19 8 5 11 25 25 4 0 0 0 0
0 0 0 0 0 0 0 0 3 0 1 2 4 1 0 4 0 0 0 0 0 0 0 1 0 0 1 3 9 30 28 39 58 87 14 12 16 12 7 3 0 0 0
0 0 0 0 0 0 0 0 0 1 1 1 0 0 0 0 0 0 0 0 0 0 0 1 0 0 0 0 3 4 5 32 9 62 57 29 17 12 6 0 0 0 0

GFSSE_con_mlcape_114.txt.gz
CAPE
405 1027 1017 1109 1030 1081 1163 1206 1180 1187 1302 1338 1129 989 883 443 23 87 262 101 134 191 394 292 82 20 242 344 221 233 332 320 286 148 77 189 293 285 234 130 125 136 92
415 1116 1090 1039 919 908 1129 1219 1084 1084 1220 1138 943 904 930 641 4 52 30 68 217 310 495 646 590 440 375 356 273 180 0 0 0 0 0 0 53 155 67 123 81 47 18
334 626 1131 1034 922 861 929 945 1005 1050 1026 1102 1129 1083 1045 1015 215 222 69 181 301 327 472 628 635 617 200 461 213 92 0 0 0 0 0 0 0 0 0 0 8 24 4
201 517 1008 1216 841 777 885 850 905 986 956 1049 1077 1086 1003 1108 652 325 213 78 474 674 618 694 746 459 60 2 18 43 0 0 0 0 0 0 0 0 0 0 0 0 0
86 376 936 1038 805 691 580 565 777 940 910 954 945 889 963 997 1080 822 605 287 129 474 437 572 479 259 12 0 0 22 0 0 0 0 0 0 0 0 0 0 0 0 0
0 123 715 994 932 642 648 557 545 862 880 985 1087 1068 820 945 987 891 738 412 47 514 437 607 542 159 12 0 0 0 0 0 0 0 0 0 0 0 0 0 0 0 0
0 0 58 560 695 731 613 522 544 473 543 769 799 909 813 716 876 787 591 361 182 276 523 466 444 254 36 1 0 0 0 0 0 0 0 0 0 0 0 0 0 0 0
0 0 0 16 229 530 620 566 488 440 475 424 434 538 758 735 758 745 553 479 492 386 564 596 584 352 114 30 0 0 0 0 0 0 0 0 0 0 0 0 0 0 0
0 0 0 0 0 28 343 385 368 417 384 315 295 337 423 520 530 455 521 486 392 470 415 579 498 296 102 1 0 0 0 0 0 0 0 0 0 0 0 0 0 0 1
0 0 0 0 0 0 0 125 382 407 342 298 269 219 218 263 283 384 423 526 450 361 373 509 542 368 151 0 0 0 0 0 0 0 0 0 0 8 0 0 0 0 2
0 0 0 0 0 0 0 0 15 371 405 263 223 231 228 213 166 160 212 269 276 353 331 377 372 402 275 2 0 0 0 0 0 0 0 0 0 33 0 0 0 0 4
0 0 0 0 0 0 0 0 0 0 217 271 120 59 68 91 92 108 117 129 156 241 297 318 353 342 248 38 10 3 0 0 0 0 0 0 0 16 15 0 0 0 2
0 0 0 0 0 0 0 0 0 0 0 14 127 91 24 1 0 11 19 33 104 198 229 249 297 323 203 62 19 1 0 0 0 0 0 0 0 0 13 34 0 0 1
0 0 0 0 0 0 0 0 0 0 0 0 2 44 0 4 53 73 118 115 107 118 188 196 189 152 129 90 49 7 0 1 0 0 0 0 0 0 72 107 53 0 0
0 0 0 0 0 0 0 0 0 0 0 0 0 1 8 1 4 34 105 151 236 251 225 247 211 122 156 98 94 46 13 1 0 0 0 0 0 0 37 112 132 87 19
0 0 0 0 0 0 0 0 0 0 0 0 0 0 4 2 0 0 24 50 137 265 326 229 225 115 180 134 105 68 35 7 0 0 0 0 0 0 12 73 89 149 134
0 0 0 0 0 0 0 0 0 0 0 0 0 0 0 0 13 7 10 16 12 45 109 163 115 89 97 83 104 121 54 25 0 0 0 0 0 0 1 25 36 36 115
0 0 0 0 0 0 0 0 0 0 0 0 0 0 0 0 6 0 1 6 31 43 37 34 38 46 76 88 81 111 138 91 81 44 3 0 0 0 0 7 20 34 50
0 0 0 0 0 0 0 0 0 0 0 0 0 0 0 0 35 35 1 7 24 25 19 30 25 30 31 30 34 35 27 22 33 50 43 22 0 0 0 0 0 18 14
0 0 0 0 0 0 0 0 0 0 0 0 0 0 0 9 88 81 66 12 5 1 8 0 9 29 51 55 45 39 25 8 0 0 0 3 4 0 0 0 0 0 2
0 0 1 0 0 1 0 0 0 0 0 0 0 0 0 0 0 1 25 29 9 12 2 5 4 23 46 51 41 30 21 19 14 0 0 14 0 0 0 0 0 0 0
0 0 0 0 0 0 1 2 2 1 0 1 2 0 0 0 0 2 2 2 1 2 3 2 2 4 14 38 39 25 0 0 0 0 0 6 0 0 0 0 0 0 0
0 0 0 0 0 0 0 2 0 0 1 0 1 3 2 0 2 1 0 4 2 3 2 2 0 0 1 1 1 26 4 0 0 0 0 2 8 7 25 20 0 0 0
0 0 0 0 0 0 0 0 0 2 1 3 2 3 4 0 0 0 1 1 3 1 0 3 0 2 1 1 1 4 7 29 9 3 0 1 13 16 16 23 15 0 0
0 0 0 0 0 0 0 0 0 1 3 0 0 2 2 2 0 0 0 0 0 0 0 0 0 0 0 2 2 2 0 0 4 33 10 2 8 14 14 12 20 12 2
0 0 0 0 0 0 0 0 0 0 0 0 0 0 0 0 0 0 0 0 0 0 0 0 0 0 0 0 1 2 3 2 0 3 5 3 9 5 11 12 3 6 6

GFSSE_con_mlcape_117.txt.gz
CAPE
209 922 1057 1024 754 864 1026 934 1018 1127 1163 1042 988 923 628 130 8 241 108 28 148 260 275 177 27 33 201 296 360 340 293 307 336 189 164 239 313 320 243 172 115 96 62
226 603 1225 1069 825 749 816 849 778 880 1175 1035 1008 1072 1019 287 14 23 150 154 254 478 536 427 285 128 419 471 343 88 17 20 0 0 0 35 123 150 228 133 82 45 6
133 461 1050 1074 888 724 803 871 870 854 959 980 1274 1160 1081 712 183 159 33 166 309 373 546 614 608 211 449 455 397 43 0 0 0 0 0 0 0 20 10 20 64 0 2
60 352 901 1164 873 601 766 856 882 898 922 960 1085 1054 1142 975 581 374 240 167 474 700 762 653 687 454 286 256 163 72 0 0 0 0 0 0 0 0 0 0 0 0 1
4 186 776 827 775 566 567 612 766 792 888 811 929 955 951 1034 980 787 564 335 60 482 410 509 493 435 96 1 2 66 1 0 0 0 0 0 0 0 0 0 0 0 0
0 0 256 615 759 625 756 566 440 750 899 864 893 812 835 891 1011 1051 621 578 147 231 377 556 425 374 96 3 0 26 0 0 0 0 0 0 0 0 0 0 0 0 0
0 0 0 33 302 678 621 497 471 441 401 673 772 761 834 951 982 839 643 463 235 13 507 572 375 422 110 13 17 0 0 0 0 0 0 0 0 0 0 0 0 1 1
0 0 0 0 0 22 324 496 421 384 458 443 438 414 627 763 689 563 562 424 427 439 252 653 623 471 259 34 22 0 0 0 0 0 0 0 0 0 0 0 0 0 1
0 0 0 0 0 0 0 12 263 352 376 365 369 299 414 445 425 471 397 425 405 404 420 319 662 397 406 215 36 0 0 0 0 0 0 0 0 27 0 0 0 0 1
0 0 0 0 0 0 0 0 0 34 330 395 289 264 216 262 266 370 364 386 448 407 364 288 413 491 302 211 18 0 0 0 0 0 0 0 0 16 31 1 0 0 1
0 0 0 0 0 0 0 0 0 0 0 233 236 191 179 155 149 142 128 159 263 347 377 381 345 370 287 175 27 0 0 0 0 0 0 0 0 0 84 19 0 0 2
0 0 0 0 0 0 0 0 0 0 0 0 11 87 60 43 64 106 90 94 113 191 285 427 464 374 303 175 74 10 1 0 0 0 0 0 0 0 79 78 8 0 1
0 0 0 0 0 0 0 0 0 0 0 0 0 0 38 49 13 0 0 0 0 8 90 215 301 388 299 234 132 49 18 2 0 0 0 0 0 0 24 117 108 1 0
0 0 0 0 0 0 0 0 0 0 0 0 0 0 0 4 19 17 35 71 66 44 58 110 178 225 191 159 145 90 42 21 11 1 0 0 0 0 13 141 182 136 19
0 0 0 0 0 0 0 0 0 0 0 0 0 0 1 1 1 7 3 9 105 145 133 186 180 205 196 140 152 112 75 47 28 12 7 0 0 0 0 78 177 204 170
0 0 0 0 0 0 0 0 0 0 0 0 0 0 0 0 0 0 4 1 8 88 216 215 210 215 156 138 168 177 147 92 56 29 5 0 0 0 0 0 91 150 198
0 0 0 0 0 0 0 0 0 0 0 0 0 0 0 0 0 0 0 6 0 14 51 149 172 203 167 144 159 137 106 79 44 39 27 7 0 0 0 3 0 42 198
0 0 0 0 0 0 0 0 0 0 0 0 0 0 0 0 0 0 0 0 1 0 0 16 79 51 70 52 72 86 93 79 97 58 18 9 8 2 5 3 6 5 57
0 0 0 0 0 0 0 0 0 0 0 0 0 0 0 0 0 0 15 14 5 0 4 0 0 2 0 17 64 64 35 23 21 23 22 21 18 8 7 4 9 11 32
0 0 0 0 0 0 0 0 0 0 0 0 0 0 0 0 0 0 0 25 28 8 5 9 0 0 9 41 34 41 44 33 18 8 6 9 5 0 0 0 1 7 4
0 0 0 0 0 0 0 0 0 1 0 2 2 2 1 1 0 0 0 0 1 4 6 2 0 0 3 7 5 6 0 0 0 0 0 0 0 0 0 0 0 0 0
0 0 0 0 0 0 0 0 1 0 4 4 3 0 2 2 0 0 2 1 2 2 0 2 0 2 1 1 1 1 0 0 0 0 0 0 0 0 0 0 0 0 0
0 0 0 0 0 0 0 0 0 0 0 1 1 2 2 2 2 2 2 1 3 1 1 1 2 0 0 1 0 3 4 1 0 0 0 0 0 0 0 0 0 0 0
0 0 0 0 0 0 0 0 0 0 0 2 2 0 0 0 0 0 0 0 0 1 3 3 1 3 0 0 0 0 0 1 1 0 0 0 2 2 1 7 12 4 4
0 0 0 0 0 0 0 0 0 0 0 0 0 0 0 0 0 0 0 0 0 0 0 0 0 0 0 3 3 3 2 0 0 1 2 0 0 0 0 27 53 35 19
0 0 0 0 0 0 0 0 0 0 0 0 0 0 0 0 0 0 0 0 0 0 0 0 0 0 0 0 0 1 1 2 3 3 1 0 1 0 0 0 10 39 46